[[{"header":{"parameterUnit":"m.s-1","parameterCategory":1,"la1":30.6,"la2":29.2853,"lo1":-89.7004,"lo2":-87.6739,"dy":0.0162,"dx":0.0183,"nx":112,"ny":82,"refTime":"2023-09-19T12:00:00:Z","depth":0,"parameterNumber":2,"parameterNumberName":"U-component_of_WINDS"},"data":[0.0,0.0,0.0,0.0,0.0,0.0,0.0,0.0,0.0,0.0,0.0,0.0,0.0,0.0,0.0,0.0,0.0,0.0,0.0,0.0,0.0,0.0,0.0,0.0,0.0,0.0,0.0,0.0,0.0,0.0,0.0,0.0,0.0,0.0,0.0,0.0,0.0,0.0,0.0,0.0,0.0,0.0,0.0,0.0,0.0,0.0,0.0,0.0,0.0,0.0,0.0,0.0,0.0,0.0,0.0,0.0,0.0,0.0,0.0,0.0,0.0,0.0,0.0,0.0,0.0,0.0,0.0,0.0,0.0,0.0,0.0,0.0,0.0,0.0,0.0,0.0,0.0,0.0,0.0,0.0,0.0,0.0,0.0,0.0,0.0,0.0,0.0,0.0,0.0,0.0,0.0,-3.6748,-3.6378,-3.609,-3.5977,-3.5609,-3.5527,-3.5836,0.0,0.0,0.0,0.0,0.0,0.0,0.0,0.0,0.0,0.0,0.0,0.0,0.0,0.0,0.0,0.0,0.0,0.0,0.0,0.0,0.0,0.0,0.0,0.0,0.0,0.0,0.0,0.0,0.0,0.0,0.0,0.0,0.0,0.0,0.0,0.0,0.0,0.0,0.0,0.0,0.0,0.0,0.0,0.0,0.0,0.0,0.0,0.0,0.0,0.0,0.0,0.0,0.0,0.0,0.0,0.0,0.0,0.0,0.0,0.0,0.0,0.0,0.0,0.0,0.0,0.0,0.0,0.0,0.0,0.0,0.0,0.0,0.0,0.0,0.0,0.0,0.0,0.0,0.0,0.0,0.0,0.0,0.0,0.0,0.0,0.0,0.0,0.0,0.0,0.0,0.0,0.0,0.0,0.0,0.0,0.0,0.0,0.0,0.0,0.0,0.0,0.0,0.0,0.0,-3.8053,-3.7809,-3.771,-3.7634,-3.7567,-3.7093,-3.6687,-3.6472,0.0,0.0,0.0,0.0,0.0,0.0,0.0,0.0,0.0,0.0,0.0,0.0,0.0,0.0,0.0,0.0,0.0,0.0,0.0,0.0,0.0,0.0,0.0,0.0,0.0,0.0,0.0,0.0,0.0,0.0,0.0,0.0,0.0,0.0,0.0,0.0,0.0,0.0,0.0,0.0,0.0,0.0,0.0,0.0,0.0,0.0,0.0,0.0,0.0,0.0,0.0,0.0,0.0,0.0,0.0,0.0,0.0,0.0,0.0,0.0,0.0,0.0,0.0,0.0,0.0,0.0,0.0,0.0,0.0,0.0,0.0,0.0,0.0,0.0,0.0,0.0,0.0,0.0,0.0,0.0,0.0,0.0,0.0,0.0,0.0,0.0,0.0,0.0,0.0,0.0,0.0,0.0,0.0,0.0,0.0,0.0,0.0,0.0,0.0,0.0,0.0,0.0,0.0,-3.8311,-3.812,-3.795,-3.7895,-3.7824,-3.7793,-3.7195,-3.6858,-3.6928,-3.588,0.0,0.0,0.0,0.0,0.0,0.0,0.0,0.0,0.0,0.0,0.0,0.0,0.0,0.0,0.0,0.0,0.0,0.0,0.0,0.0,0.0,0.0,0.0,0.0,0.0,0.0,0.0,0.0,0.0,0.0,0.0,0.0,0.0,0.0,0.0,0.0,0.0,0.0,0.0,0.0,0.0,0.0,0.0,0.0,0.0,0.0,0.0,0.0,0.0,0.0,0.0,0.0,0.0,0.0,0.0,0.0,0.0,0.0,0.0,0.0,0.0,0.0,0.0,0.0,0.0,0.0,0.0,0.0,0.0,0.0,0.0,0.0,0.0,0.0,0.0,0.0,0.0,0.0,0.0,0.0,0.0,0.0,0.0,0.0,0.0,0.0,0.0,0.0,0.0,0.0,0.0,0.0,0.0,0.0,0.0,0.0,0.0,0.0,0.0,0.0,0.0,0.0,-3.8465,-3.841,-3.8381,-3.8218,-3.8119,-3.8119,-3.7489,-3.7177,-3.7386,-3.6611,0.0,0.0,0.0,0.0,0.0,0.0,0.0,0.0,0.0,0.0,0.0,0.0,0.0,0.0,0.0,0.0,0.0,0.0,0.0,0.0,0.0,0.0,0.0,0.0,0.0,0.0,0.0,0.0,0.0,0.0,0.0,0.0,0.0,0.0,0.0,0.0,0.0,0.0,0.0,0.0,0.0,0.0,0.0,0.0,0.0,0.0,0.0,0.0,0.0,0.0,0.0,0.0,0.0,0.0,0.0,0.0,0.0,0.0,0.0,0.0,0.0,0.0,0.0,0.0,0.0,0.0,0.0,0.0,0.0,0.0,0.0,0.0,0.0,0.0,0.0,0.0,0.0,0.0,0.0,0.0,0.0,0.0,0.0,0.0,0.0,0.0,0.0,0.0,0.0,0.0,0.0,0.0,0.0,0.0,0.0,0.0,0.0,0.0,0.0,0.0,0.0,0.0,-3.9834,-3.9758,-3.9775,-3.9518,-3.9361,-3.9361,-3.8821,-3.8325,-3.8048,-3.7277,0.0,0.0,0.0,0.0,0.0,0.0,0.0,0.0,0.0,0.0,0.0,0.0,0.0,0.0,0.0,0.0,0.0,0.0,0.0,0.0,0.0,0.0,0.0,0.0,0.0,0.0,0.0,0.0,0.0,0.0,0.0,0.0,0.0,0.0,0.0,0.0,0.0,0.0,0.0,0.0,0.0,0.0,0.0,0.0,0.0,0.0,0.0,0.0,0.0,0.0,0.0,0.0,0.0,0.0,0.0,0.0,0.0,0.0,0.0,0.0,0.0,0.0,0.0,0.0,0.0,0.0,0.0,0.0,0.0,0.0,0.0,0.0,0.0,0.0,0.0,0.0,0.0,0.0,0.0,0.0,0.0,0.0,0.0,0.0,0.0,0.0,0.0,0.0,0.0,0.0,0.0,0.0,0.0,0.0,0.0,0.0,0.0,0.0,0.0,0.0,0.0,0.0,-3.9858,-3.9824,0.0,-3.9468,-3.9175,-3.9175,-3.8472,-3.7931,-3.7666,0.0,0.0,0.0,0.0,0.0,0.0,0.0,0.0,0.0,0.0,0.0,0.0,0.0,0.0,0.0,0.0,0.0,0.0,0.0,0.0,0.0,0.0,0.0,0.0,0.0,0.0,0.0,0.0,0.0,0.0,0.0,0.0,0.0,0.0,0.0,0.0,0.0,0.0,0.0,0.0,0.0,0.0,0.0,0.0,0.0,0.0,0.0,0.0,0.0,0.0,0.0,0.0,0.0,0.0,0.0,0.0,0.0,0.0,0.0,0.0,0.0,0.0,0.0,0.0,0.0,0.0,0.0,0.0,0.0,0.0,0.0,0.0,0.0,0.0,0.0,0.0,0.0,0.0,0.0,0.0,0.0,0.0,0.0,0.0,0.0,0.0,0.0,0.0,0.0,0.0,0.0,0.0,0.0,0.0,0.0,0.0,0.0,0.0,0.0,0.0,0.0,0.0,-3.9875,-3.9746,-3.9694,0.0,-3.9265,-3.8887,-3.8887,-3.8103,-3.7537,-3.7358,0.0,0.0,0.0,0.0,0.0,0.0,0.0,0.0,0.0,0.0,0.0,0.0,0.0,0.0,0.0,0.0,0.0,0.0,0.0,0.0,0.0,0.0,0.0,0.0,0.0,0.0,0.0,0.0,0.0,0.0,0.0,0.0,0.0,0.0,0.0,0.0,0.0,0.0,0.0,0.0,0.0,0.0,0.0,0.0,0.0,0.0,0.0,0.0,0.0,0.0,0.0,0.0,0.0,0.0,0.0,0.0,0.0,0.0,0.0,0.0,0.0,0.0,0.0,0.0,0.0,0.0,0.0,0.0,0.0,0.0,0.0,0.0,0.0,0.0,0.0,0.0,0.0,0.0,0.0,0.0,0.0,0.0,0.0,0.0,0.0,0.0,0.0,0.0,0.0,0.0,0.0,0.0,0.0,0.0,0.0,0.0,0.0,0.0,0.0,0.0,0.0,0.0,-3.9875,-3.9668,-3.9537,-3.9677,-3.905,-3.8611,-3.8611,-3.7857,-3.7328,0.0,0.0,0.0,0.0,0.0,0.0,0.0,0.0,0.0,0.0,0.0,0.0,0.0,0.0,0.0,0.0,0.0,0.0,0.0,0.0,0.0,0.0,0.0,0.0,0.0,0.0,0.0,0.0,0.0,0.0,0.0,0.0,0.0,0.0,0.0,0.0,0.0,0.0,0.0,0.0,0.0,0.0,0.0,0.0,0.0,0.0,0.0,0.0,0.0,0.0,0.0,0.0,0.0,0.0,0.0,0.0,0.0,0.0,0.0,0.0,0.0,0.0,0.0,0.0,0.0,0.0,0.0,0.0,0.0,0.0,0.0,0.0,0.0,0.0,0.0,0.0,0.0,0.0,0.0,0.0,0.0,0.0,0.0,0.0,0.0,0.0,0.0,0.0,0.0,0.0,0.0,0.0,0.0,0.0,0.0,0.0,0.0,0.0,0.0,0.0,0.0,0.0,0.0,-3.959,-3.9554,-3.959,-3.9824,-3.9185,-3.8694,-3.8611,-3.765,-3.6982,-3.6861,0.0,0.0,0.0,0.0,0.0,0.0,0.0,0.0,0.0,0.0,0.0,0.0,0.0,0.0,0.0,0.0,0.0,0.0,0.0,0.0,0.0,0.0,0.0,0.0,0.0,0.0,0.0,0.0,0.0,0.0,0.0,0.0,0.0,0.0,0.0,0.0,0.0,0.0,0.0,0.0,0.0,0.0,0.0,0.0,0.0,0.0,0.0,0.0,0.0,0.0,0.0,0.0,0.0,0.0,0.0,0.0,0.0,0.0,0.0,0.0,0.0,0.0,0.0,0.0,0.0,0.0,0.0,0.0,0.0,0.0,0.0,0.0,0.0,0.0,0.0,0.0,0.0,0.0,0.0,0.0,0.0,0.0,0.0,0.0,0.0,0.0,0.0,0.0,0.0,0.0,0.0,0.0,0.0,0.0,0.0,0.0,0.0,0.0,0.0,0.0,0.0,0.0,-3.9335,-3.9458,-3.959,-3.9875,-3.9239,-3.875,-3.8595,-3.7562,-3.6845,-3.6708,0.0,0.0,0.0,0.0,0.0,0.0,0.0,0.0,0.0,0.0,0.0,0.0,0.0,0.0,0.0,0.0,0.0,0.0,0.0,0.0,0.0,0.0,0.0,0.0,0.0,0.0,0.0,0.0,0.0,0.0,0.0,0.0,0.0,0.0,0.0,0.0,0.0,0.0,0.0,0.0,0.0,0.0,0.0,0.0,0.0,0.0,0.0,0.0,0.0,0.0,0.0,0.0,0.0,0.0,0.0,0.0,0.0,0.0,0.0,0.0,0.0,0.0,0.0,0.0,0.0,0.0,0.0,0.0,0.0,0.0,0.0,0.0,0.0,0.0,0.0,0.0,0.0,0.0,0.0,0.0,0.0,0.0,0.0,0.0,0.0,0.0,0.0,0.0,0.0,0.0,0.0,0.0,0.0,0.0,0.0,0.0,0.0,0.0,0.0,0.0,0.0,0.0,-3.9152,-3.9388,-3.959,-3.9875,-3.9239,-3.875,-3.8583,-3.7533,-3.683,-3.6646,0.0,0.0,0.0,0.0,0.0,0.0,0.0,0.0,0.0,0.0,0.0,0.0,0.0,0.0,0.0,0.0,0.0,0.0,0.0,0.0,0.0,0.0,0.0,0.0,0.0,0.0,0.0,0.0,0.0,0.0,0.0,0.0,0.0,0.0,0.0,0.0,0.0,0.0,0.0,0.0,0.0,0.0,0.0,0.0,0.0,0.0,0.0,0.0,0.0,0.0,0.0,0.0,0.0,0.0,0.0,0.0,0.0,0.0,0.0,0.0,-4.4064,0.0,0.0,0.0,0.0,0.0,0.0,0.0,0.0,0.0,0.0,0.0,0.0,0.0,0.0,0.0,0.0,0.0,0.0,0.0,0.0,0.0,0.0,0.0,0.0,0.0,0.0,0.0,0.0,0.0,0.0,0.0,0.0,0.0,0.0,0.0,0.0,0.0,0.0,0.0,0.0,0.0,-3.9152,-3.9388,-3.959,-3.9875,-3.9239,-3.8678,-3.8399,-3.7371,-3.6616,-3.6336,0.0,0.0,0.0,0.0,0.0,0.0,0.0,0.0,0.0,0.0,0.0,0.0,0.0,0.0,0.0,0.0,0.0,0.0,0.0,0.0,0.0,0.0,0.0,0.0,0.0,0.0,0.0,0.0,0.0,0.0,0.0,0.0,0.0,0.0,0.0,0.0,0.0,0.0,0.0,0.0,0.0,0.0,0.0,0.0,0.0,0.0,0.0,0.0,0.0,0.0,0.0,0.0,0.0,0.0,0.0,0.0,0.0,0.0,0.0,0.0,0.0,-4.3767,0.0,0.0,0.0,0.0,0.0,0.0,0.0,0.0,0.0,0.0,0.0,0.0,0.0,0.0,0.0,0.0,0.0,0.0,0.0,0.0,0.0,0.0,0.0,0.0,0.0,0.0,0.0,0.0,0.0,0.0,0.0,0.0,0.0,0.0,0.0,0.0,0.0,0.0,0.0,0.0,-3.9061,-3.9282,-3.9441,-3.9556,-3.8952,-3.8455,-3.8128,-3.7178,-3.6507,-3.6211,-3.5765,0.0,0.0,0.0,0.0,0.0,0.0,0.0,0.0,0.0,0.0,0.0,0.0,0.0,0.0,0.0,0.0,0.0,0.0,0.0,0.0,0.0,0.0,0.0,0.0,0.0,0.0,0.0,0.0,0.0,0.0,0.0,0.0,0.0,0.0,0.0,0.0,0.0,0.0,0.0,0.0,0.0,0.0,0.0,0.0,0.0,0.0,0.0,0.0,0.0,0.0,0.0,0.0,0.0,-4.535,-4.5181,-4.4907,-4.4646,-4.434,-4.3989,-4.3851,-4.3686,-4.3515,0.0,0.0,0.0,0.0,0.0,0.0,0.0,0.0,0.0,0.0,0.0,0.0,0.0,0.0,0.0,0.0,0.0,0.0,0.0,0.0,0.0,0.0,0.0,0.0,0.0,-4.1323,-4.0772,0.0,0.0,0.0,0.0,0.0,0.0,0.0,0.0,0.0,0.0,0.0,0.0,-3.905,-3.9202,-3.9255,-3.9125,-3.8579,-3.8042,-3.7754,-3.6922,-3.632,-3.6148,-3.5733,-3.5504,0.0,0.0,0.0,0.0,0.0,0.0,0.0,0.0,0.0,0.0,0.0,0.0,0.0,0.0,0.0,0.0,0.0,0.0,0.0,0.0,0.0,0.0,0.0,0.0,0.0,0.0,0.0,0.0,0.0,0.0,0.0,0.0,-4.6202,-4.6285,0.0,0.0,0.0,0.0,0.0,0.0,0.0,0.0,0.0,0.0,0.0,0.0,0.0,0.0,-4.5594,-4.5594,-4.5568,-4.5485,-4.5429,-4.5254,-4.4986,-4.4712,-4.4364,-4.3989,-4.3851,0.0,-4.3515,-4.3515,0.0,0.0,0.0,0.0,0.0,0.0,0.0,0.0,0.0,0.0,0.0,0.0,0.0,0.0,0.0,0.0,0.0,0.0,0.0,0.0,0.0,0.0,-4.2205,-4.1866,-4.1475,-4.1047,0.0,-4.0362,-4.0096,-4.0096,-3.9986,0.0,0.0,0.0,0.0,0.0,0.0,0.0,-3.9405,-3.9352,-3.9191,-3.8871,-3.8157,-3.7504,-3.7087,-3.6445,-3.5973,-3.5784,-3.5604,-3.5504,-3.5504,-3.5148,0.0,0.0,0.0,0.0,0.0,0.0,0.0,0.0,0.0,0.0,0.0,0.0,0.0,0.0,0.0,0.0,0.0,0.0,0.0,0.0,0.0,0.0,0.0,0.0,0.0,0.0,0.0,0.0,0.0,-4.6194,-4.6276,-4.6306,-4.6308,-4.6308,0.0,0.0,0.0,0.0,0.0,0.0,0.0,0.0,0.0,-4.5854,-4.5754,-4.5676,-4.5594,-4.5594,-4.5568,-4.5504,-4.5438,-4.5286,-4.5057,-4.4751,-4.4421,-4.4091,-4.3899,-4.3703,-4.3548,-4.3532,-4.3515,-4.3515,0.0,0.0,0.0,0.0,-4.3515,-4.3515,-4.3515,-4.3515,0.0,0.0,0.0,0.0,0.0,0.0,0.0,0.0,0.0,0.0,0.0,0.0,0.0,-4.2231,-4.1766,-4.1318,-4.0894,-4.0485,-4.0188,0.0,-3.9986,-3.9875,-3.9807,0.0,0.0,0.0,0.0,0.0,-3.9501,-3.9299,-3.8942,-3.8455,-3.7799,-3.7178,-3.6739,-3.6164,-3.5799,-3.572,-3.5572,-3.5504,-3.5504,-3.5115,-3.4654,0.0,0.0,0.0,0.0,0.0,0.0,0.0,0.0,0.0,0.0,0.0,0.0,0.0,0.0,0.0,0.0,0.0,0.0,0.0,0.0,0.0,0.0,0.0,0.0,0.0,0.0,0.0,0.0,-4.6262,-4.63,-4.6307,-4.6308,-4.6308,0.0,0.0,0.0,0.0,0.0,0.0,-4.6209,-4.605,-4.5929,-4.5807,-4.5931,-4.5967,-4.5932,-4.6144,-4.6203,-4.6147,-4.611,-4.5978,-4.5776,-4.5439,-4.5139,-4.4842,-4.4557,-4.4251,-4.3911,-4.3605,-4.3515,-4.3515,-4.3515,-4.3515,-4.3515,-4.3515,-4.3515,-4.3515,-4.3515,-4.3515,-4.3515,-4.3515,0.0,-4.3515,-4.3515,0.0,0.0,0.0,0.0,-4.3358,-4.3233,-4.305,-4.2825,-4.2496,-4.2005,-4.1498,-4.1012,-4.0607,-4.0288,0.0,-4.0011,-3.9935,-3.9935,0.0,0.0,0.0,0.0,-3.9642,-3.9606,-3.9282,-3.8816,-3.823,-3.7519,-3.6937,-3.6445,-3.5941,-3.5638,-3.5638,-3.5554,-3.5504,-3.5504,-3.5115,-3.4654,-3.4201,0.0,0.0,0.0,0.0,0.0,0.0,0.0,0.0,0.0,0.0,0.0,0.0,0.0,0.0,0.0,0.0,0.0,0.0,0.0,0.0,0.0,0.0,0.0,0.0,0.0,0.0,0.0,0.0,0.0,-4.6308,-4.6308,0.0,0.0,0.0,0.0,-4.6308,-4.624,-4.6195,-4.6209,-4.6018,-4.5861,-4.5807,-4.6469,-4.6836,-4.6827,-4.7586,-4.7971,-4.7962,-4.7904,-4.7803,-4.7654,-4.7315,-4.6977,-4.6652,-4.6325,-4.5666,-4.4775,-4.388,-4.3515,-4.3515,-4.3515,-4.3515,-4.3515,-4.3515,-4.3515,-4.3515,-4.3515,-4.3515,-4.3515,-4.3515,-4.3515,-4.3515,-4.3515,-4.3515,0.0,0.0,-4.3394,-4.3358,-4.3233,-4.305,-4.2825,-4.2496,-4.205,-4.1552,-4.1012,-4.068,-4.0395,0.0,-4.0096,-4.007,-4.007,0.0,-4.007,-4.0087,-4.007,-4.0037,-3.9901,-3.9461,-3.8963,-3.8355,-3.7474,-3.6738,-3.6258,-3.5765,-3.5504,-3.5504,-3.5504,-3.5504,-3.5504,-3.5115,-3.4735,-3.438,-3.3479,0.0,0.0,0.0,0.0,0.0,0.0,0.0,0.0,0.0,0.0,0.0,0.0,0.0,0.0,0.0,0.0,0.0,0.0,0.0,0.0,0.0,0.0,0.0,0.0,0.0,0.0,0.0,0.0,-4.6308,-4.6308,0.0,0.0,-4.6308,-4.6308,-4.6308,-4.6239,-4.6446,-4.7003,-4.6844,-4.6952,-4.747,-4.7606,-4.7682,-4.7682,-4.7971,-4.8105,-4.8105,-4.8078,-4.8028,-4.7926,-4.7631,-4.7365,-4.7109,-4.6722,-4.6271,-4.5777,-4.5345,-4.4522,-4.3515,-4.3515,-4.3515,-4.3515,-4.3515,-4.3515,-4.3515,-4.3515,-4.3515,-4.3515,-4.3515,-4.3515,-4.3515,-4.3515,-4.3515,-4.3497,-4.3463,-4.3463,-4.3445,-4.341,-4.3232,-4.2994,-4.2631,-4.2172,-4.1661,-4.1018,-4.068,-4.0436,-4.0146,-4.0096,-4.0096,-4.0096,-4.0096,-4.0096,-4.0096,-4.0096,-4.002,-3.9807,-3.9435,-3.8892,-3.8144,-3.7356,-3.6662,-3.6116,-3.5716,-3.5504,-3.5504,-3.5504,-3.5439,-3.5326,-3.4949,-3.4582,-3.4196,-3.3409,-3.2654,0.0,0.0,0.0,0.0,0.0,0.0,0.0,0.0,0.0,0.0,0.0,0.0,0.0,0.0,0.0,0.0,0.0,0.0,0.0,0.0,0.0,0.0,0.0,0.0,0.0,0.0,-4.6302,-4.6308,-4.6308,-4.6308,-4.6308,-4.6308,-4.6426,-4.6719,-4.6688,-4.7012,-4.7861,-4.7718,-4.7843,-4.8372,-4.8493,-4.8548,-4.8548,-4.8836,-4.8971,-4.8971,-4.8962,-4.8912,-4.8872,-4.8587,-4.8352,-4.8113,-4.7729,-4.7255,-4.6732,-4.6577,-4.5642,-4.4268,-4.4011,-4.3901,-4.3864,-4.3606,-4.3515,-4.3515,-4.3515,-4.3515,-4.3515,-4.3515,-4.3515,-4.3515,-4.3515,-4.3515,-4.3515,-4.3515,-4.3515,-4.3515,-4.3515,-4.3339,-4.3105,-4.2728,-4.2274,-4.1792,-4.1157,-4.0776,-4.0485,-4.0213,-4.0121,-4.0096,-4.0096,-4.0096,-4.0096,-4.0096,-4.0096,-4.0037,-3.9781,-3.9398,-3.8854,-3.81,-3.7296,-3.6616,-3.6116,-3.5716,-3.5504,-3.5504,-3.5504,-3.5407,-3.5213,-3.4865,-3.4515,-3.4128,-3.3164,-3.2345,-3.1629,0.0,0.0,0.0,0.0,0.0,0.0,0.0,0.0,0.0,0.0,0.0,0.0,0.0,0.0,0.0,0.0,0.0,0.0,0.0,0.0,0.0,0.0,0.0,-4.617,-4.6257,-4.6297,-4.6306,-4.6308,-4.6308,-4.6348,-4.6348,-4.6699,-4.7578,-4.7586,-4.7888,-4.8703,-4.854,-4.8457,-4.8469,-4.909,-4.9433,-4.9433,-5.0289,-5.0712,-5.0712,-5.0633,-5.0603,-5.0593,-5.0337,-5.0051,-4.979,-4.9439,-4.8681,-4.762,-4.7407,-4.6801,-4.5883,-4.5057,-4.4745,-4.4654,-4.3864,-4.357,-4.3533,-4.3515,-4.3515,-4.3515,-4.3515,-4.3515,-4.3515,-4.3515,-4.3515,-4.3515,-4.3515,-4.3515,-4.3515,-4.3515,-4.3339,-4.3123,-4.2788,-4.2414,-4.1938,-4.1346,-4.0924,-4.0624,-4.0355,-4.0188,-4.0096,-4.0096,-4.0096,-4.0096,-4.0096,-4.0113,0.0,-3.9901,-3.9345,-3.8788,-3.8327,-3.7328,-3.6554,-3.6196,-3.5765,-3.5504,-3.5504,-3.5504,-3.5407,-3.518,-3.4865,-3.4481,-3.4059,-3.2775,-3.1629,-3.0698,0.0,0.0,0.0,0.0,0.0,0.0,0.0,0.0,0.0,0.0,0.0,0.0,0.0,0.0,0.0,0.0,0.0,0.0,0.0,0.0,0.0,0.0,-4.5958,-4.6115,-4.6187,-4.6245,-4.6283,-4.6306,-4.6542,-4.7187,-4.7246,-4.7598,-4.8476,-4.8484,-4.8788,-4.9597,-4.9448,-4.9606,-5.019,-5.0305,-5.0346,-5.0346,-5.0577,-5.0712,-5.0712,-5.0673,-5.0663,-5.0663,-5.05,-5.0271,-4.9993,-4.966,-4.9155,-4.8522,-4.8327,-4.7997,-4.7498,-4.6104,-4.5571,-4.5535,-4.5314,-4.4874,-4.4287,-4.3699,-4.3515,-4.3515,-4.3515,-4.3515,-4.3515,-4.3515,-4.3515,-4.3515,-4.3515,-4.3515,-4.3515,-4.3515,-4.341,-4.3269,-4.292,-4.2575,-4.2151,-4.1485,-4.103,-4.0669,-4.0362,-4.0188,-4.0096,-4.0096,-4.0096,-4.0096,-4.0096,-4.0011,0.0,-3.9642,-3.9077,-3.8427,-3.7725,-3.6983,-3.6352,-3.5879,-3.5636,-3.5504,-3.5504,-3.5504,-3.5326,-3.5001,-3.4783,-3.4196,-3.3094,-3.22,-3.1421,0.0,0.0,0.0,0.0,0.0,0.0,0.0,0.0,0.0,0.0,0.0,0.0,0.0,0.0,0.0,0.0,0.0,0.0,0.0,0.0,0.0,0.0,-4.5773,-4.5854,-4.6002,-4.6114,-4.6206,-4.6254,-4.6616,-4.703,-4.7558,-4.793,-4.8516,-4.9375,-4.9383,-4.9705,-5.0497,-5.0342,-5.0458,-5.0887,-5.0767,-5.0712,-5.0712,-5.0712,-5.0712,-5.0712,-5.0712,-5.0712,-5.0702,-5.0553,-5.0348,0.0,-4.9745,-4.9346,-4.8873,-4.8678,-4.8476,0.0,0.0,0.0,0.0,0.0,-4.5608,-4.5094,-4.4287,-4.3993,-4.3956,-4.3608,-4.3515,-4.3515,-4.3515,-4.3515,-4.3515,-4.3515,-4.3515,-4.3515,-4.3515,-4.3464,-4.3323,-4.305,-4.2728,-4.2295,-4.1666,-4.1192,-4.0772,-4.0461,-4.0238,0.0,-4.0096,-4.0096,-4.0096,-4.0096,-3.9986,-3.9755,-3.9415,-3.8843,-3.8173,-3.7387,-3.6739,-3.6179,-3.5752,-3.5572,0.0,0.0,0.0,-3.5326,-3.4935,-3.4534,0.0,0.0,0.0,-3.131,-3.0698,0.0,0.0,0.0,-2.9792,-2.9792,0.0,0.0,0.0,0.0,0.0,0.0,0.0,0.0,0.0,0.0,0.0,0.0,0.0,0.0,0.0,0.0,-4.5687,-4.5739,-4.5873,-4.6124,-4.6323,-4.6329,-4.7079,-4.7674,-4.7871,-4.8594,-4.9394,-5.0273,-5.0281,-5.0545,-5.1258,0.0,0.0,0.0,0.0,-5.0693,-5.0712,-5.0712,-5.0712,-5.0712,-5.0712,-5.0712,-5.0702,-5.0553,-5.0359,-5.0095,-4.9745,-4.9346,-4.8909,-4.8696,-4.8476,-4.8233,-4.7498,-4.7241,-4.7131,-4.6342,-4.6049,-4.592,-4.5112,0.0,0.0,-4.3901,-4.3626,-4.3608,-4.3533,-4.3515,-4.3515,-4.3515,-4.3515,-4.3515,-4.3515,-4.3464,-4.3376,-4.316,-4.286,-4.2452,-4.186,-4.1333,-4.0907,-4.0583,-4.0271,-4.0096,-4.0096,-4.0096,-4.0096,-4.0096,-3.9961,-3.9703,-3.9232,-3.859,-3.7927,-3.7208,0.0,0.0,-3.5688,-3.5572,-3.5504,-3.5504,-3.5472,-3.5326,-3.4935,-3.4216,-3.3563,-3.3058,-3.2092,-3.131,-3.0736,-3.0318,-3.0011,-2.983,-2.9792,-2.9792,0.0,0.0,0.0,0.0,0.0,0.0,0.0,0.0,0.0,0.0,0.0,0.0,0.0,0.0,0.0,-4.5622,-4.5665,-4.573,-4.5815,-4.6493,-4.7048,-4.7161,-4.7411,-4.8157,-4.9569,-4.9844,-5.0293,-5.1113,-5.1164,-5.1199,-5.13,-5.1167,0.0,-5.0906,-5.0764,-5.0712,-5.0712,-5.0712,-5.0712,-5.0712,0.0,0.0,-5.0702,-5.0553,-5.0382,-5.0151,-4.9773,-4.9358,-4.8976,-4.8695,-4.8476,-4.8288,-4.8141,-4.8086,-4.7957,-4.7149,-4.6856,-4.6746,-4.5957,-4.5663,-4.5535,-4.4727,-4.447,-4.436,-4.3699,-4.3515,0.0,-4.3515,-4.3515,-4.3515,-4.3515,-4.3497,-4.3428,-4.3233,-4.292,-4.2536,-4.1987,-4.1418,-4.0907,-4.0583,-4.0271,-4.0096,-4.0096,-4.0096,-4.0096,-4.0096,-3.9781,-3.9458,-3.9077,-3.8185,-3.7387,-3.6861,-3.6196,-3.5735,-3.5554,-3.5504,-3.5504,-3.5504,-3.5359,-3.5213,-3.5148,-3.4283,-3.3632,-3.3234,-3.2164,-3.1384,-3.0949,-3.0381,-3.0075,-3.0049,-2.9869,-2.9792,0.0,0.0,0.0,0.0,0.0,0.0,0.0,0.0,0.0,0.0,0.0,-4.5594,0.0,0.0,-4.5594,-4.5594,-4.5631,-4.5673,-4.5738,-4.6556,-4.7204,-4.7384,-4.8255,-4.9204,-5.0115,-5.0566,-5.0976,-5.1367,-5.14,-5.1361,-5.1291,-5.1167,-5.105,-5.0956,-5.0791,-5.0692,-5.0712,-5.0712,-5.0712,-5.0712,-5.0712,-5.0712,-5.0702,-5.0603,-5.0446,-5.0224,-4.9927,-4.9544,-4.9127,-4.8714,-4.8495,-4.8382,-4.8343,-4.8306,-4.8251,-4.7846,-4.77,-4.759,-4.6783,-4.6507,-4.6379,-4.5571,-4.5039,-4.4618,-4.4213,-4.3809,-4.3515,-4.3515,-4.3515,-4.3515,-4.3515,-4.3515,-4.3463,-4.3251,-4.2939,-4.2557,-4.2008,-4.144,-4.0907,-4.0583,-4.0271,-4.0096,-4.0096,-4.0096,-4.0096,-4.0096,-3.9807,-3.9441,-3.8969,-3.8157,-3.7387,-3.6693,-3.6148,-3.575,-3.5537,-3.5504,-3.5504,-3.5504,-3.5407,-3.5359,-3.5359,-3.465,-3.4079,-3.3707,-3.2583,-3.1776,-3.131,-3.0596,-3.019,-3.0113,-2.9908,-2.9792,0.0,0.0,0.0,0.0,0.0,0.0,0.0,0.0,-4.5594,-4.5594,-4.5594,-4.5594,-4.5594,-4.5594,-4.5594,-4.5594,-4.5594,-4.5689,-4.5905,-4.6742,-4.7481,-4.7832,-4.919,-5.0193,-5.0406,-5.1015,-5.1406,-5.1406,-5.1402,-5.1387,-5.1325,-5.1194,-5.1074,-5.0995,-5.0825,-5.072,-5.0702,-5.0693,-5.0712,-5.0712,-5.0712,-5.0712,-5.0712,-5.0623,-5.0489,-5.0302,-5.0025,-4.965,-4.9225,-4.8714,-4.8513,-4.8494,-4.8363,-4.8306,-4.8306,-4.8306,-4.8306,-4.8214,-4.7553,-4.7333,-4.7186,-4.6397,-4.57,-4.5095,-4.4783,-4.425,-4.3699,-4.3551,-4.3515,-4.3515,-4.3515,-4.3515,-4.3463,-4.3251,-4.2939,-4.2557,-4.2068,-4.1445,-4.0931,-4.059,-4.0337,-4.0121,-4.0096,-4.0096,-4.0096,-4.0096,-3.9858,-3.9451,-3.8914,-3.823,-3.7476,-3.6631,-3.6195,-3.5814,-3.5537,-3.5504,-3.5504,-3.5504,-3.5504,-3.5504,-3.5504,-3.4964,-3.4549,-3.4167,-3.308,-3.2273,-3.1813,-3.1035,-3.052,-3.0343,-3.0088,-2.9908,-4.4828,-4.5285,-4.5485,-4.5495,-4.5559,-4.5594,0.0,0.0,-4.5594,-4.5594,-4.5594,-4.5594,-4.5594,-4.5594,-4.5594,-4.5594,-4.5594,-4.5873,-4.6667,-4.7627,-4.8566,-4.9421,-4.987,-5.0414,-5.1195,-5.1346,-5.1406,-5.1406,-5.1405,-5.1398,-5.1394,-5.1255,-5.1133,-5.0992,-5.0921,-5.0821,-5.0692,-5.0693,-5.0712,-5.0712,-5.0712,-5.0712,-5.0712,-5.0623,-5.0511,-5.0348,-4.98,-4.9389,-4.9087,-4.8749,-4.855,-4.8494,-4.8363,-4.8306,-4.8306,-4.8306,-4.8306,-4.8306,-4.8214,-4.8177,-4.8031,-4.7223,-4.6892,-4.6562,-4.5131,-4.4654,-4.4415,-4.3699,-4.3515,-4.3515,-4.3515,-4.3515,-4.3463,-4.3251,-4.2939,-4.2595,-4.2169,-4.1613,-4.1071,-4.0728,-4.0478,-4.0238,-4.0138,-4.0096,-4.0096,-4.0096,-3.9755,-3.9405,-3.9023,-3.8071,-3.7268,-3.6739,-3.6101,-3.5671,-3.5504,-3.5504,-3.5504,-3.5504,-3.5504,-3.5504,-3.5504,-3.4964,-3.4582,-3.4366,-3.3409,-3.281,-3.2596,-3.1836,-3.1371,-3.1161,-3.0761,-3.0318,-4.4744,0.0,0.0,0.0,-4.5513,-4.5594,-4.5594,-4.5594,-4.5594,-4.5594,-4.5594,-4.5594,-4.5594,-4.5594,-4.5594,0.0,-4.5594,-4.59,-4.6782,-4.7762,-4.8753,-4.9681,-5.0381,-5.0969,-5.1367,-5.1404,-5.1406,-5.1406,-5.1406,-5.1401,-5.1405,-5.1319,-5.1189,-5.1048,-5.0959,-5.0844,-5.0701,-5.0693,-5.0712,-5.0712,-5.0712,-5.0712,-5.0712,-5.0663,-5.0593,-5.0446,-5.0019,-4.9731,-4.9544,-4.9174,-4.8925,-4.8767,-4.8642,-4.8513,-4.8419,-4.8325,-4.8306,-4.8306,-4.8306,-4.8306,-4.8251,-4.7901,-4.748,-4.6892,-4.5755,-4.5076,-4.4544,-4.3718,-4.3515,-4.3515,-4.3515,-4.3515,-4.348,-4.3358,-4.3068,-4.2729,-4.2356,-4.177,-4.1209,-4.0836,-4.0493,-4.0263,-4.0138,-4.0096,-4.0096,-4.0096,-3.9833,-3.9468,-3.905,-3.8214,-3.7328,-3.6399,-3.5878,-3.5554,-3.5504,-3.5504,-3.5504,-3.5504,-3.5504,-3.5504,-3.5504,-3.5162,-3.4883,-3.4702,-3.4011,-3.3479,-3.3171,-3.2439,-3.1946,-3.174,-3.1222,-3.081,-4.4675,0.0,0.0,-4.539,-4.5504,-4.5594,-4.5594,-4.5594,-4.5594,-4.5594,-4.5594,-4.5594,-4.5594,-4.5594,-4.5594,-4.5594,-4.5806,-4.6257,-4.7137,-4.811,-4.9083,-5.0031,-5.0821,-5.1333,-5.1387,-5.1404,-5.1406,-5.1406,-5.1406,-5.1404,-5.1396,-5.134,-5.125,-5.1136,-5.0997,-5.0866,-5.0757,-5.0731,-5.0712,-5.0712,-5.0712,-5.0712,-5.0712,-5.0673,-5.0623,-5.0511,-5.0243,-5.005,-4.992,-4.9518,-4.9257,-4.9077,-4.8891,-4.8697,-4.8513,-4.8401,-4.8325,-4.8306,-4.8306,-4.8306,-4.8306,-4.8306,-4.7901,-4.7241,-4.6214,-4.5498,-4.4819,-4.3791,-4.3515,-4.3515,-4.3515,-4.3515,-4.348,-4.3429,-4.3196,-4.2882,-4.2555,-4.2008,-4.1463,-4.1036,-4.0645,-4.0355,-4.0188,-4.0121,-4.0096,-4.0096,-3.9884,-3.953,-3.9115,-3.8214,-3.7222,-3.6132,-3.5716,-3.5504,-3.5504,-3.5504,-3.5504,-3.5504,-3.5504,-3.5504,-3.5504,-3.5326,-3.5115,-3.5001,-3.4501,-3.4113,-3.3845,-3.3171,-3.2725,-3.2475,-3.1955,-3.1529,-4.4931,0.0,-4.5399,-4.539,-4.5504,-4.5594,-4.5594,-4.5594,-4.5594,-4.5594,-4.5594,-4.5594,-4.5594,-4.5594,-4.5594,-4.5594,-4.6317,-4.7162,-4.8043,-4.896,-4.9947,-5.0932,-5.1206,-5.1333,0.0,-5.1404,-5.1406,-5.1406,-5.1406,-5.1406,-5.1405,-5.1343,-5.1277,-5.1199,-5.1075,-5.0968,-5.0899,-5.0759,-5.0712,-5.0712,-5.0712,-5.0712,-5.0712,-5.0633,-5.0603,-5.0582,-5.0314,-5.017,-5.005,-4.966,-4.9427,-4.9257,-4.9012,-4.8767,-4.8605,-4.8532,-4.8401,-4.8306,-4.8306,-4.8306,-4.8306,-4.8306,-4.8288,-4.7976,-4.6379,-4.5883,-4.5535,-4.3938,-4.3515,-4.3515,-4.3515,-4.3515,-4.348,-4.3429,-4.3305,-4.3105,-4.2769,-4.2374,-4.1956,-4.1463,-4.0995,-4.06,-4.0355,-4.0188,-4.0096,-4.0096,-3.9884,-3.9582,-3.9232,-3.7879,-3.6692,-3.6068,-3.5716,-3.5504,-3.5504,-3.5504,-3.5504,-3.5504,-3.5504,-3.5504,-3.5504,-3.5326,-3.518,-3.518,-3.4865,-3.4664,-3.4664,-3.4235,-3.3831,-3.3437,-3.3115,-3.2547,-4.4745,0.0,-4.5329,-4.5381,-4.5504,-4.5594,-4.5594,-4.5594,-4.5594,-4.5594,-4.5594,-4.5594,-4.5594,-4.5594,-4.5594,-4.5594,-4.6336,-4.7228,-4.8144,-4.9034,-4.9988,-5.1047,-5.1242,0.0,0.0,0.0,0.0,-5.1406,-5.1406,-5.1406,-5.1405,-5.1387,-5.1327,-5.1203,-5.108,-5.0971,-5.0899,-5.0768,-5.0712,-5.0712,-5.0712,-5.0712,-5.0712,-5.0692,-5.0682,-5.0653,-5.0521,-5.0435,-5.0348,-5.012,-4.9927,-4.9736,-4.9529,-4.9283,-4.9061,-4.8995,-4.8856,-4.866,-4.8401,-4.8306,-4.8306,-4.8306,-4.8306,-4.8012,-4.6397,-4.5902,-4.5553,-4.3938,-4.3515,-4.3515,-4.3515,-4.3515,-4.3479,-4.3463,-4.3411,-4.3269,-4.3012,-4.2554,-4.2047,-4.1631,-4.1082,-4.0624,-4.0355,-4.0188,-4.0087,-3.9986,-3.9635,-3.9125,-3.8439,-3.7488,-3.6662,-3.6068,-3.5716,-3.5504,-3.5504,-3.5504,-3.5504,-3.5504,-3.5504,-3.5504,-3.5504,-3.5439,-3.5392,-3.5392,-3.5162,-3.5016,-3.5016,-3.4668,-3.4433,-3.4269,-3.3377,-3.2734,-4.47,-4.5057,-4.5319,-4.54,-4.5513,-4.5594,-4.5594,-4.5594,-4.5594,-4.5594,-4.5594,-4.5594,-4.5594,-4.5594,-4.5594,-4.5594,-4.6567,-4.7556,-4.8182,-4.9288,-5.0335,-5.1081,-5.123,0.0,0.0,0.0,0.0,-5.1406,-5.1406,-5.1406,-5.1406,-5.1391,-5.1357,-5.1245,-5.1078,-5.0974,-5.0905,-5.0768,-5.0712,-5.0712,-5.0712,-5.0712,-5.0712,-5.0712,-5.0712,-5.0702,-5.0623,-5.0582,-5.0521,-5.0382,-5.0231,-5.005,-4.9887,-4.9617,-4.9349,-4.9308,-4.9144,-4.8923,-4.8605,-4.8513,-4.8513,-4.8513,-4.8495,-4.8163,-4.6542,-4.601,-4.5625,-4.4008,-4.3513,-4.3515,-4.3515,-4.3515,-4.3515,-4.3515,-4.3463,-4.3376,-4.3178,-4.2749,-4.2236,-4.1788,-4.1226,-4.0704,-4.0412,-4.0238,-4.0062,-3.9926,-3.9556,-3.9007,-3.8157,-3.749,-3.683,-3.6148,-3.575,-3.5554,-3.5504,-3.5504,-3.5504,-3.5504,-3.5504,-3.5504,-3.5504,-3.5504,-3.5504,-3.5504,-3.5359,-3.5326,-3.5326,-3.5096,-3.4846,-3.4497,-3.3649,-3.3,-4.4852,-4.5136,-4.5309,-4.5448,-4.555,-4.5586,-4.5586,-4.5586,-4.5586,-4.5586,-4.5586,-4.5586,-4.5586,-4.5586,-4.5605,-4.5594,-4.7009,-4.8124,-4.8178,-4.9768,-5.096,0.0,0.0,0.0,0.0,0.0,0.0,-5.1406,0.0,-5.1406,-5.1406,-5.1394,-5.1364,-5.1297,-5.11,-5.0969,-5.0898,-5.0767,-5.0712,-5.0712,-5.0712,-5.0712,-5.0712,-5.0712,-5.0712,-5.0702,-5.0633,-5.0603,-5.0593,-5.0468,-5.0337,-5.02,-5.0082,-4.9819,-4.9544,-4.9472,-4.9315,-4.9137,-4.9027,-4.8925,-4.8907,-4.8907,-4.8856,-4.8489,-4.6822,-4.6204,-4.575,-4.4059,-4.3548,-4.3515,-4.3515,-4.3515,-4.3515,-4.3515,-4.3515,-4.3427,-4.3232,-4.2939,-4.2537,-4.2008,-4.1418,-4.0884,-4.0558,-4.0271,-4.0062,-3.9926,-3.9694,-3.9228,-3.8411,-3.7783,-3.7118,-3.629,-3.5911,-3.5671,-3.5537,-3.5504,-3.5504,-3.5504,-3.5504,-3.5504,-3.5504,-3.5504,-3.5504,-3.5504,-3.5504,-3.5489,-3.5444,-3.5444,-3.4989,-3.4144,-3.394,-3.3299,-4.46,-4.4902,-4.5125,-4.5309,-4.5409,-4.5458,-4.5457,-4.5448,-4.5448,-4.5448,-4.5448,-4.5476,-4.5513,-4.5541,-4.5531,-4.5586,-4.7009,0.0,-4.8178,-4.9768,0.0,-5.1011,0.0,-5.1255,-5.1394,-5.1398,0.0,0.0,-5.1406,-5.1406,-5.1406,-5.1398,-5.1375,-5.1297,-5.1142,-5.1017,-5.0898,-5.0767,-5.0712,-5.0712,-5.0712,-5.0712,-5.0712,-5.0712,-5.0712,-5.0712,-5.0673,-5.0663,-5.0663,-5.0633,-5.0563,-5.0489,-5.0424,-5.0259,-5.0082,-5.0019,-4.9927,-4.9847,-4.9805,-4.9469,-4.9057,-4.9057,-4.899,-4.8626,-4.6903,-4.6288,-4.5802,-4.4076,-4.3548,-4.3515,-4.3515,-4.3515,-4.3515,-4.3515,-4.3515,-4.3427,-4.3232,-4.2939,-4.2575,-4.2127,-4.1346,-4.0697,-4.0387,-4.0213,-4.007,-4.0062,-3.9926,-3.9494,-3.8623,-3.7956,-3.7298,-3.6646,-3.6179,-3.5831,-3.5671,-3.5554,-3.5504,-3.5504,-3.5504,-3.5504,-3.5504,-3.5504,-3.5504,-3.5504,-3.5504,-3.525,-3.4741,-3.4741,-3.4397,-3.3662,-3.3,-3.2566,-4.4532,-4.4789,-4.4955,-4.5159,-4.5235,-4.5267,-4.531,-4.5281,-4.53,-4.5341,-4.5341,0.0,-4.5438,-4.5457,0.0,0.0,0.0,0.0,-4.8151,-4.9697,-5.0869,0.0,-5.1089,0.0,-5.1342,-5.1372,-5.1403,0.0,-5.1406,-5.1406,-5.1406,-5.1399,-5.1379,-5.1308,-5.1162,-5.1017,-5.0816,-5.073,-5.0712,-5.0712,-5.0712,-5.0712,-5.0712,-5.0712,-5.0712,-5.0712,0.0,-5.0712,-5.0712,-5.0712,-5.0653,-5.0593,-5.0572,-5.0468,-5.0337,-5.0302,-5.0243,-5.0194,-5.0194,-4.9935,-4.9608,-4.9569,-4.919,-4.8531,-4.7154,-4.6289,-4.5475,-4.4118,-4.3615,-4.3515,-4.3515,-4.3515,-4.3515,-4.3515,-4.3515,-4.3463,-4.3322,-4.3068,-4.2691,-4.2047,-4.1066,-4.0253,-3.9958,-3.9481,-3.9163,-3.9148,-3.9024,-3.8723,-3.8111,-3.7954,-3.7637,-3.6983,-3.643,-3.599,-3.572,-3.5572,-3.5504,-3.5504,-3.5504,-3.5504,-3.5504,-3.5504,-3.537,-3.5055,-3.512,-3.4821,-3.4162,-3.4209,-3.3878,-3.3126,-3.2691,-3.2288,-4.4491,-4.4653,-4.4757,-4.4967,-4.5014,-4.5026,-4.5106,-4.5091,-4.5091,-4.5192,0.0,-4.5181,-4.5317,-4.5351,-4.54,-4.5457,0.0,-4.7981,-4.8086,-4.9509,-5.0657,-5.0944,-5.1056,-5.1142,-5.1288,-5.1359,-5.1397,-5.1406,-5.1406,-5.1406,-5.1406,-5.1401,-5.1363,-5.1294,-5.1162,-5.097,-5.072,-5.0702,-5.0693,-5.0712,-5.0712,-5.0712,-5.0712,-5.0712,-5.0712,-5.0712,0.0,0.0,-5.0712,-5.0712,-5.0682,-5.0613,-5.0613,-5.0532,-5.0446,-5.0446,-5.0393,-5.0348,-5.0348,-5.0272,-5.0153,-4.9998,-4.9308,-4.8345,-4.7359,-4.6213,-4.5093,-4.4199,-4.3749,-4.3548,-4.3548,-4.3513,-4.3496,-4.3496,-4.3515,-4.348,-4.3411,-4.3142,-4.2641,-4.1803,-4.0626,-3.9692,-3.9339,-3.857,-3.798,-3.7905,-3.781,-3.7623,-3.7369,-3.7849,-3.7942,-3.7231,-3.6631,-3.6087,-3.5663,-3.5501,-3.5389,-3.5282,-3.5267,-3.5299,-3.5299,-3.5299,-3.5015,-3.4493,-3.4571,-3.4302,-3.3668,-3.3743,-3.3394,-3.2627,-3.2598,-3.218,-4.4067,-4.417,-4.4269,-4.4471,-4.4525,-4.457,-4.4757,-4.4789,0.0,0.0,-4.4833,-4.4907,-4.5038,-4.517,0.0,-4.54,0.0,0.0,0.0,0.0,-5.0003,0.0,0.0,0.0,0.0,0.0,0.0,0.0,0.0,0.0,-5.1406,-5.1405,-5.1348,-5.1222,-5.1092,-5.097,-5.0883,-5.0748,-5.0712,-5.0712,-5.0712,-5.0712,-5.0712,-5.0712,-5.0712,-5.0712,0.0,0.0,-5.0712,-5.0712,-5.0683,-5.0673,-5.0673,-5.0663,-5.0643,-5.0643,-5.0643,-5.0633,-5.0633,-5.0153,-4.9517,-4.9266,-4.8996,-4.8454,-4.679,-4.5973,-4.5409,-4.442,-4.3986,-4.3832,-4.3832,-4.3718,-4.3582,-4.3582,-4.3531,-4.348,-4.3411,-4.2577,-4.1734,-4.1288,-4.0137,-3.9138,-3.8796,-3.8322,-3.798,-3.7905,-3.7882,-3.7786,-3.7501,-3.7659,-3.7567,-3.6924,-3.6817,-3.6383,-3.5354,-3.5169,-3.4787,-3.4074,-3.4121,-3.4167,-3.4167,-3.4167,-3.4197,-3.4257,-3.4257,-3.3996,-3.3439,-3.3352,-3.2917,-3.2135,-3.2007,-3.1804,-4.3913,-4.3974,-4.4036,-4.4166,-4.4192,-4.424,-4.436,0.0,0.0,0.0,-4.4472,-4.4554,-4.4757,0.0,0.0,0.0,0.0,0.0,0.0,0.0,0.0,0.0,0.0,0.0,0.0,0.0,0.0,0.0,0.0,0.0,-5.1406,-5.1403,-5.1341,-5.1261,-5.1118,-5.1024,-5.0952,-5.0819,-5.0739,-5.0702,-5.0702,-5.0712,-5.0712,-5.0712,-5.0712,-5.0712,-5.0712,0.0,-5.0712,-5.0712,-5.0712,-5.0712,-5.0712,-5.0712,-5.0712,-5.0712,-5.0712,-5.0635,-5.0183,-4.974,-4.924,-4.823,-4.7788,-4.7495,-4.6576,-4.578,-4.5067,-4.4557,-4.4244,-4.4048,-4.4002,-4.391,-4.3781,-4.3718,-4.36,-4.337,-4.2881,-4.2267,-4.156,-4.0789,-3.9667,-3.8693,-3.8166,-3.7509,-3.6984,-3.6745,-3.6698,-3.6652,-3.6464,-3.6745,-3.6845,-3.6517,-3.6235,-3.5779,-3.5056,-3.4802,-3.45,-3.4105,-3.4134,-3.4163,-3.4163,-3.4223,-3.4143,-3.3879,-3.4079,-3.388,-3.3181,-3.3306,-3.3025,-3.241,-3.2274,-3.2079,-4.3767,-4.3816,-4.3832,-4.3894,-4.391,-4.3942,-4.4036,-4.3989,0.0,0.0,-4.4121,-4.421,-4.4449,0.0,0.0,0.0,0.0,0.0,0.0,0.0,0.0,0.0,0.0,0.0,0.0,0.0,0.0,0.0,0.0,0.0,-5.1406,-5.1401,-5.138,-5.131,-5.1217,-5.1089,-5.1022,-5.0898,-5.0799,-5.0729,-5.073,-5.0721,-5.0702,-5.0702,-5.0702,-5.0712,-5.0712,0.0,0.0,-5.0712,-5.0712,-5.0712,-5.0712,-5.0712,-5.0712,-5.0712,-5.0577,-5.0327,-4.9644,-4.9163,-4.8644,-4.7336,-4.6781,-4.6605,-4.6334,-4.559,-4.4808,-4.4732,-4.4554,-4.4322,-4.4269,-4.417,-4.4036,-4.3835,-4.354,-4.3074,-4.2366,-4.186,-4.123,-4.0239,-3.9153,-3.8203,-3.7606,-3.6803,-3.6144,-3.5778,-3.5689,-3.5616,-3.552,-3.587,-3.6089,-3.598,-3.5706,-3.5324,-3.4789,-3.4532,-3.4342,-3.4116,-3.4129,-3.4174,-3.4202,-3.4302,-3.4151,-3.3716,-3.4013,-3.3863,-3.3272,-3.3513,-3.3393,-3.2938,-3.2803,-3.2574,-4.3513,-4.3549,-4.3548,-4.3615,-4.3632,-4.3666,-4.3802,0.0,0.0,-4.3818,-4.3899,-4.3958,-4.4124,-4.4402,-4.4706,0.0,0.0,-4.6128,0.0,0.0,0.0,0.0,0.0,0.0,0.0,0.0,0.0,0.0,0.0,0.0,0.0,-5.1405,-5.1398,-5.139,-5.131,-5.1213,-5.1093,-5.1017,-5.0944,-5.0891,-5.0883,-5.0821,-5.0692,-5.0692,-5.0712,-5.0712,0.0,0.0,0.0,-5.0712,-5.0712,-5.0712,-5.0712,-5.0712,-5.0712,-5.0712,-5.0212,-4.951,-4.9433,-4.8394,-4.7096,-4.6942,-4.6848,-4.6618,-4.5774,-4.5339,-4.5148,-4.514,-4.4991,-4.4821,-4.4757,-4.4508,-4.4192,-4.3883,-4.3131,-4.2459,-4.2304,-4.1084,-3.9926,-3.9614,-3.8616,-3.7648,-3.7216,-3.6766,-3.6398,-3.6182,-3.5949,-3.5751,-3.56,-3.5571,-3.5471,-3.5241,-3.5873,-3.5814,-3.4621,-3.4508,-3.4119,-3.3188,-3.3296,-3.3472,-3.3588,-3.3588,-3.3724,-3.4046,-3.4097,-3.414,-3.4176,-3.4101,-3.3822,-3.3435,-3.3235,-3.2938,-4.3515,-4.3515,-4.3515,-4.3531,-4.3531,-4.3548,-4.3618,0.0,-4.3617,-4.3617,-4.3667,-4.3765,-4.3942,-4.4229,-4.4522,-4.4883,-4.5121,0.0,0.0,0.0,0.0,0.0,0.0,0.0,0.0,0.0,0.0,0.0,0.0,0.0,0.0,-5.1406,-5.1402,-5.1391,-5.1362,-5.1317,-5.1209,-5.1106,-5.1043,-5.1023,-5.0971,-5.0925,-5.0885,-5.0841,-5.0816,-5.0819,0.0,0.0,0.0,-5.0776,-5.0758,-5.0758,-5.0758,-5.0431,-4.998,-4.998,-4.9403,-4.8548,-4.8067,-4.7471,-4.6817,-4.6297,-4.6096,-4.5992,-4.5581,-4.54,-4.5329,-4.5328,-4.5224,-4.5114,-4.5022,-4.4636,-4.4105,-4.3376,-4.2804,-4.2126,-4.1073,-4.0343,-3.966,-3.892,-3.832,-3.7756,-3.7245,-3.6935,-3.6635,-3.6318,-3.6062,-3.5866,-3.5751,-3.5616,-3.5503,-3.5377,-3.5437,-3.5259,-3.4673,-3.4455,-3.4214,-3.3822,-3.3797,-3.3848,-3.3975,-3.405,-3.4226,-3.4448,-3.4618,-3.4691,-3.4667,-3.4691,-3.4546,-3.4226,-3.3984,-3.3739,-4.3463,-4.3463,-4.348,-4.3497,-4.3515,-4.3515,0.0,0.0,-4.3515,-4.3515,-4.3549,-4.3615,-4.3783,-4.403,-4.4322,-4.4694,-4.4976,-4.5515,0.0,0.0,0.0,0.0,0.0,0.0,0.0,0.0,0.0,0.0,0.0,0.0,0.0,-5.1406,-5.1405,-5.1401,-5.1405,-5.1381,-5.1336,-5.1219,-5.1142,-5.1136,-5.1074,-5.1056,-5.1035,-5.0988,-5.0959,-5.0937,0.0,0.0,0.0,-5.0596,-5.0463,-5.0444,-5.0196,-4.9727,-4.9172,-4.9164,-4.8598,-4.7715,-4.7129,-4.6773,-4.6465,-4.5832,-4.5631,-4.5622,-4.5559,-4.5495,-4.5458,-4.5458,-4.5409,-4.5222,-4.4824,-4.4392,-4.3797,-4.2735,-4.2103,-4.1401,-4.0171,-3.9698,-3.9305,-3.8512,-3.8271,-3.8034,-3.7523,-3.7245,-3.6976,-3.6594,-3.6301,-3.6084,-3.5949,-3.5773,-3.5639,-3.5543,-3.5274,-3.5024,-3.4828,-3.4643,-3.4521,-3.4472,-3.4399,-3.4399,-3.4521,-3.4618,-3.4763,-3.4923,-3.5128,-3.5175,-3.5065,-3.5175,-3.5065,-3.4811,-3.4618,-3.4448,-4.3358,-4.3394,-4.3429,-4.348,-4.3515,-4.3515,0.0,-4.3515,-4.3515,-4.3515,-4.3515,-4.3513,-4.3582,-4.383,-4.4094,-4.436,-4.4745,0.0,0.0,0.0,0.0,0.0,0.0,0.0,0.0,0.0,0.0,0.0,0.0,0.0,0.0,-5.1403,-5.1406,-5.1405,-5.1401,-5.1393,-5.1394,-5.1325,-5.1258,-5.1199,-5.1199,-5.1152,-5.1099,-5.1099,-5.1063,0.0,0.0,0.0,0.0,-5.006,-4.9711,-4.9626,-4.8759,-4.8409,-4.8409,-4.8411,-4.7855,-4.7093,-4.7017,-4.6468,-4.5792,-4.5726,-4.5701,-4.5693,-4.5622,-4.5594,-4.5594,-4.5594,-4.5504,-4.5141,-4.4083,-4.3653,-4.3202,-4.1992,-4.0963,-4.0174,-3.9963,-3.9276,-3.8658,-3.8525,-3.8446,-3.8318,-3.8035,-3.7775,-3.7485,-3.7147,-3.6733,-3.6419,-3.6225,-3.5949,-3.5751,-3.5622,-3.56,-3.5464,-3.5111,-3.5088,-3.5058,-3.4899,-3.4899,-3.4947,-3.5105,-3.5088,-3.5222,-3.5492,-3.5492,-3.5492,-3.5492,-3.5492,-3.5377,-3.5105,-3.5088,-3.4947,-4.292,-4.2994,-4.3087,-4.3196,-4.3233,-4.3269,-4.3394,-4.3429,-4.3446,-4.3497,-4.3515,-4.3513,-4.3582,-4.3781,-4.4036,-4.4275,-4.4629,0.0,0.0,0.0,0.0,0.0,0.0,0.0,0.0,0.0,0.0,0.0,0.0,0.0,0.0,-5.1394,-5.1404,-5.1406,-5.1405,-5.1402,-5.1399,-5.1389,-5.1357,-5.1347,-5.1288,-5.1268,-5.1245,-5.123,0.0,0.0,0.0,0.0,0.0,-4.9337,-4.8946,-4.8927,-4.8644,-4.8136,-4.7577,-4.7584,-4.703,-4.6281,-4.6267,-4.6073,-4.5859,-4.5838,-4.581,-4.5769,-4.5734,-4.5668,-4.5594,-4.5594,-4.5147,-4.4537,-4.4114,-4.3382,-4.2468,-4.1304,-4.0677,-4.0117,-3.9319,-3.8946,-3.8716,-3.8541,-3.8494,-3.8364,-3.8101,-3.7966,-3.7739,-3.7355,-3.6993,-3.6676,-3.644,-3.6208,-3.5993,-3.5773,-3.5751,-3.5661,-3.5464,-3.5406,-3.5354,-3.5314,-3.5222,-3.5222,-3.5377,-3.536,-3.5429,-3.5571,-3.5571,-3.5571,-3.5571,-3.5571,-3.5503,-3.536,-3.536,-3.5222,0.0,-4.2557,-4.2673,-4.2879,-4.2936,0.0,0.0,-4.3251,-4.3323,-4.3446,-4.3463,-4.348,-4.3548,-4.3701,-4.3878,-4.4132,-4.4426,0.0,0.0,0.0,0.0,0.0,0.0,0.0,0.0,0.0,0.0,0.0,0.0,0.0,0.0,0.0,-5.1394,-5.1404,-5.1406,-5.1406,-5.1406,-5.1402,-5.1399,-5.1397,-5.1369,-5.1341,-5.1334,-5.0993,0.0,0.0,0.0,0.0,0.0,-4.8564,-4.8183,-4.8144,-4.7825,-4.7338,-4.6811,-4.6822,-4.6474,-4.6018,-4.5978,-4.5982,-4.5975,-4.5949,-4.5886,-4.5841,-4.5847,-4.5761,-4.5605,-4.5244,-4.4767,-4.4158,-4.335,-4.2601,-4.1773,-4.0613,-4.0189,-3.9847,-3.9071,-3.8862,-3.8788,-3.8634,-3.859,-3.8512,-3.8283,-3.8203,-3.8035,-3.7685,-3.7376,-3.7091,-3.6753,-3.6547,-3.6339,-3.6101,-3.6019,-3.5954,-3.5871,-3.5661,-3.5543,-3.5543,-3.5458,-3.5452,-3.5543,-3.5543,-3.5549,-3.56,-3.56,-3.56,-3.56,-3.56,-3.5594,-3.5543,-3.5543,-3.5452,0.0,-4.2095,0.0,0.0,0.0,0.0,-4.2825,-4.2956,0.0,-4.3305,-4.3376,-4.3394,-4.348,-4.3548,-4.3682,-4.3942,0.0,0.0,0.0,0.0,0.0,0.0,0.0,0.0,0.0,0.0,0.0,0.0,0.0,0.0,0.0,0.0,-5.121,-5.121,-5.1207,-5.1269,-5.1406,-5.1348,-5.1308,-5.1307,-5.1248,-5.1226,-5.1196,-5.0376,0.0,0.0,0.0,0.0,0.0,-4.7764,-4.7412,-4.7334,-4.6526,-4.621,-4.6208,-4.6216,-4.6192,-4.6187,-4.6138,-4.6105,-4.6095,-4.6032,-4.5922,-4.5826,-4.5815,-4.5763,-4.5522,-4.4646,-4.4314,-4.3811,-4.2064,-4.1513,-4.1131,-3.9989,-3.9616,-3.9446,-3.9178,-3.9021,-3.8892,-3.8837,-3.8765,-3.8673,-3.8525,-3.8446,-3.8318,-3.8052,-3.7862,-3.7595,-3.7186,-3.6974,-3.6774,-3.6547,-3.6423,-3.6343,-3.6322,-3.5915,-3.5644,-3.5644,-3.5644,-3.5644,-3.5644,-3.5644,-3.5622,-3.5622,-3.5622,-3.5644,-3.5644,-3.5644,-3.5644,-3.5644,-3.5644,-3.5644,-4.0954,0.0,-4.1507,-4.1762,-4.1849,-4.1959,0.0,-4.2476,-4.2652,-4.2939,0.0,-4.3286,-4.3394,-4.3515,-4.3649,0.0,0.0,0.0,0.0,0.0,0.0,0.0,0.0,0.0,0.0,0.0,0.0,0.0,0.0,0.0,0.0,0.0,-4.9338,-4.933,-4.9378,-5.0045,-5.1386,-5.0781,-5.0488,-5.0469,-4.9804,-4.9492,-4.9471,-4.9276,0.0,0.0,0.0,0.0,-4.7807,-4.6944,-4.6571,-4.6551,-4.6355,-4.6273,-4.6287,-4.6285,-4.6241,-4.6195,-4.6171,-4.6182,-4.617,-4.6164,-4.5689,-4.5134,-4.5062,-4.4938,-4.4747,-4.448,-4.3489,-4.2356,-4.1807,-4.1172,-4.0547,-4.0049,-3.9865,-3.9717,-3.9401,-3.9205,-3.9087,-3.8979,-3.8866,-3.8747,-3.8673,-3.8559,-3.8415,-3.8256,-3.8086,-3.7897,-3.7613,-3.7431,-3.7208,-3.6838,-3.6779,-3.6698,-3.6533,-3.6301,-3.6131,-3.6131,-3.6084,-3.6058,-3.6058,-3.5954,-3.591,-3.591,-3.591,-3.5971,-3.6058,-3.6058,-3.6101,-3.6131,-3.6084,-3.6058,-4.0412,-4.0686,-4.1018,-4.1221,-4.1295,-4.1413,-4.1753,-4.1966,-4.2195,0.0,0.0,0.0,0.0,0.0,0.0,0.0,0.0,0.0,0.0,0.0,0.0,0.0,0.0,0.0,0.0,0.0,0.0,0.0,0.0,0.0,0.0,0.0,-4.8618,-4.8615,-4.8695,-4.9218,-5.0209,-4.9781,-4.9568,-4.9609,-4.9121,-4.8906,-4.8887,-4.8496,0.0,0.0,0.0,0.0,-4.6972,-4.6483,-4.6306,-4.6306,-4.6306,-4.6306,-4.6304,-4.6304,-4.6283,-4.6241,-4.6258,-4.6251,-4.6181,-4.5785,-4.5321,-4.4852,-4.439,-4.3897,-4.3468,-4.3343,-4.2628,-4.1771,-4.1283,-4.0792,-4.0396,-4.0186,-4.009,-3.9975,-3.9735,-3.9489,-3.9298,-3.917,-3.8979,-3.8822,-3.8765,-3.8655,-3.8562,-3.8401,-3.8334,-3.8219,-3.8002,-3.7862,-3.7667,-3.7432,-3.7339,-3.7265,-3.7169,-3.7054,-3.6838,-3.6451,-3.6385,-3.636,-3.6335,-3.6272,-3.6233,-3.6233,-3.6233,-3.6276,-3.6381,-3.6381,-3.6385,-3.6447,-3.636,-3.6314,-4.0096,-4.0337,-4.0648,-4.0776,-4.0853,-4.0954,-4.1232,0.0,0.0,0.0,0.0,0.0,0.0,0.0,0.0,0.0,0.0,0.0,0.0,0.0,0.0,0.0,0.0,0.0,0.0,0.0,0.0,0.0,0.0,0.0,0.0,0.0,0.0,-4.8097,-4.8214,-4.8301,-4.8367,-4.8512,-4.862,-4.8687,-4.8551,-4.8494,-4.8456,-4.7714,-4.7382,0.0,0.0,0.0,-4.6288,-4.6288,-4.6288,-4.6288,-4.6308,-4.6308,-4.6308,-4.6308,-4.6308,-4.6289,-4.6152,-4.6109,-4.5966,-4.5086,-4.4706,-4.4452,-4.3668,-4.2806,-4.2069,-4.1881,-4.177,-4.1519,-4.0731,-4.0518,-4.0474,-4.037,-4.0281,-4.0186,-4.0058,-3.9785,-3.9539,-3.9401,-3.917,-3.8964,-3.8892,-3.8807,-3.8716,-3.8588,-3.8588,-3.851,-3.8389,-3.8254,-3.8153,-3.807,-3.7931,-3.7862,-3.7862,-3.7862,-3.7542,-3.6878,-3.6759,-3.6696,-3.6609,-3.6609,-3.6609,-3.6609,-3.6609,-3.6652,-3.6756,-3.6756,-3.6756,-3.6776,-3.6673,-3.655,-4.0096,-4.0163,-4.0238,-4.0362,-4.0387,-4.0485,-4.0769,-4.0971,0.0,0.0,0.0,0.0,0.0,0.0,0.0,0.0,0.0,0.0,0.0,0.0,0.0,0.0,0.0,0.0,0.0,0.0,0.0,0.0,0.0,0.0,0.0,0.0,0.0,-4.6209,-4.63,-4.6352,-4.6425,-4.7267,-4.7699,-4.7701,-4.6967,-4.6601,-4.6601,-4.6484,-4.6406,0.0,0.0,-4.621,-4.621,-4.621,-4.621,-4.6212,-4.6276,-4.6297,-4.6299,-4.6306,-4.6307,-4.619,-4.5469,-4.5195,-4.5058,-4.4179,-4.3395,-4.2763,-4.2638,-4.1937,-4.1185,-4.1095,-4.0984,-4.0847,-4.0646,-4.055,-4.0492,-4.0474,-4.0424,-4.0325,-4.0196,-4.0049,-3.9881,-3.9758,-3.9502,-3.9298,-3.9232,-3.9129,-3.9003,-3.8935,-3.8921,-3.8848,-3.8658,-3.8611,-3.8517,-3.8272,-3.8239,-3.8171,-3.8068,-3.8051,-3.8,-3.7879,-3.7542,-3.7283,-3.7092,-3.7092,-3.7092,-3.7092,-3.7092,-3.717,-3.7358,-3.7358,-3.7431,-3.7523,-3.7356,-3.7167,-3.9986,-4.0037,-4.0096,-4.0188,-4.0188,-4.0238,-4.0453,-4.0607,0.0,0.0,0.0,0.0,0.0,0.0,0.0,0.0,0.0,0.0,0.0,0.0,0.0,0.0,0.0,0.0,0.0,0.0,0.0,0.0,0.0,0.0,0.0,0.0,0.0,0.0,-4.581,-4.5866,-4.5893,-4.6401,-4.6672,-4.6741,-4.6337,-4.6153,-4.6206,-4.6206,-4.6206,-4.6206,0.0,-4.6206,-4.6206,-4.6206,-4.6206,-4.6206,-4.623,-4.6255,-4.6184,-4.5767,-4.5595,-4.5477,-4.4602,-4.4292,-4.4156,-4.3277,-4.2734,-4.2303,-4.1831,-4.14,-4.1042,-4.0964,-4.0859,-4.0739,-4.0666,-4.061,-4.0558,-4.0554,-4.0507,-4.0449,-4.0388,-4.0234,-4.0068,-3.9929,-3.9686,-3.9489,-3.9427,-3.9298,-3.9192,-3.917,-3.9129,-3.9064,-3.8921,-3.8881,-3.8792,-3.8593,-3.8578,-3.853,-3.8417,-3.8417,-3.8336,-3.8118,-3.7879,-3.7739,-3.765,-3.7559,-3.7559,-3.7632,-3.7632,-3.7685,-3.7826,-3.7826,-3.7844,-3.7862,-3.7739,-3.7522,-3.9729,-3.9816,-3.9893,-3.9961,-4.0037,-4.0138,-4.0213,-4.0362,0.0,0.0,0.0,0.0,0.0,0.0,0.0,0.0,0.0,0.0,0.0,0.0,0.0,0.0,0.0,0.0,0.0,0.0,0.0,0.0,0.0,0.0,0.0,0.0,0.0,0.0,-4.5695,-4.5743,-4.5777,-4.5836,-4.5917,-4.6048,-4.6056,-4.6076,-4.6125,-4.6125,-4.6125,-4.6125,-4.6125,-4.6125,-4.6105,-4.591,-4.5832,-4.5813,-4.5628,-4.5552,-4.5514,-4.4901,-4.4672,-4.4559,-4.3661,-4.3374,-4.322,-4.2363,-4.2101,-4.1972,-4.1308,-4.1104,-4.108,-4.104,-4.0949,-4.0823,-4.0732,-4.0668,-4.0624,-4.0617,-4.0569,-4.0515,-4.0515,-4.0389,-4.0234,-4.011,-3.9889,-3.9721,-3.9651,-3.9537,-3.9471,-3.9433,-3.9401,-3.9324,-3.9205,-3.9129,-3.905,-3.8906,-3.8877,-3.8851,-3.881,-3.8777,-3.8652,-3.8346,-3.8201,-3.8119,-3.8103,-3.8,-3.7983,-3.8086,-3.8086,-3.8136,-3.8185,-3.8185,-3.8168,-3.8119,-3.8054,-3.7845,-3.9222,-3.9259,-3.9329,-3.9511,-3.9807,-4.0096,-4.0096,-4.0213,0.0,-4.051,0.0,0.0,0.0,0.0,0.0,0.0,0.0,0.0,0.0,0.0,0.0,0.0,0.0,0.0,0.0,0.0,0.0,0.0,0.0,0.0,0.0,0.0,0.0,0.0,0.0,-4.5586,-4.5709,-4.5717,-4.5792,-4.5906,-4.5917,-4.5916,-4.5916,-4.5916,-4.5916,-4.5916,-4.5916,-4.5916,-4.5858,-4.5049,-4.4719,-4.4647,-4.3889,-4.3674,-4.3776,-4.3718,-4.3696,-4.358,-4.27,-4.2407,-4.2273,-4.1464,-4.1186,-4.1181,-4.111,-4.1093,-4.1103,-4.1091,-4.1042,-4.0961,-4.0835,-4.0734,-4.0694,-4.07,-4.0631,-4.06,-4.06,-4.0531,-4.0449,-4.0396,-4.0261,-4.0148,-4.0071,-4.0002,-3.9931,-3.9862,-3.984,-3.9751,-3.9495,-3.9414,-3.933,-3.9183,-3.9115,-3.9073,-3.9073,-3.9073,-3.9059,-3.9027,-3.8676,-3.8446,-3.8366,-3.8366,-3.8366,-3.8366,-3.8366,-3.8399,-3.846,-3.846,-3.8478,-3.8444,-3.8399,-3.8252,-3.8634,-3.8799,-3.8952,-3.9067,-3.9239,0.0,0.0,-4.0011,-4.0113,-4.0337,-4.0436,0.0,0.0,0.0,0.0,0.0,0.0,0.0,0.0,0.0,0.0,0.0,0.0,0.0,0.0,0.0,0.0,0.0,0.0,0.0,0.0,0.0,0.0,0.0,0.0,-4.3857,-4.3895,-4.3895,-4.3912,-4.3972,-4.4691,-4.5053,-4.5073,-4.4537,-4.4286,-4.4286,-4.4286,-4.4286,-4.4266,-4.3937,-4.3782,-4.3769,-4.3468,-4.3377,-4.3355,-4.2845,-4.2669,-4.2546,-4.1667,-4.1392,-4.1377,-4.1068,-4.0992,-4.1048,-4.1081,-4.1103,-4.1093,-4.1094,-4.1087,-4.1039,-4.0951,-4.0878,-4.0804,-4.0765,-4.0732,-4.0559,-3.9972,-3.98,-3.9588,-3.9016,-3.8794,-3.8872,-3.9335,-3.9385,-3.9538,-4.0023,-3.9622,-3.9209,-3.9042,-3.8471,-3.8025,-3.7854,-3.8226,-3.8478,-3.8478,-3.8939,-3.9219,-3.9219,-3.8998,-3.8855,-3.8826,-3.8844,-3.8844,-3.8844,-3.8785,-3.8788,-3.88,-3.8728,-3.8686,-3.8624,-3.851,-3.8366,-3.7854,-3.8042,-3.8242,-3.8327,0.0,0.0,-3.9345,-3.9677,-3.9901,-4.013,-4.0068,0.0,0.0,0.0,0.0,0.0,0.0,0.0,0.0,0.0,0.0,0.0,0.0,0.0,0.0,0.0,0.0,0.0,0.0,0.0,0.0,0.0,0.0,0.0,0.0,-4.2695,-4.2745,-4.2745,-4.2745,-4.2726,-4.3258,-4.3681,-4.4006,-4.3408,-4.3138,-4.3138,-4.3138,-4.3138,-4.3119,-4.2849,-4.2587,-4.235,-4.2374,-4.2401,-4.2344,-4.1828,-4.1633,-4.1567,-4.0973,-4.0807,-4.0844,-4.0864,-4.0902,-4.0958,-4.1048,-4.1066,-4.1013,-4.0767,-4.0681,-4.0623,-4.0285,-4.0373,-4.0505,-4.0464,-4.0228,-3.9835,-3.9189,-3.9006,-3.8782,-3.8176,-3.7998,-3.8093,-3.8658,-3.8733,-3.8901,-3.9459,-3.9014,-3.859,-3.8451,-3.7861,-3.7404,-3.724,-3.7653,-3.7943,-3.7943,-3.8451,-3.8759,-3.8759,-3.8676,-3.8802,-3.9146,-3.9151,-3.9151,-3.9151,-3.9115,-3.9073,-3.9064,-3.8964,-3.8881,-3.8795,-3.8698,-3.859,-3.6845,-3.689,-3.6966,0.0,0.0,0.0,-3.8427,-3.9142,-3.9713,-3.9858,0.0,0.0,0.0,0.0,0.0,0.0,0.0,0.0,0.0,0.0,0.0,0.0,0.0,0.0,0.0,0.0,0.0,0.0,0.0,0.0,0.0,0.0,0.0,0.0,0.0,0.0,-4.2574,-4.2574,-4.2574,-4.2555,-4.1688,-4.1796,-4.2794,-4.2775,-4.2775,-4.2775,-4.2775,-4.2775,-4.2718,-4.1848,-4.1026,-4.0288,-4.036,-4.0436,-4.0504,-4.0559,-4.0647,-4.07,-4.07,-4.0694,-4.0706,-4.0765,-4.0784,-4.0806,-4.0922,-4.0977,-4.0805,-4.001,-3.978,-3.9598,-3.8724,-3.909,-3.9686,-3.9691,-3.8984,-3.8306,-3.8287,-3.8234,-3.82,-3.8181,-3.8191,-3.8181,-3.8181,-3.8137,-3.8087,-3.8093,-3.8046,-3.7952,-3.789,-3.7828,-3.7739,-3.7691,-3.763,-3.7577,-3.7596,-3.7599,-3.7591,-3.7591,-3.7591,-3.8114,-3.9244,-3.9292,-3.9292,-3.9292,-3.9311,-3.9272,-3.921,-3.9197,-3.9129,-3.8993,-3.8993,-3.8921,-3.6414,-3.6507,0.0,-3.6739,0.0,0.0,0.0,-3.7637,0.0,0.0,0.0,0.0,0.0,0.0,0.0,0.0,0.0,0.0,0.0,0.0,0.0,0.0,0.0,0.0,0.0,0.0,0.0,0.0,0.0,0.0,0.0,0.0,0.0,0.0,0.0,0.0,-4.0277,-4.0277,-4.0277,-4.0277,-4.0021,-4.0537,-4.172,-4.111,-4.0824,-4.0824,-4.0824,-4.0824,-4.0805,-4.0557,-4.0291,-4.0101,-4.012,-4.0158,-4.0213,-4.0241,-4.0285,-4.0366,-4.0397,-4.0046,-3.9592,-3.9713,-3.9367,-3.893,-3.901,-3.9052,-3.9058,-3.8804,-3.8772,-3.8773,-3.8551,-3.8214,-3.8104,-3.8707,-3.8636,-3.8249,-3.7595,-3.7439,-3.7238,-3.6627,-3.6512,-3.6687,-3.7253,-3.7334,-3.7511,-3.8083,-3.7626,-3.7009,-3.6369,-3.6222,-3.6164,-3.6151,-3.6649,-3.6944,-3.6895,-3.7424,-3.7748,-3.7742,-3.7734,-3.7859,-3.8092,-3.8641,-3.8953,-3.894,-3.946,-3.9717,-3.9693,-3.9514,-3.9389,-3.935,-3.921,-3.9115,-3.591,-3.602,0.0,-3.5827,-3.5953,-3.5966,-3.5359,0.0,0.0,0.0,0.0,0.0,0.0,0.0,0.0,0.0,0.0,0.0,0.0,0.0,0.0,0.0,0.0,0.0,0.0,0.0,0.0,0.0,0.0,0.0,0.0,0.0,0.0,0.0,0.0,-3.9036,-3.9064,-3.9151,-3.9178,-3.9178,-3.9178,-3.9606,-4.038,-3.9928,-3.9717,-3.9717,-3.9717,-3.9717,-3.9717,-3.9717,-3.9717,-3.9728,-3.9772,-3.9627,-3.9385,-3.9467,-3.9327,-3.9099,-3.9203,-3.8932,-3.8563,-3.8634,-3.838,-3.8034,-3.8106,-3.8169,-3.8156,-3.7827,-3.7797,-3.778,-3.7494,-3.7052,-3.6917,-3.7812,-3.7761,-3.7355,-3.6789,-3.664,-3.6467,-3.5943,-3.5833,-3.5995,-3.6476,-3.6557,-3.6735,-3.7204,-3.6822,-3.6289,-3.5769,-3.5683,-3.5659,-3.5657,-3.6096,-3.6361,-3.6334,-3.6734,-3.7006,-3.7012,-3.6979,-3.6937,-3.6849,-3.7823,-3.8365,-3.8356,-3.8794,-3.9172,-3.9494,-3.9337,-3.9407,-3.9658,-3.9539,-3.9414,-3.5504,0.0,0.0,-3.4796,0.0,0.0,0.0,0.0,0.0,0.0,0.0,0.0,0.0,0.0,0.0,0.0,0.0,0.0,0.0,0.0,0.0,0.0,0.0,0.0,0.0,0.0,0.0,0.0,0.0,0.0,0.0,0.0,0.0,0.0,-3.8397,-3.8438,-3.8419,-3.8619,-3.8709,0.0,-3.8709,-3.8709,-3.8709,-3.9077,-3.9189,-3.9133,-3.9133,-3.9077,-3.9035,-3.9035,-3.9035,-3.9048,-3.9189,-3.877,-3.8181,-3.8361,-3.7974,-3.7371,-3.7509,-3.7537,-3.7526,-3.7561,-3.7592,-3.7627,-3.7701,-3.7781,-3.7681,-3.6965,-3.6792,-3.6687,-3.5958,-3.583,-3.6092,-3.6963,-3.6562,-3.5992,-3.6009,-3.5958,-3.5908,-3.5907,-3.5917,-3.5912,-3.591,-3.5914,-3.5919,-3.5902,-3.5841,-3.5833,-3.588,-3.5904,-3.5895,-3.5894,-3.5897,-3.5897,-3.59,-3.5829,-3.5803,-3.5801,-3.5741,-3.5718,-3.5713,-3.6957,-3.7636,-3.7632,-3.77,-3.8103,-3.8822,-3.8803,-3.9118,-3.9709,-3.9783,-3.9682,-3.5504,-3.5115,0.0,0.0,0.0,0.0,0.0,0.0,0.0,0.0,0.0,0.0,0.0,0.0,0.0,0.0,0.0,0.0,0.0,0.0,0.0,0.0,0.0,0.0,0.0,0.0,0.0,0.0,0.0,0.0,0.0,0.0,0.0,-3.7115,-3.7095,-3.6854,-3.6349,-3.6396,-3.6427,0.0,-3.6492,-3.6458,-3.6464,-3.8085,-3.8453,-3.7815,-3.7815,-3.7446,-3.6869,-3.6976,-3.7008,-3.7022,-3.7103,-3.7058,-3.6974,-3.7057,-3.7031,-3.6953,-3.7145,-3.6767,-3.6233,-3.6387,-3.6036,-3.5569,-3.57,-3.5774,-3.581,-3.5683,-3.568,-3.5726,-3.5593,-3.565,-3.5807,-3.6069,-3.6063,-3.5992,-3.5995,-3.5996,-3.5974,-3.5988,-3.5983,-3.5977,-3.5989,-3.5971,-3.5957,-3.5903,-3.5882,-3.5883,-3.5908,-3.5893,-3.5895,-3.5896,-3.5909,-3.5901,-3.5895,-3.5886,-3.5858,-3.5805,-3.5791,-3.5772,-3.5774,-3.6652,-3.7134,-3.7064,-3.7687,-3.811,-3.8276,-3.8162,-3.8196,-3.8337,-3.8859,-3.9071,-3.4785,0.0,0.0,-3.3496,0.0,0.0,0.0,0.0,0.0,0.0,0.0,0.0,0.0,0.0,0.0,0.0,0.0,0.0,0.0,0.0,0.0,0.0,0.0,0.0,0.0,0.0,0.0,0.0,0.0,0.0,0.0,-3.6212,-3.5897,-3.5616,-3.5687,-3.5562,-3.5204,-3.5371,-3.547,-3.5503,-3.5503,-3.5422,-3.5273,-3.6576,-3.6926,-3.6479,-3.6479,-3.6258,-3.5876,-3.5939,-3.5972,-3.5987,-3.6124,-3.5926,-3.5601,-3.5777,-3.5618,-3.5351,-3.5473,-3.5268,-3.4955,-3.5064,-3.4916,-3.4722,-3.4783,-3.4926,-3.5063,-3.5108,-3.5171,-3.5277,-3.5331,-3.5464,-3.5571,-3.5641,-3.5817,-3.5942,-3.5957,-3.5946,-3.5951,-3.5994,-3.5995,-3.5996,-3.5996,-3.5976,-3.5937,-3.5918,-3.5898,-3.5896,-3.5894,-3.5891,-3.5909,-3.5907,-3.5893,-3.5897,-3.5898,-3.5896,-3.587,-3.5807,-3.58,-3.5794,-3.5791,-3.6204,-3.6391,-3.6328,-3.6731,-3.7151,-3.7569,-3.7498,-3.7643,-3.7995,-3.8358,-3.8492,-3.3765,0.0,-3.2712,0.0,0.0,0.0,0.0,0.0,0.0,0.0,0.0,0.0,0.0,0.0,0.0,0.0,0.0,0.0,0.0,0.0,0.0,0.0,0.0,0.0,0.0,0.0,0.0,0.0,0.0,0.0,-3.5119,-3.4549,-3.417,-3.4067,-3.4257,-3.4316,-3.4176,-3.4447,-3.4568,-3.4551,-3.4533,-3.4376,-3.414,-3.4587,-3.4878,-3.5105,-3.5105,-3.5033,-3.4908,-3.4924,-3.4941,-3.4975,-3.5171,-3.4803,-3.4189,-3.4448,-3.412,-3.3555,-3.3652,-3.3775,-3.3881,-3.3902,-3.4124,-3.4363,-3.4397,-3.4586,-3.4782,-3.4792,-3.4908,-3.5035,-3.5083,-3.5212,-3.5331,-3.5406,-3.5626,-3.5807,-3.5866,-3.5862,-3.589,-3.5958,-3.5963,-3.5985,-3.5963,-3.5924,-3.5907,-3.5871,-3.5882,-3.5873,-3.588,-3.5877,-3.5873,-3.5863,-3.5873,-3.5864,-3.5873,-3.5872,-3.5845,-3.579,-3.5775,-3.5777,-3.5777,-3.5777,-3.576,-3.5724,-3.5719,-3.6076,-3.6795,-3.6782,-3.7113,-3.7713,-3.7843,-3.7848,0.0,0.0,0.0,0.0,0.0,0.0,0.0,0.0,0.0,0.0,0.0,0.0,0.0,0.0,0.0,0.0,0.0,0.0,0.0,0.0,0.0,0.0,0.0,0.0,0.0,0.0,0.0,0.0,0.0,0.0,-3.3592,-3.3573,-3.3261,-3.2693,-3.2926,-3.2731,-3.2023,-3.2135,-3.2118,-3.1993,-3.1824,-3.1766,-3.1838,-3.1838,-3.2462,-3.3509,-3.3509,-3.3107,-3.2477,-3.2668,-3.272,-3.2754,-3.2957,-3.2952,-3.2862,-3.3019,-3.3011,-3.2952,-3.3202,-3.3276,-3.3335,-3.3518,-3.3675,-3.3829,-3.4011,-3.4166,-3.4316,-3.4363,-3.452,-3.466,-3.4684,-3.4832,-3.5005,-3.5111,-3.5273,-3.5432,-3.5674,-3.5722,-3.5746,-3.5801,-3.5875,-3.589,-3.5847,-3.5872,-3.5883,-3.5826,-3.5811,-3.5795,-3.5735,-3.573,-3.573,-3.5726,-3.5728,-3.5721,-3.5725,-3.5728,-3.5713,-3.5713,-3.571,-3.5719,-3.5719,-3.5719,-3.5741,-3.5798,-3.5781,-3.5832,-3.5967,-3.5968,-3.6003,-3.6111,-3.6825,-3.7141,-3.0931,0.0,0.0,0.0,0.0,0.0,0.0,0.0,0.0,0.0,0.0,0.0,0.0,0.0,0.0,0.0,0.0,0.0,0.0,0.0,0.0,0.0,0.0,0.0,0.0,0.0,0.0,0.0,0.0,-3.2132,-3.2176,-3.1819,-3.15,-3.1232,-3.1409,-3.1378,-3.11,-3.1145,-3.1128,-3.0996,-3.0914,-3.0851,-3.0791,-3.0825,-3.1368,-3.2248,-3.2248,-3.2004,-3.162,-3.1785,-3.1803,-3.1768,-3.1967,-3.2038,-3.2039,-3.2144,-3.2231,-3.2317,-3.2419,-3.257,-3.2718,-3.2795,-3.3014,-3.327,-3.3447,-3.3643,-3.3831,-3.3915,-3.4049,-3.4173,-3.4232,-3.4334,-3.4441,-3.4608,-3.4727,-3.4832,-3.4988,-3.5264,-3.5502,-3.5567,-3.5602,-3.5601,-3.5573,-3.5611,-3.5611,-3.5579,-3.5577,-3.5579,-3.5531,-3.5531,-3.5531,-3.5531,-3.5523,-3.5529,-3.5529,-3.5538,-3.5535,-3.5535,-3.5526,-3.5532,-3.5532,-3.5532,-3.5542,-3.5587,-3.5721,-3.5804,-3.5792,-3.5798,-3.5801,-3.5817,-3.6168,-3.633,0.0,0.0,0.0,0.0,0.0,0.0,0.0,0.0,0.0,0.0,0.0,0.0,0.0,0.0,0.0,0.0,0.0,0.0,0.0,0.0,0.0,0.0,0.0,0.0,0.0,0.0,0.0,0.0,0.0,-3.0632,-3.0632,-3.0167,-2.9941,-2.9995,-3.022,-3.0342,-3.0384,-3.0393,-3.0335,-3.0213,-3.0149,-3.0064,-2.9995,-3.0097,-3.0435,-3.1001,-3.114,-3.114,-3.1044,-3.1142,-3.114,-3.1064,-3.1242,-3.1319,-3.1338,-3.1433,-3.1528,-3.162,-3.1693,-3.1841,-3.2038,-3.2074,-3.2317,-3.2632,-3.2729,-3.2981,-3.3237,-3.3346,-3.3494,-3.3652,-3.3743,-3.3813,-3.3893,-3.4056,-3.414,-3.4246,-3.4427,-3.484,-3.5155,-3.5203,-3.5285,-3.532,-3.5295,-3.5308,-3.5306,-3.5252,-3.5242,-3.5231,-3.5216,-3.5209,-3.5209,-3.5209,-3.5209,-3.5209,-3.5209,-3.5209,-3.5235,-3.5243,-3.5243,-3.525,-3.5258,-3.5265,-3.5258,-3.5239,-3.5422,-3.557,-3.5674,-3.5686,-3.5693,-3.5705,-3.5731,-3.5761,0.0,0.0,0.0,0.0,0.0,0.0,0.0,0.0,0.0,0.0,0.0,0.0,0.0,0.0,0.0,0.0,0.0,0.0,0.0,0.0,0.0,0.0,0.0,0.0,0.0,0.0,0.0,0.0,0.0,-2.8842,-2.8842,-2.9044,-2.9143,-2.9166,-2.9595,-2.9744,-2.956,-2.9303,-2.9189,-2.9166,-2.8919,-2.8919,-2.9166,-2.9166,-2.9341,-2.9627,-3.014,-3.0356,-3.0335,-3.0356,-3.0356,-3.0372,-3.0502,-3.0559,-3.058,-3.0784,-3.0848,-3.0868,-3.1083,-3.124,-3.1355,-3.1433,-3.1585,-3.1787,-3.1843,-3.2144,-3.2467,-3.2467,-3.2795,-3.3142,-3.3142,-3.3288,-3.3443,-3.3528,-3.3593,-3.3771,-3.4293,-3.4579,-3.4727,-3.4737,-3.494,-3.5098,-3.5041,-3.5073,-3.5045,-3.485,-3.4822,-3.4804,-3.4744,-3.4734,-3.4734,-3.4734,-3.4734,-3.4734,-3.4734,-3.4734,-3.4754,-3.4822,-3.4832,-3.4851,-3.4917,-3.4917,-3.4898,-3.4822,-3.4785,-3.4944,-3.5323,-3.5396,-3.5424,-3.5422,-3.5558,-3.5644,0.0,0.0,0.0,0.0,0.0,0.0,0.0,0.0,0.0,0.0,0.0,0.0,0.0,0.0,0.0,0.0,0.0,0.0,0.0,0.0,0.0,0.0,0.0,0.0,0.0,0.0,0.0,0.0,0.0,0.0,-2.851,-2.8605,-2.8677,-2.8701,-2.8889,-2.8896,-2.8732,-2.8638,-2.8496,-2.8312,-2.8216,-2.8255,-2.8312,-2.8312,-2.8376,-2.8496,-2.8591,-2.8965,-2.9534,-2.9705,-2.9683,-2.9534,-2.9772,-2.9853,-2.9875,-2.9924,-3.0054,-3.0182,-3.023,-3.0439,-3.0645,-3.069,-3.0831,-3.101,-3.1058,-3.1251,-3.1461,-3.1591,-3.1755,-3.1934,-3.2144,-3.2247,-3.2348,-3.25,-3.2629,-3.2735,-3.2898,-3.3492,-3.4018,-3.4122,-3.4209,-3.4259,-3.4297,-3.4278,-3.4206,-3.4041,-3.3993,-3.3963,-3.3932,-3.3895,-3.3882,-3.3932,-3.3807,-3.3769,-3.3857,-3.3782,-3.3807,-3.3957,-3.4006,-3.4073,-3.4188,-3.4188,-3.4188,-3.4169,-3.4103,-3.4322,-3.4854,-3.4833,-3.4874,-3.4952,-3.5089,-3.5235,-2.71,0.0,0.0,0.0,0.0,0.0,0.0,0.0,0.0,0.0,0.0,0.0,0.0,0.0,0.0,0.0,0.0,0.0,0.0,0.0,0.0,0.0,0.0,0.0,0.0,0.0,0.0,0.0,0.0,0.0,-2.7825,-2.7875,-2.7944,-2.8085,-2.8036,-2.8012,-2.7972,-2.7874,-2.775,-2.755,-2.7515,-2.7515,-2.7515,-2.7515,-2.75,-2.7485,-2.7409,-2.7858,-2.8638,-2.8803,-2.8795,-2.8654,-2.8889,-2.8958,-2.8958,-2.9005,-2.912,-2.9241,-2.9287,-2.9496,-2.9761,-2.9821,-2.9973,-3.0166,-3.0218,-3.0385,-3.0534,-3.0623,-3.0784,-3.0982,-3.1213,-3.1308,-3.1401,-3.1587,-3.17,-3.1755,-3.1754,-3.2546,-3.3277,-3.3407,-3.3492,-3.3543,-3.3584,-3.3511,-3.3391,-3.3223,-3.3089,-3.3,-3.2937,-3.2877,-3.288,-3.2892,-3.2786,-3.2706,-3.2752,-3.2722,-3.2768,-3.2934,-3.3041,-3.3198,-3.3399,-3.3352,-3.3338,-3.3356,-3.3205,-3.3332,-3.3697,-3.4055,-3.4263,-3.4331,-3.4518,-3.4759,0.0,0.0,0.0,0.0,0.0,0.0,0.0,0.0,0.0,0.0,0.0,0.0,0.0,0.0,0.0,0.0,0.0,0.0,0.0,0.0,0.0,0.0,0.0,0.0,0.0,0.0,0.0,0.0,0.0,-2.6669,-2.6709,-2.6811,-2.699,-2.7272,-2.7133,-2.7133,-2.7272,-2.699,-2.6875,-2.6849,-2.6721,-2.6642,-2.6642,-2.6642,-2.6654,-2.6651,-2.6625,-2.7001,-2.761,-2.764,-2.7655,-2.768,-2.7815,-2.7849,-2.7889,-2.8027,-2.8076,-2.81,-2.8231,-2.8432,-2.8685,-2.8834,-2.902,-2.9243,-2.9243,-2.9477,-2.9705,-2.9585,-2.9924,-3.0311,-3.0332,-3.0476,-3.066,-3.0798,-3.0838,-3.0878,-3.0996,-3.1754,-3.2451,-3.2619,-3.2809,-3.2945,-3.2945,-3.2831,-3.2654,-3.2393,-3.2193,-3.1987,-3.1777,-3.1741,-3.1723,-3.1668,-3.1649,-3.1579,-3.1453,-3.156,-3.1687,-3.183,-3.1952,-3.2193,-3.2511,-3.2411,-3.2378,-3.2448,-3.2126,-3.1934,-3.1863,-3.3054,-3.3615,-3.356,-3.3827,-3.4214,-2.5734,0.0,0.0,0.0,0.0,0.0,0.0,0.0,0.0,0.0,0.0,0.0,0.0,0.0,0.0,0.0,0.0,0.0,0.0,0.0,0.0,0.0,0.0,0.0,0.0,0.0,0.0,0.0,-2.6096,-2.6204,-2.6404,-2.6443,-2.6481,-2.6561,-2.6549,-2.6443,-2.6297,-2.6217,-2.6041,-2.5796,-2.5783,-2.5755,-2.5755,-2.5564,-2.5453,-2.5453,-2.5119,-2.5064,-2.5329,-2.6505,-2.6927,-2.6837,-2.6964,-2.7041,-2.7041,-2.717,-2.7287,-2.7403,-2.7525,-2.77,-2.7839,-2.7889,-2.7938,-2.8012,-2.8012,-2.807,-2.8152,-2.8209,-2.8323,-2.8474,-2.8678,-2.8894,-2.9046,-2.9069,-2.9243,-2.9393,-2.9438,-2.9713,-3.027,-3.1276,-3.1575,-3.1702,-3.1702,-3.1628,-3.1481,-3.1219,-3.1007,-3.085,-3.079,-3.067,-3.0533,-3.0475,-3.0174,-2.9948,-2.9905,-2.9761,-2.983,-3.0228,-3.0446,-3.074,-3.1072,-3.1147,-3.1221,-3.1348,-3.1118,-3.0982,-3.0962,-3.1775,-3.226,-3.2377,-3.2783,-3.3156,0.0,0.0,0.0,0.0,0.0,0.0,0.0,-2.5568,0.0,0.0,0.0,0.0,0.0,0.0,0.0,0.0,0.0,0.0,0.0,0.0,0.0,0.0,0.0,0.0,0.0,0.0,0.0,-2.5118,-2.5077,-2.5063,-2.5134,-2.5204,-2.5273,-2.5273,-2.5384,-2.5356,-2.5105,-2.5203,-2.5049,-2.4739,-2.4739,-2.4654,-2.4526,-2.4352,-2.425,-2.4192,-2.393,-2.3813,-2.3859,-2.4812,-2.5412,-2.5755,-2.5932,-2.5972,-2.5957,-2.5957,-2.6038,-2.6119,-2.6185,-2.6359,-2.6558,-2.6663,-2.6742,-2.6805,-2.6872,-2.6872,-2.6898,-2.6894,-2.6946,-2.7059,-2.7314,-2.7475,-2.7585,-2.7709,-2.7817,-2.789,-2.7939,-2.8027,-2.8498,-2.9917,-3.027,-3.0332,-3.041,-3.0303,-3.0131,-2.9859,-2.9658,-2.9476,-2.9371,-2.9252,-2.9116,-2.897,-2.8716,-2.8505,-2.8395,-2.8276,-2.8332,-2.8592,-2.8793,-2.9028,-2.9331,-2.9414,-2.9577,-2.9762,-2.9544,-2.9351,-2.9179,-3.0418,-3.1087,-3.1242,-3.1598,-3.1899,0.0,0.0,0.0,0.0,0.0,0.0,-2.3936,-2.4288,0.0,0.0,0.0,0.0,0.0,0.0,0.0,0.0,0.0,0.0,0.0,0.0,0.0,0.0,0.0,0.0,0.0,0.0,-2.3927,-2.3943,-2.3771,-2.3581,-2.342,-2.3581,-2.3669,-2.3682,-2.3989,-2.4034,-2.3875,-2.4047,-2.3946,-2.3653,-2.3623,-2.3463,-2.3165,-2.3165,-2.3075,-2.2967,-2.2907,-2.2877,-2.2877,-2.2864,-2.3522,-2.4525,-2.4724,-2.4739,-2.4642,-2.457,-2.4513,-2.4485,-2.45,-2.4712,-2.4993,-2.5231,-2.5384,-2.5494,-2.5645,-2.5672,-2.5631,-2.5521,-2.5562,-2.5725,-2.5955,-2.6035,-2.6101,-2.6352,-2.6325,-2.6285,-2.6431,-2.6457,-2.6869,-2.8286,-2.8755,-2.8932,-2.903,-2.8886,-2.8693,-2.8435,-2.8242,-2.8046,-2.7775,-2.7725,-2.76,-2.7323,-2.7206,-2.7063,-2.6791,-2.6842,-2.6905,-2.6872,-2.7,-2.7174,-2.7375,-2.746,-2.7639,-2.7884,-2.7639,-2.729,-2.6883,-2.8898,-2.9896,-2.9953,-3.0162,-3.0396,0.0,0.0,0.0,0.0,0.0,0.0,-2.2729,-2.3176,0.0,0.0,0.0,0.0,0.0,0.0,0.0,0.0,0.0,0.0,0.0,0.0,0.0,0.0,0.0,0.0,0.0,-2.2744,-2.2793,-2.2877,-2.2864,-2.2804,-2.2774,-2.2804,-2.2895,-2.3002,-2.3062,-2.3105,-2.3118,-2.2997,-2.2847,-2.2665,-2.2512,-2.2408,-2.2317,-2.2206,-2.2156,-2.2125,-2.169,-2.1491,-2.1471,-2.1376,-2.2144,-2.3416,-2.3463,-2.3361,-2.3229,-2.3361,-2.3301,-2.3199,-2.328,-2.3386,-2.3445,-2.3504,-2.3521,-2.355,-2.3579,-2.3579,-2.3579,-2.355,-2.3566,-2.3596,-2.3654,-2.3729,-2.3845,-2.389,-2.3964,-2.4092,-2.4249,-2.4319,-2.4477,-2.5039,-2.6509,-2.7615,-2.747,-2.742,-2.7309,-2.703,-2.6997,-2.6935,-2.6724,-2.6582,-2.6371,-2.5942,-2.5466,-2.5051,-2.4799,-2.4587,-2.4573,-2.4786,-2.4899,-2.5108,-2.5368,-2.5599,-2.5788,-2.5948,-2.5788,-2.5437,-2.4872,-2.678,-2.771,-2.7735,-2.7986,-2.8169,0.0,0.0,0.0,-2.1845,0.0,0.0,0.0,-2.2024,-2.2114,0.0,0.0,0.0,0.0,0.0,0.0,0.0,0.0,0.0,0.0,0.0,0.0,0.0,0.0,0.0,0.0,-2.187,-2.1628,-2.1385,-2.1353,-2.129,-2.1101,-2.1259,-2.1373,-2.1467,-2.1779,-2.1885,-2.1753,-2.1834,-2.1647,-2.1239,-2.1144,-2.1005,-2.0858,-2.0773,-2.0741,-2.0741,-2.0463,-2.0334,-2.0334,-2.0172,-2.0526,-2.1255,-2.1873,-2.2101,-2.207,-2.1904,-2.1842,-2.1854,-2.1806,-2.1856,-2.1906,-2.1906,-2.1832,-2.1747,-2.1747,-2.1696,-2.1634,-2.1541,-2.1436,-2.1393,-2.1603,-2.1623,-2.1661,-2.1796,-2.187,-2.1962,-2.228,-2.2341,-2.2463,-2.2927,-2.3848,-2.4774,-2.5479,-2.5548,-2.5452,-2.5246,-2.519,-2.5135,-2.4968,-2.4841,-2.4587,-2.4204,-2.3713,-2.3314,-2.3017,-2.2807,-2.2644,-2.2602,-2.2667,-2.269,-2.264,-2.2938,-2.3161,-2.3295,-2.3161,-2.2879,-2.2425,-2.3244,-2.429,-2.5448,-2.565,-2.5728,0.0,0.0,0.0,0.0,0.0,-2.1089,0.0,0.0,0.0,-2.0759,0.0,0.0,0.0,0.0,0.0,0.0,0.0,0.0,0.0,0.0,0.0,0.0,0.0,0.0,0.0,-2.0901,-2.0484,-1.9944,-1.9802,-1.9639,-1.9407,-1.9616,-1.9802,-1.9911,-2.042,-2.0624,-2.041,-2.0624,-2.0452,-1.9911,-1.9802,-1.9573,-1.933,-1.9297,-1.9297,-1.9297,-1.9231,-1.9231,-1.9231,-1.9011,-1.8934,-1.9067,-2.0247,-2.0773,-2.0869,-2.0398,-2.0312,-2.0366,-2.0171,-2.0193,-2.0235,-2.0235,-2.0084,-1.9901,-1.9965,-1.9879,-1.976,-1.9597,-1.9455,-1.9368,-1.9651,-1.9608,-1.9565,-1.9825,-1.9846,-1.9922,-2.031,-2.0427,-2.0587,-2.1052,-2.1115,-2.1634,-2.3357,-2.3533,-2.3357,-2.3179,-2.3166,-2.3136,-2.2935,-2.2827,-2.2603,-2.2201,-2.182,-2.1479,-2.1146,-2.0923,-2.069,-2.0415,-2.0383,-2.0211,-1.9943,-2.0189,-2.0391,-2.0464,-2.0391,-2.0146,-1.9738,-1.9576,-2.0694,-2.2959,-2.3064,-2.2951,0.0,0.0,0.0,0.0,-2.042,0.0,0.0,0.0,-1.9934,-1.9368,0.0,0.0,0.0,0.0,0.0,0.0,0.0,0.0,0.0,0.0,0.0,0.0,0.0,0.0,0.0,0.0,-1.9297,-1.9231,-1.8721,-1.8476,-1.861,-1.8476,-1.8654,-1.9198,-1.9297,-1.9462,-1.9704,-1.9462,-1.9297,-1.9198,-1.8687,-1.8408,-1.8341,-1.824,-1.8172,-1.8172,-1.8003,-1.791,-1.791,-1.7706,-1.7628,-1.7711,-1.88,-1.9166,-1.909,-1.9023,-1.88,-1.8509,-1.8476,-1.8398,-1.8287,-1.8099,-1.793,-1.7794,-1.7954,-1.8021,-1.7997,-1.7964,-1.793,-1.7886,-1.776,-1.7692,-1.7692,-1.7726,-1.7896,-1.8031,-1.819,-1.8392,-1.8583,-1.8762,-1.8706,-1.9258,-2.1283,-2.146,-2.1249,-2.0914,-2.1123,-2.1186,-2.0882,-2.083,-2.0576,-1.9933,-1.9412,-1.8973,-1.8652,-1.8409,-1.8285,-1.8251,-1.8063,-1.7953,-1.7919,-1.7986,-1.7909,-1.7755,-1.7909,-1.7649,-1.6968,-1.6933,-1.7971,-1.9888,-1.992,-1.963,0.0,0.0,0.0,0.0,0.0,0.0,0.0,0.0,-1.8115,0.0,0.0,0.0,0.0,0.0,0.0,0.0,0.0,0.0,0.0,0.0,0.0,0.0,0.0,0.0,0.0,0.0,0.0,0.0,0.0,-1.7379,-1.7232,-1.7345,-1.755,-1.7833,-1.8114,-1.8283,-1.8317,-1.8283,-1.8138,-1.7833,-1.756,-1.731,-1.7104,-1.7035,-1.6991,-1.7001,-1.6932,-1.6897,-1.6862,-1.6594,-1.6455,-1.6481,-1.6715,-1.7214,-1.7794,-1.7619,-1.7482,-1.7423,-1.732,-1.7148,-1.6932,-1.6402,-1.6193,-1.6132,-1.6088,-1.6149,-1.6263,-1.6263,-1.6079,-1.5895,-1.5939,-1.5772,-1.5631,-1.5763,-1.5825,-1.5992,-1.6271,-1.6297,-1.6357,-1.6617,-1.6444,-1.6504,-1.7426,-1.8468,-1.9161,-1.9007,-1.9095,-1.9128,-1.8854,-1.8655,-1.8278,-1.7639,-1.6992,-1.6442,-1.6087,-1.5782,-1.559,-1.5449,-1.5159,-1.4975,-1.4975,-1.4896,-1.479,-1.4675,-1.4782,-1.4612,-1.4193,-1.4193,-1.4375,-1.4806,-1.6102,-1.6403,-1.9754,0.0,0.0,0.0,0.0,0.0,0.0,0.0,0.0,0.0,0.0,0.0,0.0,0.0,0.0,0.0,0.0,0.0,0.0,0.0,0.0,0.0,0.0,0.0,0.0,0.0,0.0,0.0,-1.6411,-1.6193,-1.5991,-1.6158,-1.6376,-1.6594,-1.6975,-1.7148,-1.7088,-1.7157,-1.6975,-1.6594,-1.6376,-1.6123,-1.5842,-1.5745,-1.5675,-1.5596,-1.5596,-1.5596,-1.5525,-1.5286,-1.5144,-1.5037,-1.4724,-1.5092,-1.5878,-1.6018,-1.6026,-1.5983,-1.5807,-1.5517,-1.5199,-1.4681,-1.4438,-1.4402,-1.4286,-1.4358,-1.4502,-1.4502,-1.4279,-1.4063,-1.4178,-1.397,-1.3789,-1.3926,-1.3991,-1.4055,-1.4335,-1.4291,-1.4204,-1.4446,-1.4268,-1.4096,-1.4104,-1.5712,-1.697,-1.6936,-1.697,-1.6892,-1.6555,-1.6278,-1.5861,-1.5257,-1.4636,-1.4109,-1.3771,-1.3498,-1.3259,-1.3019,-1.272,-1.2501,-1.2384,-1.2201,-1.2048,-1.1931,-1.1931,-1.1784,-1.1446,-1.1446,-1.1082,-1.0473,-1.2658,-1.3287,0.0,0.0,0.0,-1.8158,0.0,0.0,0.0,0.0,-1.5674,0.0,0.0,0.0,0.0,0.0,0.0,-1.3869,0.0,0.0,0.0,0.0,0.0,0.0,0.0,0.0,0.0,0.0,0.0,-1.5833,-1.5108,-1.4824,-1.524,-1.4859,-1.5037,-1.5798,-1.5868,-1.6,-1.6341,-1.6035,-1.5868,-1.5833,-1.5037,-1.4673,-1.4637,-1.4338,-1.4049,-1.3869,-1.3869,-1.3753,-1.3608,-1.3571,-1.3455,-1.3266,-1.3047,-1.2879,-1.2886,-1.4171,-1.4314,-1.3774,-1.3557,-1.315,-1.2712,-1.2675,-1.2542,-1.2445,-1.2609,-1.2675,-1.2675,-1.2675,-1.2675,-1.2609,-1.2445,-1.2372,-1.2372,-1.2372,-1.2358,-1.2382,-1.2375,-1.2338,-1.2258,-1.2117,-1.2265,-1.2308,-1.2117,-1.3534,-1.4629,-1.4442,-1.4593,-1.4478,-1.3888,-1.3664,-1.3302,-1.2691,-1.2301,-1.2007,-1.1822,-1.1786,-1.1601,-1.1193,-1.1156,-1.1007,-1.0596,-1.0372,-1.011,-0.9718,-0.9718,-0.9412,-0.8803,-0.8803,-0.8509,-0.7948,-0.9927,-1.0338,0.0,0.0,-1.748,-1.7229,0.0,0.0,0.0,0.0,0.0,0.0,0.0,0.0,0.0,0.0,0.0,-1.3368,0.0,0.0,0.0,0.0,0.0,0.0,0.0,0.0,0.0,0.0,0.0,-1.4474,-1.4222,-1.4086,0.0,-1.4086,-1.4186,-1.4474,-1.4625,-1.4732,-1.4832,-1.4732,-1.4625,-1.4474,-1.4078,-1.3789,-1.3651,-1.3295,-1.3076,-1.2996,-1.2725,-1.2565,-1.2492,-1.2234,-1.2087,-1.1977,-1.1805,-1.1508,-1.1354,-1.2485,-1.2741,-1.2528,-1.2191,-1.197,-1.1755,-1.1508,-1.144,-1.1477,-1.1434,-1.1508,-1.162,-1.162,-1.1508,-1.1397,-1.1335,-1.1223,-1.1074,-1.0925,-1.0919,-1.0838,-1.0565,-1.0372,-1.0265,-1.0228,-1.0153,-1.019,-1.0378,-1.0889,-1.1668,-1.2799,-1.2931,-1.2698,-1.2258,-1.1883,-1.1403,-1.0671,-1.0228,-0.989,-0.9545,-0.9394,-0.9233,-0.9077,-0.9048,-0.8832,-0.832,-0.8249,-0.7925,-0.728,-0.7283,-0.7035,-0.6505,-0.6505,-0.6099,-0.5289,-0.5554,-0.6018,-1.7253,-1.6845,0.0,-1.6221,-1.5948,0.0,-1.5409,0.0,0.0,0.0,0.0,0.0,0.0,0.0,0.0,-1.284,-1.2863,0.0,0.0,-1.3083,0.0,0.0,0.0,0.0,0.0,0.0,-1.3731,-1.3586,-1.3433,-1.3331,0.0,0.0,-1.3433,-1.3586,-1.3622,-1.3695,-1.3768,-1.3586,-1.3397,-1.3244,-1.2915,-1.2659,-1.2452,-1.2114,-1.1855,-1.1632,-1.136,-1.1162,-1.1007,-1.0746,-1.0634,-1.064,-1.0351,-1.0088,-0.997,-1.0975,-1.1124,-1.0783,-1.0372,-1.0222,-1.0185,-0.9938,-0.9938,-1.0013,-0.9863,-0.9938,-1.0051,-1.0051,-0.9938,-0.9825,-0.9825,-0.975,-0.9604,-0.9382,-0.9306,-0.9117,-0.8723,-0.8456,-0.8304,-0.8228,-0.8152,-0.819,-0.8452,-0.8485,-0.9087,-1.0864,-1.1007,-1.0697,-1.0099,-0.9804,-0.9389,-0.8723,-0.8423,-0.8149,-0.7824,-0.7618,-0.747,-0.7387,-0.727,-0.699,-0.6509,-0.6261,-0.5806,-0.5059,-0.4807,-0.4428,-0.3966,-0.3796,-0.3378,-0.2713,-0.2087,-0.2176]},{"header":{"parameterUnit":"m.s-1","parameterCategory":1,"la1":30.6,"la2":29.2853,"lo1":-89.7004,"lo2":-87.6739,"dy":0.0162,"dx":0.0183,"nx":112,"ny":82,"refTime":"2023-09-19T12:00:00:Z","depth":0,"parameterNumber":3,"parameterNumberName":"V-component_of_WINDS"},"data":[0.0,0.0,0.0,0.0,0.0,0.0,0.0,0.0,0.0,0.0,0.0,0.0,0.0,0.0,0.0,0.0,0.0,0.0,0.0,0.0,0.0,0.0,0.0,0.0,0.0,0.0,0.0,0.0,0.0,0.0,0.0,0.0,0.0,0.0,0.0,0.0,0.0,0.0,0.0,0.0,0.0,0.0,0.0,0.0,0.0,0.0,0.0,0.0,0.0,0.0,0.0,0.0,0.0,0.0,0.0,0.0,0.0,0.0,0.0,0.0,0.0,0.0,0.0,0.0,0.0,0.0,0.0,0.0,0.0,0.0,0.0,0.0,0.0,0.0,0.0,0.0,0.0,0.0,0.0,0.0,0.0,0.0,0.0,0.0,0.0,0.0,0.0,0.0,0.0,0.0,0.0,-1.9334,-2.0061,-2.0575,-2.0771,-2.1396,-2.2092,-2.2885,0.0,0.0,0.0,0.0,0.0,0.0,0.0,0.0,0.0,0.0,0.0,0.0,0.0,0.0,0.0,0.0,0.0,0.0,0.0,0.0,0.0,0.0,0.0,0.0,0.0,0.0,0.0,0.0,0.0,0.0,0.0,0.0,0.0,0.0,0.0,0.0,0.0,0.0,0.0,0.0,0.0,0.0,0.0,0.0,0.0,0.0,0.0,0.0,0.0,0.0,0.0,0.0,0.0,0.0,0.0,0.0,0.0,0.0,0.0,0.0,0.0,0.0,0.0,0.0,0.0,0.0,0.0,0.0,0.0,0.0,0.0,0.0,0.0,0.0,0.0,0.0,0.0,0.0,0.0,0.0,0.0,0.0,0.0,0.0,0.0,0.0,0.0,0.0,0.0,0.0,0.0,0.0,0.0,0.0,0.0,0.0,0.0,0.0,0.0,0.0,0.0,0.0,0.0,0.0,-2.0661,-2.1066,-2.1281,-2.1455,-2.1689,-2.2453,-2.3148,-2.3629,0.0,0.0,0.0,0.0,0.0,0.0,0.0,0.0,0.0,0.0,0.0,0.0,0.0,0.0,0.0,0.0,0.0,0.0,0.0,0.0,0.0,0.0,0.0,0.0,0.0,0.0,0.0,0.0,0.0,0.0,0.0,0.0,0.0,0.0,0.0,0.0,0.0,0.0,0.0,0.0,0.0,0.0,0.0,0.0,0.0,0.0,0.0,0.0,0.0,0.0,0.0,0.0,0.0,0.0,0.0,0.0,0.0,0.0,0.0,0.0,0.0,0.0,0.0,0.0,0.0,0.0,0.0,0.0,0.0,0.0,0.0,0.0,0.0,0.0,0.0,0.0,0.0,0.0,0.0,0.0,0.0,0.0,0.0,0.0,0.0,0.0,0.0,0.0,0.0,0.0,0.0,0.0,0.0,0.0,0.0,0.0,0.0,0.0,0.0,0.0,0.0,0.0,0.0,-2.0964,-2.1349,-2.169,-2.1824,-2.1948,-2.204,-2.2961,-2.3822,-2.45,-2.5475,0.0,0.0,0.0,0.0,0.0,0.0,0.0,0.0,0.0,0.0,0.0,0.0,0.0,0.0,0.0,0.0,0.0,0.0,0.0,0.0,0.0,0.0,0.0,0.0,0.0,0.0,0.0,0.0,0.0,0.0,0.0,0.0,0.0,0.0,0.0,0.0,0.0,0.0,0.0,0.0,0.0,0.0,0.0,0.0,0.0,0.0,0.0,0.0,0.0,0.0,0.0,0.0,0.0,0.0,0.0,0.0,0.0,0.0,0.0,0.0,0.0,0.0,0.0,0.0,0.0,0.0,0.0,0.0,0.0,0.0,0.0,0.0,0.0,0.0,0.0,0.0,0.0,0.0,0.0,0.0,0.0,0.0,0.0,0.0,0.0,0.0,0.0,0.0,0.0,0.0,0.0,0.0,0.0,0.0,0.0,0.0,0.0,0.0,0.0,0.0,0.0,0.0,-2.1929,-2.2065,-2.2271,-2.2512,-2.2679,-2.2679,-2.3597,-2.4549,-2.5395,-2.66,0.0,0.0,0.0,0.0,0.0,0.0,0.0,0.0,0.0,0.0,0.0,0.0,0.0,0.0,0.0,0.0,0.0,0.0,0.0,0.0,0.0,0.0,0.0,0.0,0.0,0.0,0.0,0.0,0.0,0.0,0.0,0.0,0.0,0.0,0.0,0.0,0.0,0.0,0.0,0.0,0.0,0.0,0.0,0.0,0.0,0.0,0.0,0.0,0.0,0.0,0.0,0.0,0.0,0.0,0.0,0.0,0.0,0.0,0.0,0.0,0.0,0.0,0.0,0.0,0.0,0.0,0.0,0.0,0.0,0.0,0.0,0.0,0.0,0.0,0.0,0.0,0.0,0.0,0.0,0.0,0.0,0.0,0.0,0.0,0.0,0.0,0.0,0.0,0.0,0.0,0.0,0.0,0.0,0.0,0.0,0.0,0.0,0.0,0.0,0.0,0.0,0.0,-2.3231,-2.3361,-2.3371,-2.3803,-2.4061,-2.4061,-2.4851,-2.5608,-2.6088,-2.7145,0.0,0.0,0.0,0.0,0.0,0.0,0.0,0.0,0.0,0.0,0.0,0.0,0.0,0.0,0.0,0.0,0.0,0.0,0.0,0.0,0.0,0.0,0.0,0.0,0.0,0.0,0.0,0.0,0.0,0.0,0.0,0.0,0.0,0.0,0.0,0.0,0.0,0.0,0.0,0.0,0.0,0.0,0.0,0.0,0.0,0.0,0.0,0.0,0.0,0.0,0.0,0.0,0.0,0.0,0.0,0.0,0.0,0.0,0.0,0.0,0.0,0.0,0.0,0.0,0.0,0.0,0.0,0.0,0.0,0.0,0.0,0.0,0.0,0.0,0.0,0.0,0.0,0.0,0.0,0.0,0.0,0.0,0.0,0.0,0.0,0.0,0.0,0.0,0.0,0.0,0.0,0.0,0.0,0.0,0.0,0.0,0.0,0.0,0.0,0.0,0.0,0.0,-2.3537,-2.3634,0.0,-2.4186,-2.4658,-2.4658,-2.5706,-2.6498,-2.6805,0.0,0.0,0.0,0.0,0.0,0.0,0.0,0.0,0.0,0.0,0.0,0.0,0.0,0.0,0.0,0.0,0.0,0.0,0.0,0.0,0.0,0.0,0.0,0.0,0.0,0.0,0.0,0.0,0.0,0.0,0.0,0.0,0.0,0.0,0.0,0.0,0.0,0.0,0.0,0.0,0.0,0.0,0.0,0.0,0.0,0.0,0.0,0.0,0.0,0.0,0.0,0.0,0.0,0.0,0.0,0.0,0.0,0.0,0.0,0.0,0.0,0.0,0.0,0.0,0.0,0.0,0.0,0.0,0.0,0.0,0.0,0.0,0.0,0.0,0.0,0.0,0.0,0.0,0.0,0.0,0.0,0.0,0.0,0.0,0.0,0.0,0.0,0.0,0.0,0.0,0.0,0.0,0.0,0.0,0.0,0.0,0.0,0.0,0.0,0.0,0.0,0.0,-2.3547,-2.3764,-2.3851,0.0,-2.4476,-2.5073,-2.5073,-2.6249,-2.7085,-2.7267,0.0,0.0,0.0,0.0,0.0,0.0,0.0,0.0,0.0,0.0,0.0,0.0,0.0,0.0,0.0,0.0,0.0,0.0,0.0,0.0,0.0,0.0,0.0,0.0,0.0,0.0,0.0,0.0,0.0,0.0,0.0,0.0,0.0,0.0,0.0,0.0,0.0,0.0,0.0,0.0,0.0,0.0,0.0,0.0,0.0,0.0,0.0,0.0,0.0,0.0,0.0,0.0,0.0,0.0,0.0,0.0,0.0,0.0,0.0,0.0,0.0,0.0,0.0,0.0,0.0,0.0,0.0,0.0,0.0,0.0,0.0,0.0,0.0,0.0,0.0,0.0,0.0,0.0,0.0,0.0,0.0,0.0,0.0,0.0,0.0,0.0,0.0,0.0,0.0,0.0,0.0,0.0,0.0,0.0,0.0,0.0,0.0,0.0,0.0,0.0,0.0,0.0,-2.3547,-2.3894,-2.411,-2.3841,-2.4818,-2.5496,-2.5496,-2.6569,-2.7307,0.0,0.0,0.0,0.0,0.0,0.0,0.0,0.0,0.0,0.0,0.0,0.0,0.0,0.0,0.0,0.0,0.0,0.0,0.0,0.0,0.0,0.0,0.0,0.0,0.0,0.0,0.0,0.0,0.0,0.0,0.0,0.0,0.0,0.0,0.0,0.0,0.0,0.0,0.0,0.0,0.0,0.0,0.0,0.0,0.0,0.0,0.0,0.0,0.0,0.0,0.0,0.0,0.0,0.0,0.0,0.0,0.0,0.0,0.0,0.0,0.0,0.0,0.0,0.0,0.0,0.0,0.0,0.0,0.0,0.0,0.0,0.0,0.0,0.0,0.0,0.0,0.0,0.0,0.0,0.0,0.0,0.0,0.0,0.0,0.0,0.0,0.0,0.0,0.0,0.0,0.0,0.0,0.0,0.0,0.0,0.0,0.0,0.0,0.0,0.0,0.0,0.0,0.0,-2.4024,-2.412,-2.4024,-2.3634,-2.4605,-2.5369,-2.5496,-2.6794,-2.7742,-2.7966,0.0,0.0,0.0,0.0,0.0,0.0,0.0,0.0,0.0,0.0,0.0,0.0,0.0,0.0,0.0,0.0,0.0,0.0,0.0,0.0,0.0,0.0,0.0,0.0,0.0,0.0,0.0,0.0,0.0,0.0,0.0,0.0,0.0,0.0,0.0,0.0,0.0,0.0,0.0,0.0,0.0,0.0,0.0,0.0,0.0,0.0,0.0,0.0,0.0,0.0,0.0,0.0,0.0,0.0,0.0,0.0,0.0,0.0,0.0,0.0,0.0,0.0,0.0,0.0,0.0,0.0,0.0,0.0,0.0,0.0,0.0,0.0,0.0,0.0,0.0,0.0,0.0,0.0,0.0,0.0,0.0,0.0,0.0,0.0,0.0,0.0,0.0,0.0,0.0,0.0,0.0,0.0,0.0,0.0,0.0,0.0,0.0,0.0,0.0,0.0,0.0,0.0,-2.4401,-2.4239,-2.4024,-2.3547,-2.4519,-2.5285,-2.5485,-2.6917,-2.7891,-2.8167,0.0,0.0,0.0,0.0,0.0,0.0,0.0,0.0,0.0,0.0,0.0,0.0,0.0,0.0,0.0,0.0,0.0,0.0,0.0,0.0,0.0,0.0,0.0,0.0,0.0,0.0,0.0,0.0,0.0,0.0,0.0,0.0,0.0,0.0,0.0,0.0,0.0,0.0,0.0,0.0,0.0,0.0,0.0,0.0,0.0,0.0,0.0,0.0,0.0,0.0,0.0,0.0,0.0,0.0,0.0,0.0,0.0,0.0,0.0,0.0,0.0,0.0,0.0,0.0,0.0,0.0,0.0,0.0,0.0,0.0,0.0,0.0,0.0,0.0,0.0,0.0,0.0,0.0,0.0,0.0,0.0,0.0,0.0,0.0,0.0,0.0,0.0,0.0,0.0,0.0,0.0,0.0,0.0,0.0,0.0,0.0,0.0,0.0,0.0,0.0,0.0,0.0,-2.4584,-2.4315,-2.4024,-2.3547,-2.4519,-2.5285,-2.5538,-2.6958,-2.7943,-2.8247,0.0,0.0,0.0,0.0,0.0,0.0,0.0,0.0,0.0,0.0,0.0,0.0,0.0,0.0,0.0,0.0,0.0,0.0,0.0,0.0,0.0,0.0,0.0,0.0,0.0,0.0,0.0,0.0,0.0,0.0,0.0,0.0,0.0,0.0,0.0,0.0,0.0,0.0,0.0,0.0,0.0,0.0,0.0,0.0,0.0,0.0,0.0,0.0,0.0,0.0,0.0,0.0,0.0,0.0,0.0,0.0,0.0,0.0,0.0,0.0,-1.4052,0.0,0.0,0.0,0.0,0.0,0.0,0.0,0.0,0.0,0.0,0.0,0.0,0.0,0.0,0.0,0.0,0.0,0.0,0.0,0.0,0.0,0.0,0.0,0.0,0.0,0.0,0.0,0.0,0.0,0.0,0.0,0.0,0.0,0.0,0.0,0.0,0.0,0.0,0.0,0.0,0.0,-2.4584,-2.4315,-2.4024,-2.3547,-2.4519,-2.5359,-2.5779,-2.7214,-2.8287,-2.8645,0.0,0.0,0.0,0.0,0.0,0.0,0.0,0.0,0.0,0.0,0.0,0.0,0.0,0.0,0.0,0.0,0.0,0.0,0.0,0.0,0.0,0.0,0.0,0.0,0.0,0.0,0.0,0.0,0.0,0.0,0.0,0.0,0.0,0.0,0.0,0.0,0.0,0.0,0.0,0.0,0.0,0.0,0.0,0.0,0.0,0.0,0.0,0.0,0.0,0.0,0.0,0.0,0.0,0.0,0.0,0.0,0.0,0.0,0.0,0.0,0.0,-1.507,0.0,0.0,0.0,0.0,0.0,0.0,0.0,0.0,0.0,0.0,0.0,0.0,0.0,0.0,0.0,0.0,0.0,0.0,0.0,0.0,0.0,0.0,0.0,0.0,0.0,0.0,0.0,0.0,0.0,0.0,0.0,0.0,0.0,0.0,0.0,0.0,0.0,0.0,0.0,0.0,-2.4765,-2.4487,-2.4229,-2.4003,-2.4935,-2.5695,-2.6144,-2.751,-2.8459,-2.8803,-2.9417,0.0,0.0,0.0,0.0,0.0,0.0,0.0,0.0,0.0,0.0,0.0,0.0,0.0,0.0,0.0,0.0,0.0,0.0,0.0,0.0,0.0,0.0,0.0,0.0,0.0,0.0,0.0,0.0,0.0,0.0,0.0,0.0,0.0,0.0,0.0,0.0,0.0,0.0,0.0,0.0,0.0,0.0,0.0,0.0,0.0,0.0,0.0,0.0,0.0,0.0,0.0,0.0,0.0,-0.9278,-1.0068,-1.1145,-1.2224,-1.3292,-1.4346,-1.4885,-1.5363,-1.5784,0.0,0.0,0.0,0.0,0.0,0.0,0.0,0.0,0.0,0.0,0.0,0.0,0.0,0.0,0.0,0.0,0.0,0.0,0.0,0.0,0.0,0.0,0.0,0.0,0.0,-2.0772,-2.1793,0.0,0.0,0.0,0.0,0.0,0.0,0.0,0.0,0.0,0.0,0.0,0.0,-2.4818,-2.4615,-2.4529,-2.4627,-2.5474,-2.6268,-2.6682,-2.7886,-2.8697,-2.8882,-2.9456,-2.9792,0.0,0.0,0.0,0.0,0.0,0.0,0.0,0.0,0.0,0.0,0.0,0.0,0.0,0.0,0.0,0.0,0.0,0.0,0.0,0.0,0.0,0.0,0.0,0.0,0.0,0.0,0.0,0.0,0.0,0.0,0.0,0.0,0.1613,0.0606,0.0,0.0,0.0,0.0,0.0,0.0,0.0,0.0,0.0,0.0,0.0,0.0,0.0,0.0,-0.7988,-0.7988,-0.8137,-0.8482,-0.8985,-0.9826,-1.0904,-1.198,-1.3141,-1.4346,-1.4885,0.0,-1.5784,-1.5784,0.0,0.0,0.0,0.0,0.0,0.0,0.0,0.0,0.0,0.0,0.0,0.0,0.0,0.0,0.0,0.0,0.0,0.0,0.0,0.0,0.0,0.0,-1.9012,-1.9745,-2.051,-2.1311,0.0,-2.2662,-2.3091,-2.3091,-2.3319,0.0,0.0,0.0,0.0,0.0,0.0,0.0,-2.4325,-2.4411,-2.4668,-2.5062,-2.6102,-2.6999,-2.7568,-2.8474,-2.9131,-2.9302,-2.9611,-2.9792,-2.9792,-3.0152,0.0,0.0,0.0,0.0,0.0,0.0,0.0,0.0,0.0,0.0,0.0,0.0,0.0,0.0,0.0,0.0,0.0,0.0,0.0,0.0,0.0,0.0,0.0,0.0,0.0,0.0,0.0,0.0,0.0,0.2269,0.1111,0.0455,0.0152,0.0,0.0,0.0,0.0,0.0,0.0,0.0,0.0,0.0,0.0,-0.6189,-0.7144,-0.7746,-0.7988,-0.7988,-0.8137,-0.8382,-0.8935,-0.9677,-1.0609,-1.1834,-1.2948,-1.3902,-1.4742,-1.5315,-1.5635,-1.5737,-1.5784,-1.5784,0.0,0.0,0.0,0.0,-1.5784,-1.5784,-1.5784,-1.5784,0.0,0.0,0.0,0.0,0.0,0.0,0.0,0.0,0.0,0.0,0.0,0.0,0.0,-1.8858,-1.9866,-2.0826,-2.1687,-2.2441,-2.2969,0.0,-2.3319,-2.3547,-2.3624,0.0,0.0,0.0,0.0,0.0,-2.4206,-2.4497,-2.4988,-2.5695,-2.6652,-2.751,-2.8127,-2.8831,-2.9314,-2.938,-2.965,-2.9792,-2.9792,-3.019,-3.0659,0.0,0.0,0.0,0.0,0.0,0.0,0.0,0.0,0.0,0.0,0.0,0.0,0.0,0.0,0.0,0.0,0.0,0.0,0.0,0.0,0.0,0.0,0.0,0.0,0.0,0.0,0.0,0.0,0.1565,0.0909,0.0354,0.0101,0.0,0.0,0.0,0.0,0.0,0.0,0.0,-0.2371,-0.4079,-0.5436,-0.6387,-0.7275,-0.7899,-0.8099,-0.8136,-0.8251,-0.8449,-0.8963,-0.9616,-1.0358,-1.1751,-1.2784,-1.3656,-1.4746,-1.5345,-1.5604,-1.5763,-1.5784,-1.5784,-1.5784,-1.5784,-1.5784,-1.5784,-1.5784,-1.5784,-1.5784,-1.5784,-1.5784,-1.5784,0.0,-1.5784,-1.5784,0.0,0.0,0.0,0.0,-1.6265,-1.6541,-1.6958,-1.7466,-1.8203,-1.9309,-2.0464,-2.1463,-2.222,-2.2794,0.0,-2.3276,-2.3406,-2.3406,0.0,0.0,0.0,0.0,-2.3937,-2.4034,-2.4487,-2.5147,-2.603,-2.701,-2.7834,-2.8538,-2.917,-2.9509,-2.9509,-2.9702,-2.9792,-2.9792,-3.019,-3.0659,-3.1134,0.0,0.0,0.0,0.0,0.0,0.0,0.0,0.0,0.0,0.0,0.0,0.0,0.0,0.0,0.0,0.0,0.0,0.0,0.0,0.0,0.0,0.0,0.0,0.0,0.0,0.0,0.0,0.0,0.0,0.0101,0.0,0.0,0.0,0.0,0.0,0.0,-0.0958,-0.1815,-0.2371,-0.4431,-0.5834,-0.6387,-0.762,-0.8258,-0.831,-0.8391,-0.8459,-0.8511,-0.9041,-0.9563,-1.0184,-1.1578,-1.2807,-1.3874,-1.4996,-1.5613,-1.5856,-1.5808,-1.5784,-1.5784,-1.5784,-1.5784,-1.5784,-1.5784,-1.5784,-1.5784,-1.5784,-1.5784,-1.5784,-1.5784,-1.5784,-1.5784,-1.5784,-1.5784,0.0,0.0,-1.6224,-1.6265,-1.6541,-1.6958,-1.7466,-1.8203,-1.9163,-2.0266,-2.1463,-2.2087,-2.2564,0.0,-2.3091,-2.3135,-2.3135,0.0,-2.3135,-2.3144,-2.3135,-2.3232,-2.3503,-2.4122,-2.4882,-2.581,-2.704,-2.8063,-2.8712,-2.9417,-2.9792,-2.9792,-2.9792,-2.9792,-2.9792,-3.019,-3.0596,-3.1024,-3.1909,0.0,0.0,0.0,0.0,0.0,0.0,0.0,0.0,0.0,0.0,0.0,0.0,0.0,0.0,0.0,0.0,0.0,0.0,0.0,0.0,0.0,0.0,0.0,0.0,0.0,0.0,0.0,0.0,0.0051,0.0,0.0,0.0,0.0,0.0,0.0,-0.1009,-0.1876,-0.2515,-0.4614,-0.6077,-0.6619,-0.7806,-0.8408,-0.8408,-0.8459,-0.8482,-0.8482,-0.8856,-0.9227,-0.9642,-1.0832,-1.1864,-1.2843,-1.4117,-1.5034,-1.5651,-1.6002,-1.5985,-1.5784,-1.5784,-1.5784,-1.5784,-1.5784,-1.5784,-1.5784,-1.5784,-1.5784,-1.5784,-1.5784,-1.5784,-1.5784,-1.5784,-1.5784,-1.5832,-1.5927,-1.5927,-1.5974,-1.6069,-1.6487,-1.7099,-1.7986,-1.8942,-2.0039,-2.141,-2.2087,-2.253,-2.3003,-2.3091,-2.3091,-2.3091,-2.3091,-2.3091,-2.3091,-2.3091,-2.3222,-2.3624,-2.4166,-2.4956,-2.6155,-2.7203,-2.8131,-2.8922,-2.9507,-2.9792,-2.9792,-2.9792,-2.9869,-2.9972,-3.0381,-3.0798,-3.1198,-3.1982,-3.2725,0.0,0.0,0.0,0.0,0.0,0.0,0.0,0.0,0.0,0.0,0.0,0.0,0.0,0.0,0.0,0.0,0.0,0.0,0.0,0.0,0.0,0.0,0.0,0.0,0.0,0.0,0.0758,0.0202,0.0051,0.0,0.0,0.0,0.0,0.0,-0.1019,-0.1898,-0.2561,-0.47,-0.6192,-0.6798,-0.7952,-0.856,-0.856,-0.8611,-0.8635,-0.8635,-0.8909,-0.9176,-0.9389,-1.0494,-1.1441,-1.2331,-1.3742,-1.4843,-1.5693,-1.6208,-1.6275,-1.6112,-1.6019,-1.5979,-1.5965,-1.5818,-1.5784,-1.5784,-1.5784,-1.5784,-1.5784,-1.5784,-1.5784,-1.5784,-1.5784,-1.5784,-1.5784,-1.5784,-1.5784,-1.5784,-1.5784,-1.6204,-1.6817,-1.7753,-1.8711,-1.9766,-2.1141,-2.1909,-2.2441,-2.2925,-2.3047,-2.3091,-2.3091,-2.3091,-2.3091,-2.3091,-2.3091,-2.3232,-2.3667,-2.4262,-2.5052,-2.6185,-2.7284,-2.8223,-2.8922,-2.9507,-2.9792,-2.9792,-2.9792,-2.9908,-3.0075,-3.0508,-3.0874,-3.1272,-3.2237,-3.3058,-3.377,0.0,0.0,0.0,0.0,0.0,0.0,0.0,0.0,0.0,0.0,0.0,0.0,0.0,0.0,0.0,0.0,0.0,0.0,0.0,0.0,0.0,0.0,0.0,0.2723,0.1716,0.101,0.0455,0.0152,0.0,0.0,0.0,0.0,0.0,-0.1038,-0.1986,-0.2552,-0.4727,-0.6165,-0.6812,-0.805,-0.8716,-0.8716,-0.8811,-0.8885,-0.8885,-0.9213,-0.9379,-0.9434,-1.0527,-1.1555,-1.2472,-1.3943,-1.5058,-1.5933,-1.6497,-1.6688,-1.67,-1.64,-1.6286,-1.6253,-1.5965,-1.5804,-1.5791,-1.5784,-1.5784,-1.5784,-1.5784,-1.5784,-1.5784,-1.5784,-1.5784,-1.5784,-1.5784,-1.5784,-1.5784,-1.5784,-1.6204,-1.677,-1.7505,-1.8442,-1.95,-2.0727,-2.1588,-2.223,-2.2715,-2.2969,-2.3091,-2.3091,-2.3091,-2.3091,-2.3091,-2.3101,0.0,-2.3503,-2.4348,-2.5189,-2.5852,-2.7307,-2.8367,-2.8791,-2.9417,-2.9792,-2.9792,-2.9792,-2.9908,-3.0113,-3.0508,-3.0911,-3.1347,-3.2632,-3.377,-3.4698,0.0,0.0,0.0,0.0,0.0,0.0,0.0,0.0,0.0,0.0,0.0,0.0,0.0,0.0,0.0,0.0,0.0,0.0,0.0,0.0,0.0,0.0,0.5186,0.3528,0.2421,0.1514,0.0757,0.0455,0.0203,0.0,0.0,0.0,0.0,-0.1058,-0.197,-0.2654,-0.487,-0.6421,-0.7054,-0.8249,-0.8821,-0.8821,-0.8861,-0.8885,-0.8885,-0.8992,-0.9047,-0.9047,-0.9816,-1.0743,-1.1887,-1.3132,-1.4502,-1.5942,-1.6464,-1.6938,-1.7288,-1.678,-1.6587,-1.6573,-1.6493,-1.6333,-1.6119,-1.5905,-1.5784,-1.5784,-1.5784,-1.5784,-1.5784,-1.5784,-1.5784,-1.5784,-1.5784,-1.5784,-1.5784,-1.5784,-1.6069,-1.6501,-1.7232,-1.8017,-1.8988,-2.0402,-2.1302,-2.2024,-2.2662,-2.2969,-2.3091,-2.3091,-2.3091,-2.3091,-2.3091,-2.3276,0.0,-2.3937,-2.4775,-2.5737,-2.6723,-2.7805,-2.8657,-2.9184,-2.9573,-2.9792,-2.9792,-2.9792,-2.9972,-3.0292,-3.0571,-3.1198,-3.2309,-3.3199,-3.3991,0.0,0.0,0.0,0.0,0.0,0.0,0.0,0.0,0.0,0.0,0.0,0.0,0.0,0.0,0.0,0.0,0.0,0.0,0.0,0.0,0.0,0.0,0.6892,0.6037,0.4784,0.3275,0.2017,0.1211,0.0712,0.0308,0.0052,0.0,0.0,0.0,-0.1078,-0.2007,-0.2646,-0.4958,-0.6531,-0.7152,-0.8325,-0.8885,-0.8885,-0.8885,-0.8885,-0.8885,-0.8885,-0.8885,-0.894,-0.9541,-1.0472,0.0,-1.2807,-1.4266,-1.5939,-1.6465,-1.7047,0.0,0.0,0.0,0.0,0.0,-1.66,-1.6413,-1.6119,-1.6012,-1.5999,-1.5872,-1.5784,-1.5784,-1.5784,-1.5784,-1.5784,-1.5784,-1.5784,-1.5784,-1.5784,-1.5981,-1.6359,-1.7012,-1.7753,-1.8665,-1.9985,-2.0988,-2.1793,-2.2485,-2.2882,0.0,-2.3091,-2.3091,-2.3091,-2.3091,-2.3319,-2.3711,-2.4272,-2.5105,-2.6113,-2.7226,-2.8127,-2.8843,-2.9341,-2.965,0.0,0.0,0.0,-2.9972,-3.0368,-3.0823,0.0,0.0,0.0,-3.4094,-3.4698,0.0,0.0,0.0,-3.5504,-3.5504,0.0,0.0,0.0,0.0,0.0,0.0,0.0,0.0,0.0,0.0,0.0,0.0,0.0,0.0,0.0,0.0,0.7441,0.6989,0.6192,0.434,0.2782,0.1871,0.1027,0.0364,0.0052,0.0,0.0,0.0,-0.1097,-0.2041,-0.2686,0.0,0.0,0.0,0.0,-0.8881,-0.8885,-0.8885,-0.8885,-0.8885,-0.8885,-0.8885,-0.894,-0.9541,-1.0417,-1.1623,-1.2807,-1.4266,-1.5891,-1.6471,-1.7047,-1.7555,-1.7347,-1.7253,-1.7213,-1.6867,-1.676,-1.6714,-1.642,0.0,0.0,-1.5979,-1.5879,-1.5872,-1.5791,-1.5784,-1.5784,-1.5784,-1.5784,-1.5784,-1.5784,-1.5981,-1.6272,-1.6838,-1.7535,-1.8404,-1.9575,-2.0664,-2.1579,-2.2264,-2.2784,-2.3091,-2.3091,-2.3091,-2.3091,-2.3091,-2.3363,-2.3797,-2.4456,-2.5421,-2.6434,-2.747,0.0,0.0,-2.9419,-2.965,-2.9792,-2.9792,-2.983,-2.9972,-3.0368,-3.1147,-3.185,-3.2345,-3.3304,-3.4094,-3.4664,-3.503,-3.5294,-3.5472,-3.5504,-3.5504,0.0,0.0,0.0,0.0,0.0,0.0,0.0,0.0,0.0,0.0,0.0,0.0,0.0,0.0,0.0,0.7942,0.7693,0.7294,0.6745,0.5657,0.4323,0.2833,0.1707,0.0841,0.0379,0.0109,0.0,0.0,-0.0893,-0.1788,-0.2632,-0.4533,0.0,-0.7154,-0.8097,-0.8657,-0.8885,-0.8885,-0.8885,-0.8885,0.0,0.0,-0.894,-0.9541,-1.0308,-1.1291,-1.2698,-1.4153,-1.5618,-1.6411,-1.7047,-1.7575,-1.7522,-1.7502,-1.7514,-1.7219,-1.7112,-1.7072,-1.6727,-1.662,-1.6573,-1.6279,-1.6186,-1.6146,-1.5905,-1.5784,0.0,-1.5784,-1.5784,-1.5784,-1.5784,-1.5832,-1.6021,-1.6541,-1.7232,-1.811,-1.9301,-2.0538,-2.1579,-2.2264,-2.2784,-2.3091,-2.3091,-2.3091,-2.3091,-2.3091,-2.3667,-2.4239,-2.4775,-2.606,-2.7226,-2.7966,-2.8791,-2.9392,-2.9702,-2.9792,-2.9792,-2.9792,-2.9934,-3.0075,-3.0152,-3.1073,-3.1776,-3.2164,-3.3234,-3.4025,-3.4448,-3.4949,-3.5213,-3.5261,-3.5439,-3.5504,0.0,0.0,0.0,0.0,0.0,0.0,0.0,0.0,0.0,0.0,0.0,0.7988,0.0,0.0,0.7988,0.7988,0.7892,0.7643,0.7244,0.6388,0.5118,0.3313,0.2107,0.1181,0.0492,0.0165,0.0,0.0,-0.0785,-0.1625,-0.2408,-0.4308,-0.5873,-0.6935,-0.7931,-0.8654,-0.8885,-0.8885,-0.8885,-0.8885,-0.8885,-0.8885,-0.894,-0.9379,-1.0091,-1.0962,-1.2159,-1.3565,-1.5137,-1.6418,-1.7113,-1.743,-1.7536,-1.7582,-1.7562,-1.7474,-1.742,-1.738,-1.7027,-1.6927,-1.6881,-1.6587,-1.6393,-1.6295,-1.6092,-1.5945,-1.5784,-1.5784,-1.5784,-1.5784,-1.5784,-1.5784,-1.5927,-1.6494,-1.7185,-1.801,-1.9255,-2.0492,-2.1579,-2.2264,-2.2784,-2.3091,-2.3091,-2.3091,-2.3091,-2.3091,-2.3624,-2.4229,-2.4946,-2.6102,-2.7226,-2.8219,-2.8882,-2.9404,-2.9753,-2.9792,-2.9792,-2.9792,-2.9908,-2.9934,-2.9934,-3.0723,-3.1296,-3.164,-3.2797,-3.3632,-3.4094,-3.4735,-3.5115,-3.518,-3.5407,-3.5504,0.0,0.0,0.0,0.0,0.0,0.0,0.0,0.0,0.7988,0.7988,0.7988,0.7988,0.7988,0.7988,0.7988,0.7988,0.7988,0.7902,0.7682,0.6881,0.562,0.3869,0.2578,0.1479,0.066,0.0223,0.0,0.0,-0.0673,-0.1402,-0.2073,-0.3973,-0.5481,-0.6487,-0.7709,-0.8488,-0.8826,-0.8881,-0.8885,-0.8885,-0.8885,-0.8885,-0.8885,-0.9268,-0.9871,-1.0692,-1.1837,-1.3246,-1.4815,-1.6418,-1.712,-1.7232,-1.7483,-1.7582,-1.7582,-1.7582,-1.7582,-1.7549,-1.7367,-1.7286,-1.7233,-1.6887,-1.6633,-1.6469,-1.6355,-1.6106,-1.5905,-1.5798,-1.5784,-1.5784,-1.5784,-1.5784,-1.5927,-1.6494,-1.7185,-1.801,-1.9171,-2.0439,-2.1535,-2.2211,-2.2706,-2.3047,-2.3091,-2.3091,-2.3091,-2.3091,-2.3537,-2.4176,-2.5031,-2.603,-2.7103,-2.8299,-2.8855,-2.9326,-2.9753,-2.9792,-2.9792,-2.9792,-2.9792,-2.9792,-2.9792,-3.0394,-3.0836,-3.1172,-3.2295,-3.3129,-3.3597,-3.4317,-3.4802,-3.4983,-3.5228,-3.5407,0.958,0.9008,0.8482,0.8432,0.8187,0.7988,0.0,0.0,0.7988,0.7988,0.7988,0.7988,0.7988,0.7988,0.7988,0.7988,0.7988,0.7985,0.7862,0.7171,0.6232,0.514,0.3323,0.1871,0.1285,0.0448,0.0,0.0,-0.0336,-0.0897,-0.1795,-0.3079,-0.4474,-0.5866,-0.7043,-0.7992,-0.854,-0.8768,-0.8885,-0.8885,-0.8885,-0.8885,-0.8885,-0.9268,-0.9761,-1.0472,-1.259,-1.4046,-1.5066,-1.6252,-1.6955,-1.7232,-1.7483,-1.7582,-1.7582,-1.7582,-1.7582,-1.7582,-1.7549,-1.7535,-1.7482,-1.7246,-1.7125,-1.7005,-1.6482,-1.6253,-1.6166,-1.5905,-1.5784,-1.5784,-1.5784,-1.5784,-1.5927,-1.6494,-1.7185,-1.7971,-1.8996,-2.0184,-2.1266,-2.1998,-2.2495,-2.2882,-2.3057,-2.3091,-2.3091,-2.3091,-2.3711,-2.4325,-2.4861,-2.6227,-2.7389,-2.8127,-2.891,-2.947,-2.9792,-2.9792,-2.9792,-2.9792,-2.9792,-2.9792,-2.9792,-3.0394,-3.0798,-3.1011,-3.1982,-3.2596,-3.281,-3.3548,-3.4011,-3.423,-3.4616,-3.503,1.0742,0.0,0.0,0.0,0.8333,0.7988,0.7988,0.7988,0.7988,0.7988,0.7988,0.7988,0.7988,0.7988,0.7988,0.0,0.7988,0.7939,0.7881,0.7191,0.631,0.5277,0.3578,0.217,0.1401,0.0505,0.0,0.0,-0.0224,-0.0729,-0.1458,-0.2633,-0.4029,-0.5534,-0.6765,-0.7712,-0.8484,-0.8768,-0.8885,-0.8885,-0.8885,-0.8885,-0.8885,-0.9047,-0.9434,-1.0091,-1.1778,-1.2861,-1.3565,-1.4917,-1.5779,-1.6258,-1.669,-1.706,-1.7384,-1.7529,-1.7582,-1.7582,-1.7582,-1.7582,-1.7562,-1.7494,-1.734,-1.7125,-1.6653,-1.6406,-1.6213,-1.5912,-1.5784,-1.5784,-1.5784,-1.5784,-1.5879,-1.6265,-1.6911,-1.7699,-1.8527,-1.9812,-2.0997,-2.1713,-2.2388,-2.2838,-2.3057,-2.3091,-2.3091,-2.3091,-2.358,-2.4186,-2.4818,-2.6019,-2.7307,-2.8566,-2.9248,-2.9702,-2.9792,-2.9792,-2.9792,-2.9792,-2.9792,-2.9792,-2.9792,-3.0164,-3.0457,-3.0634,-3.1371,-3.1909,-3.2173,-3.2938,-3.3444,-3.3667,-3.4147,-3.452,1.1346,0.0,0.0,0.8874,0.8382,0.7988,0.7988,0.7988,0.7988,0.7988,0.7988,0.7988,0.7988,0.7988,0.7988,0.7988,0.8025,0.8052,0.7888,0.7244,0.6353,0.5314,0.3721,0.2353,0.1402,0.0505,0.0,0.0,-0.0168,-0.0505,-0.1009,-0.2185,-0.3471,-0.4868,-0.6318,-0.7432,-0.8266,-0.866,-0.8885,-0.8885,-0.8885,-0.8885,-0.8885,-0.8992,-0.9268,-0.9761,-1.0966,-1.1728,-1.2273,-1.3732,-1.4708,-1.5298,-1.5945,-1.653,-1.712,-1.7378,-1.7529,-1.7582,-1.7582,-1.7582,-1.7582,-1.7582,-1.7494,-1.7253,-1.682,-1.656,-1.6313,-1.5939,-1.5784,-1.5784,-1.5784,-1.5784,-1.5879,-1.613,-1.6636,-1.7326,-1.8064,-1.9255,-2.0447,-2.1248,-2.2069,-2.2715,-2.2969,-2.3047,-2.3091,-2.3091,-2.3493,-2.4046,-2.468,-2.6019,-2.7418,-2.8934,-2.9507,-2.9792,-2.9792,-2.9792,-2.9792,-2.9792,-2.9792,-2.9792,-2.9792,-2.9972,-3.019,-3.0292,-3.0861,-3.1259,-3.1492,-3.2173,-3.2654,-3.2903,-3.3381,-3.3811,1.1047,0.0,0.9133,0.8874,0.8382,0.7988,0.7988,0.7988,0.7988,0.7988,0.7988,0.7988,0.7988,0.7988,0.7988,0.7988,0.8167,0.821,0.804,0.7372,0.652,0.5522,0.3805,0.2353,0.0,0.0505,0.0,0.0,0.0,-0.0112,-0.0393,-0.1569,-0.2687,-0.3636,-0.565,-0.6993,-0.7607,-0.8494,-0.8885,-0.8885,-0.8885,-0.8885,-0.8885,-0.9213,-0.9379,-0.9489,-1.0637,-1.1295,-1.1728,-1.3132,-1.4056,-1.4708,-1.5571,-1.6258,-1.6736,-1.7067,-1.7378,-1.7582,-1.7582,-1.7582,-1.7582,-1.7582,-1.7575,-1.7462,-1.6881,-1.67,-1.6573,-1.5992,-1.5784,-1.5784,-1.5784,-1.5784,-1.5879,-1.613,-1.6407,-1.6817,-1.7552,-1.8535,-1.9509,-2.0447,-2.1454,-2.2274,-2.2715,-2.2969,-2.3091,-2.3091,-2.3493,-2.396,-2.4456,-2.64,-2.8091,-2.9013,-2.9507,-2.9792,-2.9792,-2.9792,-2.9792,-2.9792,-2.9792,-2.9792,-2.9792,-2.9972,-3.0113,-3.0113,-3.0508,-3.0736,-3.0736,-3.1097,-3.1479,-3.1869,-3.2259,-3.2832,1.178,0.0,0.9377,0.8924,0.8382,0.7988,0.7988,0.7988,0.7988,0.7988,0.7988,0.7988,0.7988,0.7988,0.7988,0.7988,0.817,0.8168,0.7787,0.7273,0.6359,0.4972,0.3583,0.0,0.0,0.0,0.0,0.0,0.0,-0.0112,-0.0393,-0.1402,-0.2465,-0.358,-0.5425,-0.6824,-0.7607,-0.8439,-0.8885,-0.8885,-0.8885,-0.8885,-0.8885,-0.8995,-0.9051,-0.9103,-0.9706,-1.0147,-1.0472,-1.1341,-1.2159,-1.292,-1.3619,-1.4482,-1.5351,-1.5624,-1.6051,-1.6577,-1.7318,-1.7582,-1.7582,-1.7582,-1.7582,-1.7475,-1.6887,-1.6707,-1.658,-1.5992,-1.5784,-1.5784,-1.5784,-1.5784,-1.5825,-1.5927,-1.6123,-1.6501,-1.7106,-1.8118,-1.9217,-2.0192,-2.1329,-2.223,-2.2715,-2.2969,-2.3144,-2.3319,-2.3874,-2.4627,-2.5684,-2.6987,-2.8131,-2.9013,-2.9507,-2.9792,-2.9792,-2.9792,-2.9792,-2.9792,-2.9792,-2.9792,-2.9792,-2.9869,-2.9895,-2.9895,-3.0164,-3.0305,-3.0305,-3.0672,-3.0936,-3.106,-3.1192,-3.1473,1.1873,1.0609,0.9426,0.8825,0.8333,0.7988,0.7988,0.7988,0.7988,0.7988,0.7988,0.7988,0.7988,0.7988,0.7988,0.7988,0.8211,0.8225,0.7793,0.7421,0.6571,0.5031,0.3751,0.0,0.0,0.0,0.0,0.0,0.0,-0.0056,-0.0224,-0.1234,-0.2242,-0.3246,-0.5256,-0.6654,-0.7438,-0.8439,-0.8885,-0.8885,-0.8885,-0.8885,-0.8885,-0.8885,-0.8885,-0.894,-0.9268,-0.9489,-0.9706,-1.0308,-1.1021,-1.1728,-1.2323,-1.3295,-1.4326,-1.4606,-1.5083,-1.5719,-1.6677,-1.7001,-1.7001,-1.7001,-1.7054,-1.7055,-1.6424,-1.6406,-1.6437,-1.5855,-1.573,-1.5784,-1.5784,-1.5784,-1.5784,-1.5784,-1.5927,-1.6218,-1.6737,-1.7652,-1.875,-1.982,-2.1006,-2.2043,-2.2574,-2.2882,-2.3188,-2.346,-2.4003,-2.485,-2.6102,-2.7051,-2.7943,-2.8882,-2.9404,-2.9702,-2.9792,-2.9792,-2.9792,-2.9792,-2.9792,-2.9792,-2.9792,-2.9792,-2.9792,-2.9792,-2.9934,-2.9972,-2.9972,-3.0241,-3.0291,-3.0187,-3.0231,-3.0306,1.1287,1.0265,0.9476,0.868,0.8237,0.8038,0.8038,0.8038,0.8038,0.8038,0.8038,0.8038,0.8038,0.8038,0.8041,0.7988,0.8289,0.8377,0.8062,0.7771,0.7049,0.0,0.0,0.0,0.0,0.0,0.0,0.0,0.0,0.0,0.0,-0.1121,-0.2074,-0.2688,-0.5033,-0.6541,-0.721,-0.8325,-0.8885,-0.8885,-0.8885,-0.8885,-0.8885,-0.8885,-0.8885,-0.894,-0.9213,-0.9379,-0.9434,-0.9981,-1.0527,-1.1072,-1.1678,-1.2595,-1.3565,-1.3894,-1.4374,-1.4905,-1.5458,-1.5779,-1.5832,-1.5832,-1.6051,-1.6166,-1.561,-1.5853,-1.6145,-1.5656,-1.5635,-1.5784,-1.5784,-1.5784,-1.5784,-1.5784,-1.5784,-1.5967,-1.6487,-1.7185,-1.8056,-1.9255,-2.0538,-2.1624,-2.2309,-2.2784,-2.3188,-2.346,-2.3851,-2.4572,-2.5726,-2.664,-2.7592,-2.8673,-2.9145,-2.947,-2.9753,-2.9792,-2.9792,-2.9792,-2.9792,-2.9792,-2.9792,-2.9792,-2.9792,-2.9792,-2.9792,-2.9779,-2.9741,-2.9741,-2.9555,-2.9162,-2.9309,-2.9331,1.2316,1.1247,1.0314,0.9476,0.9084,0.8836,0.863,0.8577,0.8577,0.8577,0.8577,0.8531,0.8333,0.8287,0.8233,0.8038,0.8289,0.0,0.8062,0.7771,0.0,0.5868,0.0,0.3079,0.1795,0.0897,0.0,0.0,0.0,0.0,0.0,-0.0897,-0.1794,-0.2688,-0.4587,-0.6151,-0.721,-0.8325,-0.8885,-0.8885,-0.8885,-0.8885,-0.8885,-0.8885,-0.8885,-0.8885,-0.8992,-0.9047,-0.9047,-0.9213,-0.9485,-0.9871,-1.0202,-1.0798,-1.1505,-1.1778,-1.2159,-1.2486,-1.2649,-1.3835,-1.5232,-1.5232,-1.5446,-1.5624,-1.524,-1.5544,-1.5939,-1.5608,-1.5635,-1.5784,-1.5784,-1.5784,-1.5784,-1.5784,-1.5784,-1.5967,-1.6487,-1.7185,-1.8017,-1.9088,-2.0727,-2.2097,-2.2618,-2.2925,-2.3135,-2.3188,-2.346,-2.4143,-2.5443,-2.6393,-2.7348,-2.8247,-2.8843,-2.9275,-2.947,-2.9702,-2.9792,-2.9792,-2.9792,-2.9792,-2.9792,-2.9792,-2.9792,-2.9792,-2.9792,-2.9578,-2.9151,-2.9151,-2.8863,-2.8371,-2.8185,-2.8061,1.2559,1.1688,1.0949,1.0167,0.9821,0.9673,0.9373,0.9418,0.9422,0.9225,0.9225,0.0,0.8832,0.863,0.0,0.0,0.0,0.0,0.822,0.8094,0.7546,0.0,0.5144,0.0,0.2129,0.1233,0.0561,0.0,0.0,0.0,0.0,-0.0841,-0.1682,-0.2464,-0.4364,-0.6151,-0.7765,-0.8546,-0.8885,-0.8885,-0.8885,-0.8885,-0.8885,-0.8885,-0.8885,-0.8885,0.0,-0.8885,-0.8885,-0.8885,-0.9103,-0.9434,-0.9544,-0.9981,-1.0527,-1.0692,-1.0966,-1.1185,-1.1185,-1.2046,-1.3176,-1.3398,-1.3815,-1.4203,-1.3968,-1.4595,-1.5326,-1.5191,-1.5445,-1.5784,-1.5784,-1.5784,-1.5784,-1.5784,-1.5784,-1.5927,-1.6305,-1.6911,-1.7792,-1.9217,-2.0587,-2.1685,-2.2263,-2.2394,-2.244,-2.2545,-2.2758,-2.3267,-2.4221,-2.56,-2.6846,-2.7805,-2.8526,-2.9079,-2.938,-2.965,-2.9792,-2.9792,-2.9792,-2.9792,-2.9792,-2.9792,-2.9679,-2.9415,-2.9338,-2.9025,-2.8413,-2.8325,-2.8051,-2.7612,-2.7431,-2.7274,1.2705,1.2122,1.1731,1.09,1.0703,1.0654,1.031,1.0462,1.0462,1.0019,0.0,1.0068,0.9529,0.9175,0.8825,0.8528,0.0,0.8514,0.8479,0.8507,0.8023,0.6877,0.5986,0.4587,0.2464,0.1681,0.0953,0.0056,0.0,0.0,0.0,-0.0729,-0.1569,-0.2352,-0.4364,-0.6371,-0.8374,-0.8712,-0.8881,-0.8885,-0.8885,-0.8885,-0.8885,-0.8885,-0.8885,-0.8885,0.0,0.0,-0.8885,-0.8885,-0.9051,-0.9323,-0.9323,-0.9651,-1.0091,-1.0091,-1.0253,-1.0472,-1.0472,-1.0457,-1.0546,-1.1256,-1.1895,-1.2447,-1.2358,-1.336,-1.4489,-1.4521,-1.5064,-1.5635,-1.5635,-1.573,-1.5778,-1.5778,-1.5784,-1.5879,-1.6123,-1.6615,-1.7554,-1.9327,-2.02,-2.0827,-2.1526,-2.1545,-2.1598,-2.1885,-2.205,-2.2328,-2.2788,-2.4521,-2.6138,-2.7174,-2.8108,-2.8834,-2.9203,-2.946,-2.9564,-2.954,-2.9527,-2.9489,-2.9489,-2.9489,-2.9251,-2.8687,-2.8562,-2.8213,-2.7569,-2.7447,-2.7163,-2.6836,-2.6872,-2.6764,1.4106,1.3715,1.3323,1.249,1.2296,1.2204,1.1731,1.1688,0.0,0.0,1.1438,1.1145,1.0605,1.0117,0.0,0.8825,0.0,0.0,0.0,0.0,0.8032,0.0,0.0,0.0,0.0,0.0,0.0,0.0,0.0,0.0,0.0,-0.0336,-0.1401,-0.3301,-0.492,-0.6371,-0.7718,-0.8322,-0.8657,-0.8885,-0.8885,-0.8885,-0.8885,-0.8885,-0.8885,-0.8885,0.0,0.0,-0.8885,-0.8885,-0.8937,-0.8992,-0.8992,-0.9047,-0.9158,-0.9158,-0.9158,-0.9213,-0.9213,-0.9126,-0.9233,-1.0303,-1.1087,-1.1521,-1.1666,-1.248,-1.3397,-1.3633,-1.4292,-1.4879,-1.4879,-1.5213,-1.554,-1.554,-1.5683,-1.5879,-1.6123,-1.6718,-1.7447,-1.8383,-1.9198,-1.9942,-2.0683,-2.1188,-2.1598,-2.1885,-2.1926,-2.2091,-2.2533,-2.3876,-2.5161,-2.6095,-2.7243,-2.8044,-2.8248,-2.8416,-2.8422,-2.8151,-2.8002,-2.7916,-2.7916,-2.7916,-2.7816,-2.7556,-2.7556,-2.7163,-2.642,-2.653,-2.6418,-2.6081,-2.6268,-2.6392,1.464,1.4394,1.4202,1.3661,1.3511,1.342,1.3087,0.0,0.0,0.0,1.27,1.2408,1.1731,0.0,0.0,0.0,0.0,0.0,0.0,0.0,0.0,0.0,0.0,0.0,0.0,0.0,0.0,0.0,0.0,0.0,0.0,-0.0561,-0.1625,-0.3304,-0.4641,-0.5926,-0.7104,-0.7878,-0.8377,-0.8712,-0.8826,-0.8885,-0.8885,-0.8885,-0.8885,-0.8885,-0.8885,0.0,-0.8885,-0.8885,-0.8885,-0.8885,-0.8885,-0.8885,-0.8885,-0.8885,-0.8885,-0.8871,-0.8849,-0.8771,-0.8793,-0.9211,-0.9831,-1.0366,-1.0539,-1.152,-1.2604,-1.2829,-1.3474,-1.41,-1.4244,-1.4586,-1.4968,-1.5213,-1.5547,-1.5839,-1.5979,-1.6331,-1.6844,-1.7524,-1.8129,-1.882,-1.9868,-2.0313,-2.0659,-2.1161,-2.1241,-2.1321,-2.164,-2.2573,-2.3699,-2.5039,-2.6086,-2.6839,-2.7143,-2.7436,-2.7566,-2.7372,-2.7273,-2.7236,-2.7236,-2.7161,-2.6916,-2.6588,-2.6268,-2.5821,-2.5288,-2.5155,-2.517,-2.5264,-2.55,-2.5746,1.507,1.4927,1.4879,1.4634,1.4586,1.449,1.4202,1.4346,0.0,0.0,1.3806,1.3516,1.2851,0.0,0.0,0.0,0.0,0.0,0.0,0.0,0.0,0.0,0.0,0.0,0.0,0.0,0.0,0.0,0.0,0.0,0.0,-0.0729,-0.1626,-0.2801,-0.3918,-0.5144,-0.6434,-0.721,-0.7875,-0.8318,-0.8546,-0.8716,-0.8826,-0.8826,-0.8826,-0.8885,-0.8885,0.0,0.0,-0.8885,-0.8885,-0.8885,-0.8885,-0.8885,-0.8885,-0.8885,-0.8861,-0.8817,-0.8754,-0.8669,-0.8577,-0.8347,-0.8776,-0.9376,-0.9532,-1.0473,-1.1536,-1.1829,-1.2408,-1.3076,-1.3323,-1.3715,-1.4202,-1.4933,-1.5365,-1.5624,-1.5682,-1.5755,-1.6034,-1.6616,-1.7075,-1.7713,-1.8904,-1.9312,-1.9676,-2.0294,-2.045,-2.0615,-2.0819,-2.134,-2.2224,-2.3702,-2.477,-2.5547,-2.5978,-2.6318,-2.647,-2.6475,-2.6426,-2.64,-2.6363,-2.6202,-2.5851,-2.5292,-2.4825,-2.4434,-2.4118,-2.3849,-2.3984,-2.454,-2.4719,-2.5052,1.573,1.5689,1.5635,1.5445,1.5397,1.5302,1.5029,0.0,0.0,1.4981,1.4742,1.4442,1.3859,1.2942,1.1927,0.0,0.0,0.9071,0.0,0.0,0.0,0.0,0.0,0.0,0.0,0.0,0.0,0.0,0.0,0.0,0.0,-0.028,-0.0897,-0.1907,-0.2801,-0.3974,-0.5483,-0.6151,-0.6877,-0.7662,-0.7718,-0.7992,-0.854,-0.854,-0.8657,-0.8885,0.0,0.0,0.0,-0.8885,-0.8885,-0.8885,-0.8885,-0.8885,-0.8885,-0.8885,-0.8797,-0.873,-0.8716,-0.8533,-0.8357,-0.833,-0.8524,-0.8798,-0.8846,-0.9327,-0.9854,-1.0162,-1.0801,-1.1487,-1.1731,-1.25,-1.3511,-1.479,-1.5115,-1.514,-1.5398,-1.5208,-1.5127,-1.5555,-1.6094,-1.6811,-1.7701,-1.8531,-1.9201,-1.9645,-2.0029,-2.0381,-2.0605,-2.0848,-2.1208,-2.1701,-2.3296,-2.4442,-2.4752,-2.4842,-2.4846,-2.4726,-2.4581,-2.4374,-2.418,-2.418,-2.3889,-2.329,-2.3216,-2.3082,-2.2889,-2.3001,-2.3409,-2.3959,-2.4202,-2.454,1.5784,1.5784,1.5784,1.5683,1.5683,1.5635,1.5553,0.0,1.5499,1.5499,1.5356,1.5016,1.449,1.3522,1.2452,1.1243,1.0158,0.0,0.0,0.0,0.0,0.0,0.0,0.0,0.0,0.0,0.0,0.0,0.0,0.0,0.0,-0.0168,-0.0673,-0.1234,-0.213,-0.3026,-0.403,-0.4977,-0.5759,-0.6265,-0.6824,-0.7157,-0.7435,-0.7598,-0.7765,-0.7878,0.0,0.0,0.0,-0.8269,-0.838,-0.838,-0.838,-0.8439,-0.8532,-0.8532,-0.8545,-0.856,-0.8476,-0.837,-0.8255,-0.8163,-0.818,-0.8317,-0.8499,-0.8928,-0.9377,-0.948,-0.9871,-1.0364,-1.0757,-1.196,-1.3327,-1.4146,-1.4687,-1.4969,-1.4899,-1.4733,-1.4779,-1.5184,-1.5531,-1.6173,-1.7318,-1.8014,-1.8616,-1.9311,-1.9784,-2.0137,-2.0381,-2.0615,-2.0809,-2.1099,-2.209,-2.2843,-2.3059,-2.3349,-2.346,-2.3409,-2.3446,-2.3372,-2.3187,-2.3075,-2.2815,-2.2478,-2.2214,-2.2101,-2.2138,-2.2101,-2.2327,-2.2815,-2.3139,-2.346,1.5927,1.5927,1.5879,1.5832,1.5784,1.5784,0.0,0.0,1.5784,1.5784,1.5689,1.5445,1.5022,1.4094,1.3076,1.1819,1.0694,0.9726,0.0,0.0,0.0,0.0,0.0,0.0,0.0,0.0,0.0,0.0,0.0,0.0,0.0,0.0112,-0.0336,-0.0729,-0.1458,-0.2131,-0.269,-0.3638,-0.4362,-0.4868,-0.5481,-0.5986,-0.6323,-0.6543,-0.6765,-0.6932,0.0,0.0,0.0,-0.7392,-0.7486,-0.7483,-0.7558,-0.7654,-0.7788,-0.7842,-0.7915,-0.7985,-0.794,-0.7932,-0.788,-0.7875,-0.7892,-0.7942,-0.8187,-0.8535,-0.8836,-0.8836,-0.9084,-0.9509,-1.0143,-1.1429,-1.2714,-1.3525,-1.4139,-1.4559,-1.4522,-1.4449,-1.45,-1.4832,-1.5075,-1.556,-1.6706,-1.7318,-1.7885,-1.8696,-1.9301,-1.9745,-2.0029,-2.0342,-2.0576,-2.078,-2.1195,-2.1568,-2.1921,-2.2176,-2.2365,-2.244,-2.2553,-2.2553,-2.2365,-2.2214,-2.1987,-2.1769,-2.1474,-2.1397,-2.154,-2.1397,-2.154,-2.1911,-2.2214,-2.2478,1.6265,1.6224,1.613,1.5879,1.5784,1.5784,0.0,1.5784,1.5784,1.5784,1.5784,1.573,1.554,1.4825,1.3956,1.2877,1.1624,0.0,0.0,0.0,0.0,0.0,0.0,0.0,0.0,0.0,0.0,0.0,0.0,0.0,0.0,0.0561,0.0168,-0.0393,-0.0729,-0.1177,-0.1795,-0.2073,-0.2686,-0.3636,-0.3636,-0.425,-0.5427,-0.5427,-0.5761,0.0,0.0,0.0,0.0,-0.6257,-0.6214,-0.6258,-0.6419,-0.6534,-0.6534,-0.6804,-0.6832,-0.6776,-0.7027,-0.6997,-0.6895,-0.7447,-0.7596,-0.7646,-0.7942,-0.7988,-0.7988,-0.7988,-0.8382,-0.903,-0.9874,-1.0682,-1.1576,-1.2888,-1.3359,-1.3686,-1.4348,-1.4295,-1.4166,-1.4356,-1.4566,-1.4901,-1.5609,-1.6278,-1.6935,-1.7619,-1.8465,-1.9161,-1.9566,-2.0029,-2.0381,-2.0566,-2.0605,-2.0838,-2.1464,-2.1502,-2.1589,-2.1807,-2.1807,-2.1731,-2.1512,-2.1502,-2.132,-2.0906,-2.0906,-2.0906,-2.0906,-2.0906,-2.1099,-2.1512,-2.1502,-2.1731,1.7232,1.7099,1.6918,1.669,1.6595,1.6501,1.617,1.6076,1.6028,1.5832,1.5784,1.573,1.554,1.4968,1.4202,1.3167,1.2063,0.0,0.0,0.0,0.0,0.0,0.0,0.0,0.0,0.0,0.0,0.0,0.0,0.0,0.0,0.1121,0.0449,-0.0112,-0.0393,-0.0673,-0.0841,-0.1346,-0.1737,-0.2017,-0.2464,-0.2855,-0.3246,-0.347,0.0,0.0,0.0,0.0,0.0,-0.4805,-0.4983,-0.4981,-0.5059,-0.5219,-0.5473,-0.5579,-0.5774,-0.5939,-0.604,-0.6168,-0.6292,-0.6442,-0.6642,-0.6789,-0.6886,-0.7437,-0.7988,-0.7988,-0.8164,-0.8556,-0.9176,-0.9966,-1.0835,-1.1844,-1.2582,-1.318,-1.3827,-1.3887,-1.3948,-1.4314,-1.444,-1.4727,-1.5394,-1.5775,-1.6312,-1.7172,-1.7893,-1.8536,-1.9121,-1.9557,-1.9951,-2.0342,-2.0381,-2.0537,-2.0838,-2.1012,-2.1138,-2.1167,-2.132,-2.132,-2.1099,-2.1089,-2.0974,-2.0693,-2.0693,-2.0693,-2.0693,-2.0693,-2.0809,-2.1089,-2.1089,-2.132,0.0,1.801,1.7785,1.7488,1.7347,0.0,0.0,1.6548,1.6414,1.6028,1.5927,1.5879,1.5635,1.5261,1.4682,1.3703,1.2791,0.0,0.0,0.0,0.0,0.0,0.0,0.0,0.0,0.0,0.0,0.0,0.0,0.0,0.0,0.0,0.1121,0.0505,0.0,-0.0224,-0.0224,-0.0617,-0.0841,-0.0953,-0.1345,-0.1625,-0.1849,-0.2059,0.0,0.0,0.0,0.0,0.0,-0.3236,-0.3369,-0.3367,-0.3449,-0.3674,-0.389,-0.3993,-0.4168,-0.4431,-0.463,-0.4782,-0.5035,-0.5438,-0.5787,-0.6137,-0.6239,-0.6839,-0.758,-0.7724,-0.7843,-0.8035,-0.8623,-0.925,-0.9981,-1.0977,-1.1762,-1.2421,-1.3168,-1.3476,-1.3688,-1.4062,-1.4237,-1.4447,-1.4936,-1.5193,-1.5609,-1.6435,-1.7033,-1.7691,-1.8425,-1.8873,-1.9271,-1.9754,-1.9863,-1.9981,-2.0089,-2.0537,-2.078,-2.078,-2.0886,-2.0935,-2.078,-2.078,-2.0731,-2.0605,-2.0605,-2.0605,-2.0605,-2.0605,-2.0654,-2.078,-2.078,-2.0935,0.0,1.9018,0.0,0.0,0.0,0.0,1.7466,1.7246,0.0,1.6407,1.6272,1.617,1.5879,1.5635,1.5255,1.449,0.0,0.0,0.0,0.0,0.0,0.0,0.0,0.0,0.0,0.0,0.0,0.0,0.0,0.0,0.0,0.0,0.2012,0.1453,0.0614,0.0112,0.0056,0.0,-0.0112,-0.0392,-0.0391,-0.0671,-0.1229,-0.1209,0.0,0.0,0.0,0.0,0.0,-0.1668,-0.1656,-0.1653,-0.1828,-0.1917,-0.1967,-0.222,-0.232,-0.2421,-0.2923,-0.3123,-0.3274,-0.428,-0.4979,-0.5475,-0.5727,-0.6279,-0.6854,-0.7271,-0.7366,-0.7528,-0.8176,-0.854,-0.9024,-1.0202,-1.0847,-1.1451,-1.24,-1.3009,-1.3392,-1.361,-1.387,-1.4124,-1.4356,-1.4566,-1.4901,-1.5567,-1.6023,-1.664,-1.7489,-1.7934,-1.8385,-1.8873,-1.9112,-1.9222,-1.9262,-2.001,-2.0527,-2.0527,-2.0527,-2.0527,-2.0527,-2.0527,-2.0566,-2.0566,-2.0566,-2.0527,-2.0527,-2.0527,-2.0527,-2.0527,-2.0527,-2.0527,2.149,0.0,2.0357,1.992,1.9737,1.9455,0.0,1.8249,1.7885,1.7185,0.0,1.64,1.617,1.5784,1.535,0.0,0.0,0.0,0.0,0.0,0.0,0.0,0.0,0.0,0.0,0.0,0.0,0.0,0.0,0.0,0.0,0.0,0.3072,0.2531,0.1886,0.1147,0.0336,0.0111,-0.0055,-0.011,-0.0109,-0.0162,-0.0324,-0.0323,0.0,0.0,0.0,0.0,-0.073,-0.0922,-0.1016,-0.1016,-0.1062,-0.1212,-0.1414,-0.1465,-0.1615,-0.1815,-0.1915,-0.2117,-0.2369,-0.2823,-0.3195,-0.3552,-0.3942,-0.517,-0.6488,-0.6946,-0.7083,-0.7231,-0.7749,-0.7956,-0.8295,-0.9292,-0.9893,-1.0549,-1.1671,-1.2314,-1.2747,-1.3137,-1.3525,-1.3864,-1.4124,-1.4321,-1.465,-1.5166,-1.5484,-1.5891,-1.6599,-1.6911,-1.735,-1.8167,-1.8287,-1.8447,-1.8816,-1.9301,-1.9618,-1.9618,-1.9745,-1.9833,-1.9833,-1.9981,-2.0059,-2.0059,-2.0059,-1.999,-1.9833,-1.9833,-1.9754,-1.9618,-1.9745,-1.9833,2.2574,2.2033,2.141,2.106,2.0871,2.0591,1.9803,1.9347,1.8842,0.0,0.0,0.0,0.0,0.0,0.0,0.0,0.0,0.0,0.0,0.0,0.0,0.0,0.0,0.0,0.0,0.0,0.0,0.0,0.0,0.0,0.0,0.0,0.4307,0.3879,0.3032,0.1988,0.0767,0.0597,0.0433,0.0162,0.0161,0.0107,0.0,0.0,0.0,0.0,0.0,0.0,-0.0205,-0.0355,-0.0455,-0.0455,-0.0455,-0.0505,-0.0657,-0.0657,-0.0757,-0.0908,-0.1009,-0.1312,-0.1663,-0.1799,-0.2127,-0.2498,-0.3007,-0.4034,-0.5289,-0.6236,-0.6656,-0.6943,-0.7465,-0.7652,-0.7852,-0.8588,-0.9117,-0.9689,-1.0554,-1.137,-1.2015,-1.2491,-1.3137,-1.3652,-1.387,-1.4117,-1.437,-1.4741,-1.4859,-1.5151,-1.5741,-1.5974,-1.6329,-1.6862,-1.7066,-1.7229,-1.748,-1.7723,-1.8167,-1.8975,-1.9143,-1.9231,-1.932,-1.9439,-1.9469,-1.9469,-1.9469,-1.939,-1.9192,-1.9192,-1.9143,-1.9024,-1.9231,-1.9359,2.3091,2.2706,2.2185,2.1909,2.1722,2.149,2.0952,0.0,0.0,0.0,0.0,0.0,0.0,0.0,0.0,0.0,0.0,0.0,0.0,0.0,0.0,0.0,0.0,0.0,0.0,0.0,0.0,0.0,0.0,0.0,0.0,0.0,0.0,0.5214,0.4218,0.306,0.1742,0.1482,0.1114,0.0637,0.0583,0.0476,0.0264,0.026,0.0258,0.0,0.0,0.0,0.0252,0.0252,0.0252,0.0252,0.0202,0.0202,0.0152,0.0101,0.0051,0.0,-0.0252,-0.0654,-0.1003,-0.1033,-0.1366,-0.1892,-0.2336,-0.2993,-0.3866,-0.5235,-0.6056,-0.6669,-0.7228,-0.7418,-0.7547,-0.7984,-0.8424,-0.8863,-0.934,-1.0289,-1.1198,-1.1671,-1.2491,-1.3179,-1.3392,-1.3695,-1.3948,-1.4188,-1.4188,-1.4398,-1.488,-1.5117,-1.5318,-1.5575,-1.5809,-1.5974,-1.5974,-1.5974,-1.6617,-1.8086,-1.8327,-1.8496,-1.8754,-1.8754,-1.8754,-1.8754,-1.8754,-1.8625,-1.8376,-1.8376,-1.8376,-1.8336,-1.8585,-1.8825,2.3091,2.3013,2.2882,2.2662,2.2618,2.2441,2.1963,2.1499,0.0,0.0,0.0,0.0,0.0,0.0,0.0,0.0,0.0,0.0,0.0,0.0,0.0,0.0,0.0,0.0,0.0,0.0,0.0,0.0,0.0,0.0,0.0,0.0,0.0,0.6186,0.5787,0.5179,0.4266,0.2684,0.1822,0.177,0.1538,0.1373,0.1373,0.1369,0.1367,0.0,0.0,0.1361,0.1361,0.1361,0.1361,0.1311,0.1111,0.101,0.096,0.0505,0.0354,0.0302,0.005,-0.0099,-0.0197,-0.0193,-0.0521,-0.0933,-0.1256,-0.2152,-0.3196,-0.4002,-0.5168,-0.6287,-0.6802,-0.7013,-0.7231,-0.7547,-0.7812,-0.8113,-0.8544,-0.9292,-0.999,-1.0467,-1.1327,-1.2015,-1.2229,-1.2619,-1.3003,-1.3264,-1.3307,-1.3519,-1.4166,-1.4292,-1.4545,-1.5124,-1.5208,-1.5325,-1.5477,-1.5519,-1.5643,-1.5884,-1.6617,-1.7188,-1.7642,-1.7642,-1.7642,-1.7642,-1.7642,-1.7432,-1.7025,-1.7025,-1.6911,-1.6755,-1.7123,-1.7529,2.3319,2.3232,2.3091,2.2969,2.2969,2.2882,2.2539,2.222,0.0,0.0,0.0,0.0,0.0,0.0,0.0,0.0,0.0,0.0,0.0,0.0,0.0,0.0,0.0,0.0,0.0,0.0,0.0,0.0,0.0,0.0,0.0,0.0,0.0,0.0,0.6642,0.6242,0.5889,0.4723,0.3673,0.2654,0.253,0.2318,0.2017,0.2017,0.2017,0.2017,0.0,0.2017,0.2017,0.2017,0.2017,0.2017,0.1917,0.1767,0.1562,0.1148,0.0995,0.0992,0.0827,0.0676,0.0578,0.0614,0.0186,-0.0369,-0.0639,-0.1446,-0.242,-0.2999,-0.4385,-0.5816,-0.6305,-0.6659,-0.6969,-0.7105,-0.737,-0.768,-0.7896,-0.8644,-0.9297,-0.9632,-1.0587,-1.137,-1.1585,-1.2015,-1.2357,-1.2491,-1.2619,-1.2881,-1.3307,-1.3483,-1.3737,-1.4286,-1.4328,-1.4454,-1.4699,-1.4699,-1.4908,-1.5352,-1.5884,-1.6263,-1.6468,-1.6624,-1.6624,-1.646,-1.646,-1.6337,-1.6008,-1.6008,-1.6015,-1.6023,-1.636,-1.6804,2.3754,2.357,2.344,2.3363,2.3232,2.3057,2.2925,2.2662,0.0,0.0,0.0,0.0,0.0,0.0,0.0,0.0,0.0,0.0,0.0,0.0,0.0,0.0,0.0,0.0,0.0,0.0,0.0,0.0,0.0,0.0,0.0,0.0,0.0,0.0,0.7391,0.7092,0.6995,0.6595,0.5536,0.3877,0.3776,0.3525,0.3124,0.3124,0.3124,0.3124,0.3124,0.3124,0.3123,0.311,0.3104,0.3103,0.2941,0.2587,0.2186,0.1911,0.1755,0.1653,0.162,0.1467,0.1368,0.1294,0.0827,0.0183,-0.0135,-0.0852,-0.1659,-0.2106,-0.3448,-0.4877,-0.5589,-0.6169,-0.6571,-0.6615,-0.7017,-0.7326,-0.7326,-0.7988,-0.8644,-0.8846,-0.9715,-1.0458,-1.0717,-1.1058,-1.1365,-1.1494,-1.1671,-1.1929,-1.2314,-1.2619,-1.2924,-1.3349,-1.3434,-1.3568,-1.3743,-1.3779,-1.4068,-1.472,-1.5144,-1.5401,-1.5443,-1.5643,-1.5684,-1.5484,-1.5484,-1.536,-1.5186,-1.5186,-1.5228,-1.5401,-1.5665,-1.6113,2.4509,2.4413,2.4337,2.4153,2.3624,2.3091,2.3091,2.2925,0.0,2.2397,0.0,0.0,0.0,0.0,0.0,0.0,0.0,0.0,0.0,0.0,0.0,0.0,0.0,0.0,0.0,0.0,0.0,0.0,0.0,0.0,0.0,0.0,0.0,0.0,0.0,0.8038,0.7547,0.7497,0.6895,0.5789,0.5536,0.5384,0.5384,0.5384,0.5384,0.5384,0.5384,0.5384,0.5377,0.5232,0.5194,0.5136,0.4516,0.3677,0.2821,0.2818,0.2529,0.2141,0.2144,0.213,0.2077,0.181,0.1438,0.0944,0.0493,-0.0179,-0.0897,-0.1345,-0.2061,-0.3044,-0.4427,-0.5272,-0.5855,-0.6083,-0.6526,-0.684,-0.684,-0.7238,-0.768,-0.7852,-0.8328,-0.8763,-0.9021,-0.9235,-0.954,-0.9985,-1.0072,-1.0419,-1.1278,-1.1628,-1.1977,-1.2448,-1.2662,-1.279,-1.279,-1.279,-1.2833,-1.2869,-1.3886,-1.4566,-1.4776,-1.4776,-1.4776,-1.4776,-1.4776,-1.4692,-1.4475,-1.4475,-1.4482,-1.4517,-1.4692,-1.5068,2.539,2.5137,2.4935,2.4828,2.4519,0.0,0.0,2.3276,2.3101,2.2706,2.253,0.0,0.0,0.0,0.0,0.0,0.0,0.0,0.0,0.0,0.0,0.0,0.0,0.0,0.0,0.0,0.0,0.0,0.0,0.0,0.0,0.0,0.0,0.0,0.0,0.8674,0.8483,0.8483,0.8287,0.7852,0.6729,0.6131,0.5984,0.5863,0.583,0.583,0.583,0.583,0.5828,0.5784,0.5764,0.5714,0.5289,0.4894,0.4557,0.4361,0.4156,0.4003,0.3966,0.3758,0.3484,0.3187,0.2597,0.1927,0.1614,0.0897,0.0134,-0.0045,-0.0717,-0.1702,-0.3178,-0.4206,-0.4875,-0.5186,-0.5589,-0.5971,-0.6197,-0.6526,-0.6847,-0.7055,-0.7497,-0.7909,-0.8271,-0.8506,-0.872,-0.9056,-0.9147,-0.9368,-0.9961,-1.0218,-1.059,-1.1258,-1.1778,-1.2086,-1.2086,-1.2184,-1.2272,-1.2272,-1.2954,-1.3379,-1.3464,-1.347,-1.347,-1.347,-1.3639,-1.3688,-1.3597,-1.3857,-1.4033,-1.4201,-1.4398,-1.4776,2.6505,2.6268,2.5977,2.5852,0.0,0.0,2.4348,2.3841,2.3503,2.311,2.2785,0.0,0.0,0.0,0.0,0.0,0.0,0.0,0.0,0.0,0.0,0.0,0.0,0.0,0.0,0.0,0.0,0.0,0.0,0.0,0.0,0.0,0.0,0.0,0.0,0.9368,0.9232,0.9232,0.9232,0.9228,0.8066,0.7359,0.7068,0.6972,0.6929,0.6929,0.6929,0.6929,0.6926,0.6882,0.6793,0.666,0.638,0.6195,0.6045,0.5646,0.5481,0.538,0.5258,0.501,0.4699,0.434,0.3758,0.3089,0.2645,0.1973,0.1343,0.1068,0.0444,-0.0399,-0.1495,-0.2779,-0.3811,-0.403,-0.4583,-0.5068,-0.5333,-0.5656,-0.5969,-0.6175,-0.6529,-0.6888,-0.7165,-0.7398,-0.7562,-0.7759,-0.7893,-0.8115,-0.8568,-0.8698,-0.9023,-0.9674,-1.0177,-1.0522,-1.0522,-1.0663,-1.0794,-1.0794,-1.109,-1.1632,-1.2437,-1.2485,-1.2485,-1.2485,-1.2662,-1.279,-1.2881,-1.3179,-1.3483,-1.3786,-1.3942,-1.4237,2.7891,2.7799,2.773,0.0,0.0,0.0,2.5737,2.4637,2.3744,2.3537,0.0,0.0,0.0,0.0,0.0,0.0,0.0,0.0,0.0,0.0,0.0,0.0,0.0,0.0,0.0,0.0,0.0,0.0,0.0,0.0,0.0,0.0,0.0,0.0,0.0,0.0,0.9731,0.9731,0.9731,0.9727,0.9576,0.9362,0.8999,0.8995,0.8995,0.8995,0.8995,0.8995,0.8983,0.8847,0.858,0.8197,0.7937,0.754,0.7051,0.6605,0.6302,0.6083,0.5811,0.5719,0.563,0.5186,0.4872,0.4514,0.3535,0.309,0.2764,0.1966,0.1389,0.095,0.0676,-0.0938,-0.2514,-0.2732,-0.3496,-0.4195,-0.4193,-0.4652,-0.5072,-0.5069,-0.5282,-0.5493,-0.5493,-0.5657,-0.5862,-0.6076,-0.6239,-0.6564,-0.7022,-0.7139,-0.7293,-0.754,-0.7741,-0.7902,-0.7906,-0.8078,-0.8205,-0.8205,-0.8205,-0.9326,-1.1858,-1.1966,-1.1966,-1.1966,-1.1972,-1.21,-1.2363,-1.2406,-1.2619,-1.3094,-1.3094,-1.3307,2.8514,2.8395,0.0,2.8127,0.0,0.0,0.0,2.5267,0.0,0.0,0.0,0.0,0.0,0.0,0.0,0.0,0.0,0.0,0.0,0.0,0.0,0.0,0.0,0.0,0.0,0.0,0.0,0.0,0.0,0.0,0.0,0.0,0.0,0.0,0.0,0.0,1.1312,1.1312,1.1312,1.1312,1.1287,1.0578,0.9345,0.9208,0.9144,0.9144,0.9144,0.9144,0.914,0.9084,0.9024,0.889,0.8803,0.8627,0.8364,0.8233,0.8013,0.7801,0.7533,0.7287,0.6937,0.6334,0.5752,0.5212,0.4574,0.4018,0.3546,0.331,0.2711,0.2074,0.181,0.0792,-0.0374,-0.1352,-0.2067,-0.2633,-0.3,-0.3234,-0.3504,-0.4092,-0.4241,-0.4423,-0.478,-0.4915,-0.5063,-0.5352,-0.5372,-0.5407,-0.5598,-0.5777,-0.589,-0.5969,-0.6421,-0.6764,-0.6921,-0.7275,-0.7551,-0.7679,-0.772,-0.8263,-0.9497,-0.9634,-0.9757,-0.9889,-1.0297,-1.0549,-1.0636,-1.1284,-1.1714,-1.1843,-1.2363,-1.2662,2.9209,2.9104,0.0,2.8626,2.8279,2.7722,2.6585,0.0,0.0,0.0,0.0,0.0,0.0,0.0,0.0,0.0,0.0,0.0,0.0,0.0,0.0,0.0,0.0,0.0,0.0,0.0,0.0,0.0,0.0,0.0,0.0,0.0,0.0,0.0,0.0,1.2778,1.2693,1.2485,1.24,1.24,1.24,1.1873,1.0867,1.0512,1.0318,1.0318,1.0318,1.0318,1.0318,1.0318,1.0318,1.0274,1.0101,0.988,0.9637,0.9293,0.9034,0.8802,0.8422,0.8098,0.7758,0.7291,0.6724,0.6194,0.5737,0.5152,0.4643,0.4435,0.3806,0.3139,0.2786,0.2063,0.1088,-0.0247,-0.0948,-0.1427,-0.1848,-0.2081,-0.235,-0.2829,-0.2978,-0.3149,-0.3472,-0.3641,-0.3821,-0.4033,-0.4114,-0.4135,-0.4036,-0.4105,-0.4142,-0.3984,-0.4432,-0.4827,-0.5026,-0.5531,-0.5944,-0.6152,-0.623,-0.6472,-0.6954,-0.7867,-0.8417,-0.8635,-0.9001,-0.9269,-0.9436,-0.999,-1.0421,-1.0766,-1.1198,-1.1628,2.9792,0.0,0.0,2.8811,0.0,0.0,0.0,0.0,0.0,0.0,0.0,0.0,0.0,0.0,0.0,0.0,0.0,0.0,0.0,0.0,0.0,0.0,0.0,0.0,0.0,0.0,0.0,0.0,0.0,0.0,0.0,0.0,0.0,0.0,1.4308,1.4085,1.3794,1.3345,1.314,0.0,1.314,1.314,1.314,1.2462,1.2169,1.2151,1.2151,1.2134,1.2074,1.2074,1.2074,1.2031,1.1562,1.1255,1.0903,1.01,0.9644,0.9318,0.8832,0.8537,0.8319,0.8069,0.7734,0.7357,0.686,0.6407,0.5926,0.5442,0.4844,0.4261,0.374,0.3017,0.2089,0.0847,0.004,-0.051,-0.0707,-0.1138,-0.145,-0.1489,-0.1686,-0.1803,-0.1843,-0.2118,-0.2354,-0.2314,-0.2624,-0.2741,-0.2352,-0.2275,-0.2117,-0.1763,-0.2078,-0.2392,-0.2628,-0.3253,-0.3724,-0.3921,-0.4112,-0.4307,-0.4504,-0.6475,-0.7614,-0.7827,-0.7885,-0.8056,-0.8429,-0.8514,-0.8896,-0.9625,-0.9735,-1.0216,2.9792,2.9465,0.0,0.0,0.0,0.0,0.0,0.0,0.0,0.0,0.0,0.0,0.0,0.0,0.0,0.0,0.0,0.0,0.0,0.0,0.0,0.0,0.0,0.0,0.0,0.0,0.0,0.0,0.0,0.0,0.0,0.0,0.0,1.5279,1.5223,1.4937,1.441,1.4291,1.4212,0.0,1.4099,1.4132,1.4226,1.3627,1.3287,1.3159,1.3159,1.3031,1.2785,1.2597,1.2562,1.2522,1.228,1.2041,1.1791,1.1462,1.1145,1.0858,1.0258,0.9938,0.9666,0.8988,0.861,0.8294,0.7711,0.736,0.7082,0.6815,0.6291,0.5659,0.524,0.4535,0.3684,0.272,0.1496,0.051,0.0314,-0.0039,-0.0432,-0.0746,-0.0982,-0.1178,-0.1375,-0.1335,-0.1177,-0.1019,-0.1096,-0.1057,-0.0823,-0.0627,-0.0509,-0.0431,-0.0784,-0.1097,-0.1293,-0.192,-0.239,-0.2582,-0.2778,-0.3012,-0.3209,-0.4703,-0.5633,-0.5829,-0.6138,-0.6335,-0.6405,-0.6944,-0.7295,-0.7495,-0.8348,-0.8841,2.9644,0.0,0.0,2.8356,0.0,0.0,0.0,0.0,0.0,0.0,0.0,0.0,0.0,0.0,0.0,0.0,0.0,0.0,0.0,0.0,0.0,0.0,0.0,0.0,0.0,0.0,0.0,0.0,0.0,0.0,0.0,1.7127,1.6834,1.6419,1.6217,1.5973,1.5674,1.5242,1.5011,1.4933,1.4933,1.5173,1.5613,1.4685,1.4221,1.4186,1.4186,1.4054,1.3906,1.3796,1.3764,1.3724,1.3416,1.3165,1.2914,1.2538,1.2221,1.1914,1.1483,1.1162,1.0854,1.0428,0.9888,0.9344,0.9036,0.8546,0.8055,0.7944,0.7476,0.6857,0.6468,0.5815,0.5118,0.4455,0.2937,0.1569,0.1177,0.0902,0.0667,0.0353,0.0236,0.0118,-0.0039,0.0078,0.0157,0.0118,0.0235,0.0392,0.0587,0.0705,0.0784,0.0901,0.0627,0.0352,0.0157,-0.0392,-0.0783,-0.0977,-0.1211,-0.1367,-0.1445,-0.2175,-0.3104,-0.43,-0.4551,-0.4809,-0.5071,-0.5437,-0.5794,-0.6188,-0.685,-0.7308,2.9481,0.0,2.8311,0.0,0.0,0.0,0.0,0.0,0.0,0.0,0.0,0.0,0.0,0.0,0.0,0.0,0.0,0.0,0.0,0.0,0.0,0.0,0.0,0.0,0.0,0.0,0.0,0.0,0.0,0.0,1.8233,1.789,1.7646,1.7546,1.7173,1.6923,1.6854,1.6109,1.5753,1.5791,1.5829,1.6259,1.6882,1.5853,1.5347,1.5219,1.5219,1.5187,1.5133,1.5095,1.5057,1.5026,1.4613,1.4327,1.4074,1.3483,1.314,1.2922,1.2666,1.2335,1.204,1.1922,1.1335,1.0588,1.0475,0.9836,0.9117,0.9079,0.8623,0.8089,0.7698,0.7084,0.6468,0.6044,0.4572,0.3054,0.2272,0.1997,0.1842,0.1649,0.1531,0.1492,0.1531,0.1529,0.1489,0.1409,0.1606,0.1802,0.2037,0.2077,0.2155,0.2311,0.2155,0.1958,0.1802,0.137,0.1017,0.0859,0.0663,0.0546,0.0546,0.0546,-0.039,-0.2341,-0.2694,-0.3117,-0.3624,-0.3744,-0.4146,-0.4881,-0.5234,-0.5741,0.0,0.0,0.0,0.0,0.0,0.0,0.0,0.0,0.0,0.0,0.0,0.0,0.0,0.0,0.0,0.0,0.0,0.0,0.0,0.0,0.0,0.0,0.0,0.0,0.0,0.0,0.0,0.0,0.0,0.0,1.9199,1.8995,1.8674,1.8169,1.7784,1.7403,1.7072,1.6818,1.6764,1.6877,1.7234,1.7382,1.7332,1.7332,1.7034,1.6571,1.6571,1.6371,1.6104,1.5801,1.5694,1.5623,1.5237,1.506,1.4976,1.4529,1.4353,1.4243,1.3753,1.3571,1.3426,1.2908,1.2549,1.2187,1.1669,1.1143,1.0738,1.0588,1.0062,0.9571,0.9334,0.8685,0.7961,0.7383,0.6777,0.589,0.4341,0.3558,0.3088,0.2896,0.243,0.2195,0.2546,0.2469,0.2588,0.3292,0.3448,0.3604,0.3992,0.4031,0.4031,0.407,0.3873,0.3754,0.3715,0.3283,0.3007,0.3007,0.281,0.2694,0.2694,0.2694,0.2382,0.172,0.0117,-0.0743,-0.0824,-0.1413,-0.1926,-0.2406,-0.3303,-0.4068,2.9289,0.0,0.0,0.0,0.0,0.0,0.0,0.0,0.0,0.0,0.0,0.0,0.0,0.0,0.0,0.0,0.0,0.0,0.0,0.0,0.0,0.0,0.0,0.0,0.0,0.0,0.0,0.0,0.0,1.9932,1.9862,1.9547,1.9209,1.8859,1.864,1.8345,1.8046,1.7891,1.7881,1.8031,1.821,1.8355,1.8455,1.8476,1.7974,1.7147,1.7147,1.7107,1.7079,1.6811,1.6777,1.6802,1.642,1.628,1.6237,1.5983,1.5807,1.5675,1.5463,1.5188,1.4867,1.4601,1.4099,1.3484,1.3091,1.2579,1.2063,1.1885,1.1558,1.1186,1.0875,1.0415,0.9916,0.9314,0.8941,0.8523,0.7677,0.6178,0.491,0.4722,0.445,0.4292,0.4368,0.4373,0.453,0.4921,0.5079,0.5198,0.5389,0.5389,0.5389,0.5389,0.5309,0.527,0.527,0.5074,0.4955,0.4955,0.4874,0.4836,0.4836,0.4836,0.4758,0.4567,0.238,0.1094,0.0781,0.0469,0.0039,-0.0508,-0.1303,-0.2023,0.0,0.0,0.0,0.0,0.0,0.0,0.0,0.0,0.0,0.0,0.0,0.0,0.0,0.0,0.0,0.0,0.0,0.0,0.0,0.0,0.0,0.0,0.0,0.0,0.0,0.0,0.0,0.0,0.0,2.0564,2.0564,2.0205,1.9911,1.9759,1.9485,1.933,1.9264,1.9177,1.9233,1.9387,1.9486,1.9617,1.9759,1.9639,1.911,1.8216,1.7978,1.7978,1.8104,1.7935,1.7978,1.807,1.7721,1.7584,1.755,1.7379,1.7207,1.7079,1.6985,1.6664,1.628,1.621,1.5631,1.4914,1.47,1.4127,1.3513,1.3346,1.3025,1.2666,1.2365,1.2057,1.1712,1.123,1.0969,1.0634,1.0034,0.8324,0.6873,0.6723,0.65,0.6307,0.6224,0.6265,0.6384,0.6573,0.6731,0.6888,0.6965,0.7003,0.7003,0.7003,0.7003,0.7003,0.7003,0.7003,0.6969,0.693,0.693,0.6892,0.6853,0.6815,0.6853,0.685,0.5057,0.3699,0.2768,0.2613,0.2222,0.1637,0.0897,0.0156,0.0,0.0,0.0,0.0,0.0,0.0,0.0,0.0,0.0,0.0,0.0,0.0,0.0,0.0,0.0,0.0,0.0,0.0,0.0,0.0,0.0,0.0,0.0,0.0,0.0,0.0,0.0,0.0,0.0,2.1537,2.1537,2.1198,2.1028,2.0996,2.0387,2.0204,2.0506,2.0805,2.0965,2.0996,2.1302,2.1302,2.0996,2.0996,2.0784,2.041,1.9573,1.9199,1.9233,1.9199,1.9199,1.921,1.8967,1.8911,1.8877,1.8543,1.8398,1.8365,1.8037,1.7765,1.756,1.7379,1.706,1.6724,1.6532,1.5895,1.5269,1.5269,1.4601,1.3897,1.3897,1.3491,1.3047,1.2828,1.2602,1.2,1.028,0.9346,0.886,0.8822,0.8067,0.754,0.7889,0.7655,0.7689,0.8447,0.8561,0.8718,0.9107,0.9145,0.9145,0.9145,0.9145,0.9145,0.9145,0.9145,0.9069,0.8884,0.8846,0.877,0.8585,0.8585,0.858,0.8561,0.8632,0.7787,0.5951,0.5369,0.49,0.4467,0.3424,0.2375,0.0,0.0,0.0,0.0,0.0,0.0,0.0,0.0,0.0,0.0,0.0,0.0,0.0,0.0,0.0,0.0,0.0,0.0,0.0,0.0,0.0,0.0,0.0,0.0,0.0,0.0,0.0,0.0,0.0,0.0,2.1975,2.1851,2.1757,2.1628,2.1376,2.1333,2.1553,2.1678,2.1865,2.207,2.2194,2.2175,2.207,2.207,2.2021,2.1865,2.1643,2.1141,2.0441,2.0226,2.0258,2.0441,2.0128,2.0042,2.0009,1.9901,1.9704,1.9507,1.9398,1.9067,1.8734,1.8623,1.8388,1.8085,1.7886,1.7546,1.7126,1.6886,1.6575,1.6227,1.5895,1.5641,1.5429,1.5155,1.4827,1.4446,1.3922,1.2481,1.1218,1.0963,1.0622,1.0392,1.0404,1.0398,1.0499,1.0896,1.1045,1.1199,1.1354,1.1465,1.1501,1.1354,1.16,1.171,1.1575,1.1673,1.16,1.1279,1.1131,1.0989,1.082,1.082,1.082,1.0815,1.0958,1.0045,0.8007,0.7922,0.7651,0.719,0.6266,0.5384,3.0969,0.0,0.0,0.0,0.0,0.0,0.0,0.0,0.0,0.0,0.0,0.0,0.0,0.0,0.0,0.0,0.0,0.0,0.0,0.0,0.0,0.0,0.0,0.0,0.0,0.0,0.0,0.0,0.0,0.0,2.2836,2.2775,2.2628,2.239,2.2451,2.2482,2.25,2.2622,2.2774,2.3015,2.3088,2.3088,2.3088,2.3088,2.3075,2.3062,2.3152,2.261,2.1678,2.1459,2.1502,2.169,2.1376,2.1282,2.1282,2.1219,2.106,2.0858,2.0794,2.0462,2.0074,2.002,1.9792,1.9497,1.9344,1.9079,1.8803,1.8583,1.8315,1.7978,1.7614,1.7444,1.7316,1.7017,1.6722,1.6575,1.6618,1.4961,1.3361,1.3033,1.2814,1.2625,1.2515,1.2654,1.2859,1.3129,1.3411,1.3627,1.3727,1.3871,1.3914,1.3835,1.4086,1.4221,1.4114,1.4185,1.4078,1.3684,1.3475,1.3245,1.2946,1.3012,1.3048,1.3055,1.3331,1.2795,1.1439,1.0656,1.0108,0.9804,0.8967,0.7985,0.0,0.0,0.0,0.0,0.0,0.0,0.0,0.0,0.0,0.0,0.0,0.0,0.0,0.0,0.0,0.0,0.0,0.0,0.0,0.0,0.0,0.0,0.0,0.0,0.0,0.0,0.0,0.0,0.0,2.4118,2.4102,2.393,2.3669,2.3344,2.3535,2.3535,2.3344,2.3669,2.3829,2.3859,2.406,2.4147,2.4147,2.4147,2.4105,2.405,2.4079,2.3627,2.2912,2.2937,2.295,2.2919,2.2725,2.2652,2.2634,2.2494,2.2433,2.2402,2.2206,2.1916,2.1616,2.1482,2.123,2.0955,2.0955,2.0592,2.0226,2.0333,1.9759,1.9125,1.9092,1.8859,1.8559,1.8368,1.8301,1.8234,1.8031,1.6618,1.5305,1.5037,1.4522,1.4112,1.4112,1.4275,1.4581,1.5105,1.5528,1.5904,1.6235,1.6304,1.6382,1.6573,1.6608,1.6658,1.6812,1.6693,1.6451,1.6044,1.5887,1.5528,1.4945,1.5114,1.5184,1.5174,1.5799,1.6184,1.6366,1.3649,1.2318,1.2298,1.1483,1.0135,3.2064,0.0,0.0,0.0,0.0,0.0,0.0,0.0,0.0,0.0,0.0,0.0,0.0,0.0,0.0,0.0,0.0,0.0,0.0,0.0,0.0,0.0,0.0,0.0,0.0,0.0,0.0,0.0,2.4765,2.465,2.4408,2.4337,2.4266,2.4179,2.4221,2.4337,2.4523,2.4609,2.4766,2.4965,2.5007,2.5035,2.5035,2.5286,2.5398,2.5398,2.5673,2.5673,2.5384,2.4182,2.3771,2.3901,2.3699,2.361,2.361,2.3463,2.3357,2.325,2.3045,2.2834,2.2695,2.2634,2.2573,2.2482,2.2482,2.2378,2.2243,2.2139,2.193,2.1701,2.1463,2.1138,2.0862,2.083,2.0619,2.0438,2.0374,1.9901,1.9007,1.7381,1.6833,1.6591,1.6591,1.6773,1.7048,1.7483,1.7857,1.8127,1.8228,1.8429,1.8619,1.8675,1.9085,1.9402,1.9467,1.9652,1.9511,1.8889,1.8611,1.8198,1.7625,1.7532,1.744,1.7332,1.7741,1.7978,1.8012,1.6365,1.5387,1.5141,1.4042,1.2977,0.0,0.0,0.0,0.0,0.0,0.0,0.0,3.2071,0.0,0.0,0.0,0.0,0.0,0.0,0.0,0.0,0.0,0.0,0.0,0.0,0.0,0.0,0.0,0.0,0.0,0.0,0.0,2.5729,2.5742,2.5728,2.5577,2.5536,2.5494,2.5494,2.5384,2.5467,2.5715,2.5646,2.5769,2.6013,2.6013,2.6094,2.6187,2.6402,2.6522,2.6575,2.6811,2.6916,2.6849,2.5862,2.5301,2.5035,2.4824,2.4754,2.4741,2.4741,2.4656,2.457,2.4471,2.4313,2.4124,2.4008,2.392,2.382,2.3774,2.3774,2.3745,2.369,2.3631,2.3471,2.3174,2.2952,2.279,2.2639,2.2475,2.2384,2.2323,2.2244,2.1572,1.9521,1.9007,1.8907,1.8818,1.9027,1.9334,1.9716,2.0052,2.0353,2.047,2.0673,2.0864,2.1,2.1346,2.1627,2.1739,2.1894,2.1789,2.135,2.1112,2.0753,2.0253,2.0168,1.9997,1.9792,2.0116,2.0362,2.0574,1.8731,1.7678,1.7362,1.6537,1.5774,0.0,0.0,0.0,0.0,0.0,0.0,3.3403,3.3124,0.0,0.0,0.0,0.0,0.0,0.0,0.0,0.0,0.0,0.0,0.0,0.0,0.0,0.0,0.0,0.0,0.0,0.0,2.6867,2.6826,2.6927,2.7067,2.7181,2.7067,2.699,2.7004,2.6759,2.6692,2.6808,2.6707,2.6771,2.703,2.7056,2.717,2.7424,2.7424,2.75,2.7615,2.7665,2.769,2.769,2.7675,2.7119,2.6242,2.6054,2.6013,2.6024,2.6119,2.6172,2.6199,2.6158,2.5984,2.5769,2.5508,2.5329,2.5162,2.5037,2.5009,2.5023,2.5135,2.5065,2.4842,2.463,2.4545,2.4446,2.4147,2.4176,2.4191,2.4061,2.4032,2.3511,2.1754,2.1229,2.102,2.0851,2.1083,2.1377,2.172,2.2065,2.2408,2.2743,2.2804,2.2955,2.3284,2.3391,2.3526,2.3807,2.3748,2.3647,2.3566,2.3419,2.3158,2.2767,2.2787,2.2632,2.2329,2.2632,2.3051,2.3524,2.09,1.9554,1.9359,1.9031,1.8581,0.0,0.0,0.0,0.0,0.0,0.0,3.4259,3.3958,0.0,0.0,0.0,0.0,0.0,0.0,0.0,0.0,0.0,0.0,0.0,0.0,0.0,0.0,0.0,0.0,0.0,2.79,2.7835,2.769,2.7675,2.7725,2.775,2.7725,2.765,2.7535,2.7485,2.7475,2.7489,2.759,2.7715,2.7864,2.7987,2.8046,2.8119,2.8231,2.8295,2.8319,2.8654,2.8779,2.8818,2.8889,2.828,2.7236,2.717,2.7232,2.7318,2.7232,2.7282,2.7344,2.7198,2.7081,2.703,2.6979,2.6938,2.6913,2.6887,2.6887,2.6887,2.6913,2.6872,2.6847,2.6795,2.6703,2.6599,2.6533,2.644,2.6349,2.6232,2.6193,2.6019,2.5424,2.3974,2.2815,2.2897,2.2957,2.3119,2.3445,2.3572,2.3673,2.3852,2.404,2.4271,2.4672,2.5135,2.5548,2.5793,2.6023,2.6008,2.5779,2.5615,2.5328,2.4984,2.4775,2.4579,2.441,2.4579,2.4942,2.5532,2.3434,2.2389,2.2359,2.2013,2.1713,0.0,0.0,0.0,3.4875,0.0,0.0,0.0,3.4323,3.3729,0.0,0.0,0.0,0.0,0.0,0.0,0.0,0.0,0.0,0.0,0.0,0.0,0.0,0.0,0.0,0.0,2.8566,2.8701,2.8834,2.8857,2.8904,2.9042,2.8927,2.8818,2.8748,2.8512,2.8456,2.8606,2.8519,2.8662,2.8966,2.9035,2.9111,2.9241,2.9325,2.9348,2.9348,2.9566,2.9655,2.9655,2.9766,2.9451,2.8856,2.8441,2.8288,2.8312,2.8417,2.8465,2.848,2.8418,2.8355,2.8292,2.8292,2.8324,2.8341,2.8341,2.8404,2.8451,2.8521,2.8576,2.8584,2.8474,2.8435,2.8357,2.8278,2.8245,2.8174,2.7948,2.7899,2.7801,2.7445,2.6544,2.5655,2.5038,2.4996,2.5121,2.5356,2.5411,2.5466,2.563,2.578,2.6023,2.6299,2.6743,2.7117,2.737,2.7545,2.7654,2.7663,2.7559,2.7464,2.7404,2.7156,2.6939,2.6798,2.6939,2.7205,2.7631,2.6739,2.5765,2.4791,2.4554,2.4415,0.0,0.0,0.0,0.0,0.0,3.536,0.0,0.0,0.0,3.3711,0.0,0.0,0.0,0.0,0.0,0.0,0.0,0.0,0.0,0.0,0.0,0.0,0.0,0.0,0.0,2.9234,2.9528,2.9919,2.9989,3.0097,3.0316,3.0135,2.9989,2.9941,2.9572,2.9454,2.9627,2.9454,2.955,2.9941,2.9989,3.014,3.0342,3.0363,3.0363,3.0363,3.0405,3.0405,3.0405,3.0497,3.0522,3.0439,2.9667,2.9325,2.9257,2.954,2.9623,2.9633,2.9695,2.9657,2.9581,2.9581,2.9636,2.9713,2.967,2.9751,2.9854,2.9961,3.003,3.0039,2.9902,2.9907,2.9912,2.974,2.9773,2.9745,2.9482,2.9377,2.9265,2.8909,2.8863,2.8451,2.7107,2.6953,2.7107,2.7259,2.7244,2.7269,2.7515,2.763,2.7788,2.8036,2.8309,2.8568,2.884,2.893,2.9073,2.9291,2.9313,2.9408,2.9567,2.9376,2.9188,2.909,2.9188,2.9381,2.968,2.9788,2.8878,2.7061,2.6945,2.6991,0.0,0.0,0.0,0.0,3.5728,0.0,0.0,0.0,3.4182,3.363,0.0,0.0,0.0,0.0,0.0,0.0,0.0,0.0,0.0,0.0,0.0,0.0,0.0,0.0,0.0,0.0,3.0363,3.0405,3.0699,3.0825,3.0744,3.0825,3.074,3.0426,3.0363,3.0258,3.0124,3.0258,3.0363,3.0426,3.072,3.0865,3.0905,3.0965,3.1004,3.1004,3.1103,3.1179,3.1179,3.1295,3.1317,3.1225,3.0605,3.0377,3.0402,3.0444,3.0605,3.0804,3.0825,3.0848,3.0891,3.0957,3.1055,3.1133,3.1019,3.0979,3.1016,3.1035,3.1055,3.1058,3.1152,3.1191,3.1191,3.1172,3.1075,3.0996,3.0881,3.0761,3.0623,3.0468,3.0525,3.0157,2.8763,2.8607,2.8716,2.8985,2.8808,2.8762,2.9007,2.9069,2.9249,2.9691,3.0035,3.029,3.0512,3.0637,3.0734,3.0754,3.0819,3.0861,3.0881,3.0842,3.0864,3.0908,3.0864,3.1036,3.1414,3.1432,3.0738,2.9416,2.9394,2.9518,0.0,0.0,0.0,0.0,0.0,0.0,0.0,0.0,3.4431,0.0,0.0,0.0,0.0,0.0,0.0,0.0,0.0,0.0,0.0,0.0,0.0,0.0,0.0,0.0,0.0,0.0,0.0,0.0,0.0,3.1433,3.1492,3.1452,3.1338,3.1201,3.1061,3.0962,3.0942,3.0962,3.1024,3.1201,3.1355,3.1471,3.1584,3.1621,3.1623,3.164,3.1677,3.1695,3.1714,3.1877,3.1949,3.1914,3.177,3.1458,3.1133,3.13,3.1376,3.1432,3.1488,3.1582,3.1677,3.1932,3.2039,3.2092,3.2092,3.2039,3.2003,3.2003,3.2074,3.2144,3.2144,3.2248,3.2317,3.223,3.2179,3.2074,3.1933,3.1898,3.1845,3.1667,3.1757,3.1704,3.1117,3.051,3.0149,3.027,3.0191,3.017,3.0319,3.0442,3.0647,3.1019,3.1378,3.167,3.183,3.2004,3.2141,3.2209,3.2325,3.2389,3.2389,3.2404,3.2453,3.2483,3.2435,3.2533,3.2739,3.2739,3.2574,3.2209,3.1603,3.1426,3.6101,0.0,0.0,0.0,0.0,0.0,0.0,0.0,0.0,0.0,0.0,0.0,0.0,0.0,0.0,0.0,0.0,0.0,0.0,0.0,0.0,0.0,0.0,0.0,0.0,0.0,0.0,0.0,3.195,3.2039,3.2162,3.2056,3.1967,3.1877,3.1675,3.1582,3.1637,3.16,3.1675,3.1877,3.1967,3.2074,3.2214,3.2283,3.2317,3.2334,3.2334,3.2334,3.2368,3.2503,3.2569,3.2619,3.2782,3.255,3.2109,3.2127,3.2144,3.2144,3.2231,3.235,3.2501,3.2781,3.291,3.2925,3.2954,3.2923,3.286,3.286,3.2937,3.3029,3.3001,3.3111,3.3187,3.3108,3.306,3.3011,3.287,3.2867,3.2862,3.2735,3.2813,3.2909,3.2927,3.2125,3.1501,3.1519,3.1501,3.1521,3.1633,3.1776,3.1987,3.2258,3.2586,3.284,3.294,3.3096,3.3234,3.3371,3.3465,3.3547,3.357,3.3637,3.3671,3.3692,3.3692,3.3744,3.3839,3.3839,3.3981,3.4255,3.33,3.2991,0.0,0.0,0.0,3.6821,0.0,0.0,0.0,0.0,3.5204,0.0,0.0,0.0,0.0,0.0,0.0,3.3175,0.0,0.0,0.0,0.0,0.0,0.0,0.0,0.0,0.0,0.0,0.0,3.2283,3.2586,3.2716,3.2589,3.27,3.2619,3.2301,3.2266,3.2179,3.1985,3.2162,3.2266,3.2283,3.2619,3.2763,3.2779,3.2975,3.3099,3.3175,3.3175,3.3202,3.3262,3.3276,3.3302,3.3357,3.3443,3.355,3.3569,3.2983,3.2921,3.3151,3.324,3.3382,3.3552,3.3565,3.3657,3.3734,3.3611,3.3565,3.3565,3.3565,3.3565,3.3611,3.3734,3.3762,3.3762,3.3762,3.3725,3.3675,3.3656,3.367,3.3678,3.375,3.3697,3.3702,3.375,3.3186,3.2761,3.2822,3.2777,3.2807,3.3018,3.309,3.3238,3.3497,3.3683,3.3789,3.3854,3.3867,3.3931,3.4068,3.408,3.4128,3.4258,3.4327,3.4405,3.4457,3.4457,3.4521,3.4661,3.4661,3.4775,3.4947,3.4336,3.4214,0.0,0.0,3.7169,3.7265,0.0,0.0,0.0,0.0,0.0,0.0,0.0,0.0,0.0,0.0,0.0,3.3401,0.0,0.0,0.0,0.0,0.0,0.0,0.0,0.0,0.0,0.0,0.0,3.2894,3.3003,3.3083,0.0,3.3083,3.3019,3.2894,3.2848,3.28,3.2734,3.28,3.2848,3.2894,3.3065,3.3187,3.3265,3.343,3.3516,3.3526,3.3588,3.3607,3.3634,3.3728,3.3781,3.3821,3.3923,3.4024,3.4056,3.3616,3.3519,3.362,3.3723,3.3802,3.3899,3.4024,3.4068,3.4055,3.4049,3.4024,3.3986,3.3986,3.4024,3.4062,3.4124,3.4161,3.4209,3.4257,3.4239,3.4244,3.4288,3.4327,3.4379,3.439,3.4412,3.4401,3.4345,3.4146,3.3887,3.356,3.3468,3.3515,3.3678,3.3792,3.3957,3.4235,3.439,3.4489,3.4566,3.4607,3.4913,3.5579,3.5627,3.5922,3.6585,3.6641,3.6693,3.6806,3.6826,3.6834,3.6892,3.6892,3.6941,3.7046,3.6889,3.6202,3.7318,3.7504,0.0,3.7756,3.7915,0.0,3.8138,0.0,0.0,0.0,0.0,0.0,0.0,0.0,0.0,3.367,3.3619,0.0,0.0,3.3534,0.0,0.0,0.0,0.0,0.0,0.0,3.3253,3.3313,3.3353,3.3415,0.0,0.0,3.3353,3.3313,3.3298,3.3268,3.3238,3.3313,3.3368,3.3408,3.3536,3.3634,3.3753,3.3855,3.3947,3.4023,3.4074,3.4099,3.4128,3.4211,3.4246,3.4265,3.4394,3.4472,3.4486,3.4159,3.4111,3.42,3.4327,3.4371,3.4383,3.4516,3.4516,3.4494,3.4537,3.4516,3.4483,3.4483,3.4516,3.4548,3.4548,3.4569,3.463,3.4711,3.4732,3.4782,3.4823,3.4888,3.4925,3.4943,3.4961,3.4952,3.4869,3.4841,3.4669,3.4195,3.4128,3.4186,3.4367,3.4473,3.4588,3.4823,3.4916,3.5122,3.5475,3.584,3.631,3.6925,3.6968,3.726,3.7882,3.7924,3.7996,3.8103,3.8116,3.8123,3.8134,3.8112,3.8132,3.8204,3.8224,3.7593]}]]